<?xml version="1.0" encoding="UTF-8" standalone="no" ?>
<gpx xmlns="http://www.topografix.com/GPX/1/1" xmlns:xsi="http://www.w3.org/2001/XMLSchema-instance" xsi:schemaLocation="http://www.topografix.com/GPX/1/1 http://www.topografix.com/GPX/1/1/gpx.xsd" version="1.1" creator="VisuGPX - https://www.visugpx.com">
  <metadata>
    <name>Trajet direct et rapide craponne à carré de soie </name>
    <desc><![CDATA[Trajet le plus rapide et le plus direct pour aller à carré de soie ]]></desc>
  </metadata>
  <trk>
    <name><![CDATA[Votre trajet : 20250710_0727.gpx]]></name>
    <extensions>
      <line xmlns="http://www.topografix.com/GPX/gpx_style/0/2">
        <color>0000FF</color>
        <width>4</width>
      </line>
    </extensions>
    <trkseg>
      <trkpt lat="45.7508" lon="4.73026">
        <ele>281.1</ele>
        <time>2025-07-10T07:27:00.773000+02:00</time>
      </trkpt>
      <trkpt lat="45.7508" lon="4.73025">
        <ele>281.1</ele>
        <time>2025-07-10T07:27:01.773000+02:00</time>
      </trkpt>
      <trkpt lat="45.7508" lon="4.73025">
        <ele>281.1</ele>
        <time>2025-07-10T07:27:03.772000+02:00</time>
      </trkpt>
      <trkpt lat="45.7508" lon="4.73025">
        <ele>281.1</ele>
        <time>2025-07-10T07:27:04.772000+02:00</time>
      </trkpt>
      <trkpt lat="45.7508" lon="4.73025">
        <ele>281.1</ele>
        <time>2025-07-10T07:27:05.772000+02:00</time>
      </trkpt>
      <trkpt lat="45.75081" lon="4.73025">
        <ele>281.1</ele>
        <time>2025-07-10T07:27:06.773000+02:00</time>
      </trkpt>
      <trkpt lat="45.75081" lon="4.73025">
        <ele>281.1</ele>
        <time>2025-07-10T07:27:08.773000+02:00</time>
      </trkpt>
      <trkpt lat="45.75081" lon="4.73025">
        <ele>281.1</ele>
        <time>2025-07-10T07:27:09.773000+02:00</time>
      </trkpt>
      <trkpt lat="45.75081" lon="4.73025">
        <ele>281.1</ele>
        <time>2025-07-10T07:27:11.772000+02:00</time>
      </trkpt>
      <trkpt lat="45.75077" lon="4.72994">
        <ele>281.4</ele>
        <time>2025-07-10T07:32:11.771000+02:00</time>
      </trkpt>
      <trkpt lat="45.75077" lon="4.72994">
        <ele>281.4</ele>
        <time>2025-07-10T07:32:13.772000+02:00</time>
      </trkpt>
      <trkpt lat="45.75077" lon="4.72994">
        <ele>281.4</ele>
        <time>2025-07-10T07:32:14.773000+02:00</time>
      </trkpt>
      <trkpt lat="45.75075" lon="4.72991">
        <ele>281.6</ele>
        <time>2025-07-10T07:32:16.773000+02:00</time>
      </trkpt>
      <trkpt lat="45.7507" lon="4.7299">
        <ele>281.8</ele>
        <time>2025-07-10T07:32:18.771000+02:00</time>
      </trkpt>
      <trkpt lat="45.75067" lon="4.7299">
        <ele>281.9</ele>
        <time>2025-07-10T07:32:19.773000+02:00</time>
      </trkpt>
      <trkpt lat="45.75061" lon="4.72991">
        <ele>282.1</ele>
        <time>2025-07-10T07:32:21.771000+02:00</time>
      </trkpt>
      <trkpt lat="45.75058" lon="4.72991">
        <ele>282.3</ele>
        <time>2025-07-10T07:32:22.773000+02:00</time>
      </trkpt>
      <trkpt lat="45.75055" lon="4.7299">
        <ele>282.4</ele>
        <time>2025-07-10T07:32:23.773000+02:00</time>
      </trkpt>
      <trkpt lat="45.75052" lon="4.72991">
        <ele>282.6</ele>
        <time>2025-07-10T07:32:24.773000+02:00</time>
      </trkpt>
      <trkpt lat="45.75046" lon="4.72991">
        <ele>282.9</ele>
        <time>2025-07-10T07:32:26.772000+02:00</time>
      </trkpt>
      <trkpt lat="45.75043" lon="4.72991">
        <ele>283.1</ele>
        <time>2025-07-10T07:32:27.772000+02:00</time>
      </trkpt>
      <trkpt lat="45.75039" lon="4.72992">
        <ele>283.3</ele>
        <time>2025-07-10T07:32:28.772000+02:00</time>
      </trkpt>
      <trkpt lat="45.75037" lon="4.72992">
        <ele>283.5</ele>
        <time>2025-07-10T07:32:29.773000+02:00</time>
      </trkpt>
      <trkpt lat="45.75034" lon="4.72992">
        <ele>283.6</ele>
        <time>2025-07-10T07:32:30.773000+02:00</time>
      </trkpt>
      <trkpt lat="45.75029" lon="4.72992">
        <ele>284</ele>
        <time>2025-07-10T07:32:32.771000+02:00</time>
      </trkpt>
      <trkpt lat="45.75025" lon="4.72992">
        <ele>284.1</ele>
        <time>2025-07-10T07:32:33.773000+02:00</time>
      </trkpt>
      <trkpt lat="45.7502" lon="4.72991">
        <ele>284.3</ele>
        <time>2025-07-10T07:32:35.773000+02:00</time>
      </trkpt>
      <trkpt lat="45.75016" lon="4.72991">
        <ele>284.4</ele>
        <time>2025-07-10T07:32:36.773000+02:00</time>
      </trkpt>
      <trkpt lat="45.75008" lon="4.72991">
        <ele>284.7</ele>
        <time>2025-07-10T07:32:38.771000+02:00</time>
      </trkpt>
      <trkpt lat="45.75004" lon="4.72992">
        <ele>284.9</ele>
        <time>2025-07-10T07:32:39.772000+02:00</time>
      </trkpt>
      <trkpt lat="45.74996" lon="4.72993">
        <ele>285</ele>
        <time>2025-07-10T07:32:41.771000+02:00</time>
      </trkpt>
      <trkpt lat="45.74992" lon="4.72993">
        <ele>285.1</ele>
        <time>2025-07-10T07:32:42.773000+02:00</time>
      </trkpt>
      <trkpt lat="45.74984" lon="4.72993">
        <ele>285.1</ele>
        <time>2025-07-10T07:32:44.772000+02:00</time>
      </trkpt>
      <trkpt lat="45.74981" lon="4.72992">
        <ele>285.2</ele>
        <time>2025-07-10T07:32:45.772000+02:00</time>
      </trkpt>
      <trkpt lat="45.74973" lon="4.72993">
        <ele>285.2</ele>
        <time>2025-07-10T07:32:47.773000+02:00</time>
      </trkpt>
      <trkpt lat="45.74965" lon="4.72993">
        <ele>285.2</ele>
        <time>2025-07-10T07:32:49.771000+02:00</time>
      </trkpt>
      <trkpt lat="45.74961" lon="4.72994">
        <ele>285.1</ele>
        <time>2025-07-10T07:32:50.772000+02:00</time>
      </trkpt>
      <trkpt lat="45.74958" lon="4.72994">
        <ele>285.1</ele>
        <time>2025-07-10T07:32:51.772000+02:00</time>
      </trkpt>
      <trkpt lat="45.74955" lon="4.72994">
        <ele>285.1</ele>
        <time>2025-07-10T07:32:52.772000+02:00</time>
      </trkpt>
      <trkpt lat="45.74952" lon="4.72994">
        <ele>285.1</ele>
        <time>2025-07-10T07:32:53.773000+02:00</time>
      </trkpt>
      <trkpt lat="45.74947" lon="4.72993">
        <ele>285</ele>
        <time>2025-07-10T07:32:55.773000+02:00</time>
      </trkpt>
      <trkpt lat="45.74946" lon="4.72993">
        <ele>285</ele>
        <time>2025-07-10T07:32:57.771000+02:00</time>
      </trkpt>
      <trkpt lat="45.74944" lon="4.72995">
        <ele>285</ele>
        <time>2025-07-10T07:32:58.772000+02:00</time>
      </trkpt>
      <trkpt lat="45.74942" lon="4.73">
        <ele>284.9</ele>
        <time>2025-07-10T07:32:59.772000+02:00</time>
      </trkpt>
      <trkpt lat="45.74941" lon="4.73005">
        <ele>284.9</ele>
        <time>2025-07-10T07:33:00.772000+02:00</time>
      </trkpt>
      <trkpt lat="45.74941" lon="4.73019">
        <ele>284.9</ele>
        <time>2025-07-10T07:33:02.771000+02:00</time>
      </trkpt>
      <trkpt lat="45.74941" lon="4.73026">
        <ele>284.9</ele>
        <time>2025-07-10T07:33:03.772000+02:00</time>
      </trkpt>
      <trkpt lat="45.74942" lon="4.73034">
        <ele>284.9</ele>
        <time>2025-07-10T07:33:04.773000+02:00</time>
      </trkpt>
      <trkpt lat="45.74943" lon="4.73041">
        <ele>284.9</ele>
        <time>2025-07-10T07:33:05.773000+02:00</time>
      </trkpt>
      <trkpt lat="45.74944" lon="4.73053">
        <ele>285</ele>
        <time>2025-07-10T07:33:07.771000+02:00</time>
      </trkpt>
      <trkpt lat="45.74945" lon="4.7306">
        <ele>285</ele>
        <time>2025-07-10T07:33:08.772000+02:00</time>
      </trkpt>
      <trkpt lat="45.74946" lon="4.73066">
        <ele>285</ele>
        <time>2025-07-10T07:33:09.772000+02:00</time>
      </trkpt>
      <trkpt lat="45.74946" lon="4.73073">
        <ele>285</ele>
        <time>2025-07-10T07:33:10.773000+02:00</time>
      </trkpt>
      <trkpt lat="45.74947" lon="4.73086">
        <ele>284.9</ele>
        <time>2025-07-10T07:33:12.772000+02:00</time>
      </trkpt>
      <trkpt lat="45.74947" lon="4.73091">
        <ele>284.9</ele>
        <time>2025-07-10T07:33:13.772000+02:00</time>
      </trkpt>
      <trkpt lat="45.74948" lon="4.73095">
        <ele>284.9</ele>
        <time>2025-07-10T07:33:14.773000+02:00</time>
      </trkpt>
      <trkpt lat="45.74949" lon="4.73104">
        <ele>285</ele>
        <time>2025-07-10T07:33:16.772000+02:00</time>
      </trkpt>
      <trkpt lat="45.74949" lon="4.73114">
        <ele>285</ele>
        <time>2025-07-10T07:33:18.771000+02:00</time>
      </trkpt>
      <trkpt lat="45.74949" lon="4.73119">
        <ele>285</ele>
        <time>2025-07-10T07:33:19.772000+02:00</time>
      </trkpt>
      <trkpt lat="45.7495" lon="4.7313">
        <ele>285</ele>
        <time>2025-07-10T07:33:21.772000+02:00</time>
      </trkpt>
      <trkpt lat="45.7495" lon="4.73136">
        <ele>285</ele>
        <time>2025-07-10T07:33:22.772000+02:00</time>
      </trkpt>
      <trkpt lat="45.7495" lon="4.73142">
        <ele>285</ele>
        <time>2025-07-10T07:33:23.772000+02:00</time>
      </trkpt>
      <trkpt lat="45.7495" lon="4.73148">
        <ele>285</ele>
        <time>2025-07-10T07:33:24.773000+02:00</time>
      </trkpt>
      <trkpt lat="45.74951" lon="4.7316">
        <ele>285</ele>
        <time>2025-07-10T07:33:26.772000+02:00</time>
      </trkpt>
      <trkpt lat="45.74951" lon="4.73167">
        <ele>285</ele>
        <time>2025-07-10T07:33:27.773000+02:00</time>
      </trkpt>
      <trkpt lat="45.74952" lon="4.73181">
        <ele>285</ele>
        <time>2025-07-10T07:33:29.772000+02:00</time>
      </trkpt>
      <trkpt lat="45.74953" lon="4.73195">
        <ele>285</ele>
        <time>2025-07-10T07:33:31.772000+02:00</time>
      </trkpt>
      <trkpt lat="45.74955" lon="4.7321">
        <ele>285.3</ele>
        <time>2025-07-10T07:33:33.772000+02:00</time>
      </trkpt>
      <trkpt lat="45.74956" lon="4.73218">
        <ele>285.5</ele>
        <time>2025-07-10T07:33:34.772000+02:00</time>
      </trkpt>
      <trkpt lat="45.74957" lon="4.73225">
        <ele>285.6</ele>
        <time>2025-07-10T07:33:35.772000+02:00</time>
      </trkpt>
      <trkpt lat="45.74958" lon="4.73232">
        <ele>285.5</ele>
        <time>2025-07-10T07:33:36.772000+02:00</time>
      </trkpt>
      <trkpt lat="45.74958" lon="4.73239">
        <ele>285.5</ele>
        <time>2025-07-10T07:33:37.772000+02:00</time>
      </trkpt>
      <trkpt lat="45.74959" lon="4.73246">
        <ele>285.5</ele>
        <time>2025-07-10T07:33:38.772000+02:00</time>
      </trkpt>
      <trkpt lat="45.7496" lon="4.73253">
        <ele>285.5</ele>
        <time>2025-07-10T07:33:39.772000+02:00</time>
      </trkpt>
      <trkpt lat="45.7496" lon="4.7326">
        <ele>285.6</ele>
        <time>2025-07-10T07:33:40.772000+02:00</time>
      </trkpt>
      <trkpt lat="45.74961" lon="4.73273">
        <ele>285.9</ele>
        <time>2025-07-10T07:33:42.771000+02:00</time>
      </trkpt>
      <trkpt lat="45.74962" lon="4.7328">
        <ele>286</ele>
        <time>2025-07-10T07:33:43.772000+02:00</time>
      </trkpt>
      <trkpt lat="45.74963" lon="4.73288">
        <ele>285.9</ele>
        <time>2025-07-10T07:33:44.772000+02:00</time>
      </trkpt>
      <trkpt lat="45.74963" lon="4.73296">
        <ele>285.8</ele>
        <time>2025-07-10T07:33:45.772000+02:00</time>
      </trkpt>
      <trkpt lat="45.74963" lon="4.73304">
        <ele>285.7</ele>
        <time>2025-07-10T07:33:46.772000+02:00</time>
      </trkpt>
      <trkpt lat="45.74963" lon="4.73319">
        <ele>285.3</ele>
        <time>2025-07-10T07:33:48.772000+02:00</time>
      </trkpt>
      <trkpt lat="45.74964" lon="4.73327">
        <ele>285.2</ele>
        <time>2025-07-10T07:33:49.772000+02:00</time>
      </trkpt>
      <trkpt lat="45.74969" lon="4.7334">
        <ele>285</ele>
        <time>2025-07-10T07:33:51.771000+02:00</time>
      </trkpt>
      <trkpt lat="45.74972" lon="4.73347">
        <ele>285</ele>
        <time>2025-07-10T07:33:52.771000+02:00</time>
      </trkpt>
      <trkpt lat="45.74974" lon="4.73354">
        <ele>285</ele>
        <time>2025-07-10T07:33:53.772000+02:00</time>
      </trkpt>
      <trkpt lat="45.74976" lon="4.73362">
        <ele>284.9</ele>
        <time>2025-07-10T07:33:54.772000+02:00</time>
      </trkpt>
      <trkpt lat="45.74981" lon="4.73377">
        <ele>284.7</ele>
        <time>2025-07-10T07:33:56.772000+02:00</time>
      </trkpt>
      <trkpt lat="45.74984" lon="4.73385">
        <ele>284.6</ele>
        <time>2025-07-10T07:33:57.772000+02:00</time>
      </trkpt>
      <trkpt lat="45.74987" lon="4.73393">
        <ele>284.6</ele>
        <time>2025-07-10T07:33:58.772000+02:00</time>
      </trkpt>
      <trkpt lat="45.74989" lon="4.73401">
        <ele>284.6</ele>
        <time>2025-07-10T07:33:59.772000+02:00</time>
      </trkpt>
      <trkpt lat="45.74992" lon="4.73409">
        <ele>284.8</ele>
        <time>2025-07-10T07:34:00.772000+02:00</time>
      </trkpt>
      <trkpt lat="45.74994" lon="4.73417">
        <ele>285</ele>
        <time>2025-07-10T07:34:01.772000+02:00</time>
      </trkpt>
      <trkpt lat="45.75001" lon="4.73433">
        <ele>285</ele>
        <time>2025-07-10T07:34:03.772000+02:00</time>
      </trkpt>
      <trkpt lat="45.75004" lon="4.73441">
        <ele>284.9</ele>
        <time>2025-07-10T07:34:04.772000+02:00</time>
      </trkpt>
      <trkpt lat="45.75006" lon="4.73449">
        <ele>284.9</ele>
        <time>2025-07-10T07:34:05.772000+02:00</time>
      </trkpt>
      <trkpt lat="45.75009" lon="4.73457">
        <ele>285.1</ele>
        <time>2025-07-10T07:34:06.772000+02:00</time>
      </trkpt>
      <trkpt lat="45.75012" lon="4.73464">
        <ele>285.3</ele>
        <time>2025-07-10T07:34:07.772000+02:00</time>
      </trkpt>
      <trkpt lat="45.75014" lon="4.73473">
        <ele>285.5</ele>
        <time>2025-07-10T07:34:08.772000+02:00</time>
      </trkpt>
      <trkpt lat="45.75015" lon="4.73481">
        <ele>285.9</ele>
        <time>2025-07-10T07:34:09.772000+02:00</time>
      </trkpt>
      <trkpt lat="45.7502" lon="4.73497">
        <ele>286.8</ele>
        <time>2025-07-10T07:34:11.772000+02:00</time>
      </trkpt>
      <trkpt lat="45.75022" lon="4.73505">
        <ele>286.9</ele>
        <time>2025-07-10T07:34:12.772000+02:00</time>
      </trkpt>
      <trkpt lat="45.75024" lon="4.73513">
        <ele>286.7</ele>
        <time>2025-07-10T07:34:13.772000+02:00</time>
      </trkpt>
      <trkpt lat="45.75027" lon="4.73528">
        <ele>286</ele>
        <time>2025-07-10T07:34:15.771000+02:00</time>
      </trkpt>
      <trkpt lat="45.75029" lon="4.73536">
        <ele>285.7</ele>
        <time>2025-07-10T07:34:16.771000+02:00</time>
      </trkpt>
      <trkpt lat="45.7503" lon="4.73545">
        <ele>285.4</ele>
        <time>2025-07-10T07:34:17.771000+02:00</time>
      </trkpt>
      <trkpt lat="45.75031" lon="4.73553">
        <ele>285.1</ele>
        <time>2025-07-10T07:34:18.772000+02:00</time>
      </trkpt>
      <trkpt lat="45.75033" lon="4.73572">
        <ele>283.8</ele>
        <time>2025-07-10T07:34:20.771000+02:00</time>
      </trkpt>
      <trkpt lat="45.75034" lon="4.73583">
        <ele>283</ele>
        <time>2025-07-10T07:34:21.772000+02:00</time>
      </trkpt>
      <trkpt lat="45.75034" lon="4.73606">
        <ele>281.1</ele>
        <time>2025-07-10T07:34:23.772000+02:00</time>
      </trkpt>
      <trkpt lat="45.75034" lon="4.73619">
        <ele>279.7</ele>
        <time>2025-07-10T07:34:24.772000+02:00</time>
      </trkpt>
      <trkpt lat="45.75034" lon="4.73633">
        <ele>278</ele>
        <time>2025-07-10T07:34:25.772000+02:00</time>
      </trkpt>
      <trkpt lat="45.75034" lon="4.73647">
        <ele>276.4</ele>
        <time>2025-07-10T07:34:26.772000+02:00</time>
      </trkpt>
      <trkpt lat="45.75035" lon="4.73662">
        <ele>274.8</ele>
        <time>2025-07-10T07:34:27.772000+02:00</time>
      </trkpt>
      <trkpt lat="45.75035" lon="4.73676">
        <ele>273.4</ele>
        <time>2025-07-10T07:34:28.772000+02:00</time>
      </trkpt>
      <trkpt lat="45.75035" lon="4.73703">
        <ele>270.8</ele>
        <time>2025-07-10T07:34:30.770000+02:00</time>
      </trkpt>
      <trkpt lat="45.75035" lon="4.73716">
        <ele>269.4</ele>
        <time>2025-07-10T07:34:31.772000+02:00</time>
      </trkpt>
      <trkpt lat="45.75035" lon="4.73736">
        <ele>267.8</ele>
        <time>2025-07-10T07:34:33.771000+02:00</time>
      </trkpt>
      <trkpt lat="45.75036" lon="4.73743">
        <ele>267.2</ele>
        <time>2025-07-10T07:34:34.771000+02:00</time>
      </trkpt>
      <trkpt lat="45.75036" lon="4.73751">
        <ele>266.6</ele>
        <time>2025-07-10T07:34:35.772000+02:00</time>
      </trkpt>
      <trkpt lat="45.75038" lon="4.7377">
        <ele>265.5</ele>
        <time>2025-07-10T07:34:37.770000+02:00</time>
      </trkpt>
      <trkpt lat="45.75038" lon="4.7378">
        <ele>264.9</ele>
        <time>2025-07-10T07:34:38.771000+02:00</time>
      </trkpt>
      <trkpt lat="45.75039" lon="4.73791">
        <ele>264.3</ele>
        <time>2025-07-10T07:34:39.771000+02:00</time>
      </trkpt>
      <trkpt lat="45.7504" lon="4.73802">
        <ele>263.7</ele>
        <time>2025-07-10T07:34:40.772000+02:00</time>
      </trkpt>
      <trkpt lat="45.75041" lon="4.73813">
        <ele>263.2</ele>
        <time>2025-07-10T07:34:41.773000+02:00</time>
      </trkpt>
      <trkpt lat="45.75043" lon="4.73834">
        <ele>262.5</ele>
        <time>2025-07-10T07:34:43.770000+02:00</time>
      </trkpt>
      <trkpt lat="45.75044" lon="4.73844">
        <ele>262.4</ele>
        <time>2025-07-10T07:34:44.773000+02:00</time>
      </trkpt>
      <trkpt lat="45.75041" lon="4.7386">
        <ele>262.5</ele>
        <time>2025-07-10T07:34:46.771000+02:00</time>
      </trkpt>
      <trkpt lat="45.7504" lon="4.73868">
        <ele>262.3</ele>
        <time>2025-07-10T07:34:47.772000+02:00</time>
      </trkpt>
      <trkpt lat="45.75044" lon="4.73883">
        <ele>261.6</ele>
        <time>2025-07-10T07:34:49.772000+02:00</time>
      </trkpt>
      <trkpt lat="45.75048" lon="4.73901">
        <ele>261.3</ele>
        <time>2025-07-10T07:34:51.772000+02:00</time>
      </trkpt>
      <trkpt lat="45.7505" lon="4.73922">
        <ele>261.2</ele>
        <time>2025-07-10T07:34:53.772000+02:00</time>
      </trkpt>
      <trkpt lat="45.75051" lon="4.73931">
        <ele>261.2</ele>
        <time>2025-07-10T07:34:54.772000+02:00</time>
      </trkpt>
      <trkpt lat="45.75052" lon="4.73951">
        <ele>261.3</ele>
        <time>2025-07-10T07:34:56.770000+02:00</time>
      </trkpt>
      <trkpt lat="45.75054" lon="4.73961">
        <ele>261.6</ele>
        <time>2025-07-10T07:34:57.772000+02:00</time>
      </trkpt>
      <trkpt lat="45.75055" lon="4.7397">
        <ele>261.9</ele>
        <time>2025-07-10T07:34:58.772000+02:00</time>
      </trkpt>
      <trkpt lat="45.75055" lon="4.7398">
        <ele>262</ele>
        <time>2025-07-10T07:34:59.772000+02:00</time>
      </trkpt>
      <trkpt lat="45.75057" lon="4.73999">
        <ele>261.9</ele>
        <time>2025-07-10T07:35:01.771000+02:00</time>
      </trkpt>
      <trkpt lat="45.75058" lon="4.74009">
        <ele>261.9</ele>
        <time>2025-07-10T07:35:02.771000+02:00</time>
      </trkpt>
      <trkpt lat="45.75059" lon="4.74018">
        <ele>261.9</ele>
        <time>2025-07-10T07:35:03.771000+02:00</time>
      </trkpt>
      <trkpt lat="45.75061" lon="4.74028">
        <ele>262</ele>
        <time>2025-07-10T07:35:04.771000+02:00</time>
      </trkpt>
      <trkpt lat="45.75062" lon="4.74037">
        <ele>262</ele>
        <time>2025-07-10T07:35:05.772000+02:00</time>
      </trkpt>
      <trkpt lat="45.75064" lon="4.74056">
        <ele>262</ele>
        <time>2025-07-10T07:35:07.771000+02:00</time>
      </trkpt>
      <trkpt lat="45.75065" lon="4.74066">
        <ele>262</ele>
        <time>2025-07-10T07:35:08.771000+02:00</time>
      </trkpt>
      <trkpt lat="45.75066" lon="4.74075">
        <ele>262</ele>
        <time>2025-07-10T07:35:09.772000+02:00</time>
      </trkpt>
      <trkpt lat="45.75067" lon="4.74084">
        <ele>262</ele>
        <time>2025-07-10T07:35:10.772000+02:00</time>
      </trkpt>
      <trkpt lat="45.75069" lon="4.74102">
        <ele>262</ele>
        <time>2025-07-10T07:35:12.772000+02:00</time>
      </trkpt>
      <trkpt lat="45.75072" lon="4.7412">
        <ele>262</ele>
        <time>2025-07-10T07:35:14.771000+02:00</time>
      </trkpt>
      <trkpt lat="45.75073" lon="4.74129">
        <ele>262</ele>
        <time>2025-07-10T07:35:15.773000+02:00</time>
      </trkpt>
      <trkpt lat="45.75075" lon="4.74146">
        <ele>262.2</ele>
        <time>2025-07-10T07:35:17.772000+02:00</time>
      </trkpt>
      <trkpt lat="45.75076" lon="4.74155">
        <ele>262.4</ele>
        <time>2025-07-10T07:35:18.772000+02:00</time>
      </trkpt>
      <trkpt lat="45.75078" lon="4.74173">
        <ele>262.8</ele>
        <time>2025-07-10T07:35:20.771000+02:00</time>
      </trkpt>
      <trkpt lat="45.7508" lon="4.74191">
        <ele>262.9</ele>
        <time>2025-07-10T07:35:22.772000+02:00</time>
      </trkpt>
      <trkpt lat="45.75082" lon="4.74209">
        <ele>262.5</ele>
        <time>2025-07-10T07:35:24.773000+02:00</time>
      </trkpt>
      <trkpt lat="45.75085" lon="4.74228">
        <ele>262</ele>
        <time>2025-07-10T07:35:26.771000+02:00</time>
      </trkpt>
      <trkpt lat="45.75086" lon="4.74237">
        <ele>262</ele>
        <time>2025-07-10T07:35:27.772000+02:00</time>
      </trkpt>
      <trkpt lat="45.75087" lon="4.74246">
        <ele>262</ele>
        <time>2025-07-10T07:35:28.772000+02:00</time>
      </trkpt>
      <trkpt lat="45.75088" lon="4.74255">
        <ele>261.8</ele>
        <time>2025-07-10T07:35:29.772000+02:00</time>
      </trkpt>
      <trkpt lat="45.75089" lon="4.74264">
        <ele>261.5</ele>
        <time>2025-07-10T07:35:30.772000+02:00</time>
      </trkpt>
      <trkpt lat="45.75089" lon="4.74274">
        <ele>261.1</ele>
        <time>2025-07-10T07:35:31.773000+02:00</time>
      </trkpt>
      <trkpt lat="45.7509" lon="4.74283">
        <ele>261</ele>
        <time>2025-07-10T07:35:32.773000+02:00</time>
      </trkpt>
      <trkpt lat="45.7509" lon="4.74303">
        <ele>261</ele>
        <time>2025-07-10T07:35:34.772000+02:00</time>
      </trkpt>
      <trkpt lat="45.75091" lon="4.74323">
        <ele>260.4</ele>
        <time>2025-07-10T07:35:36.771000+02:00</time>
      </trkpt>
      <trkpt lat="45.75092" lon="4.74334">
        <ele>260</ele>
        <time>2025-07-10T07:35:37.772000+02:00</time>
      </trkpt>
      <trkpt lat="45.75092" lon="4.74355">
        <ele>260</ele>
        <time>2025-07-10T07:35:39.771000+02:00</time>
      </trkpt>
      <trkpt lat="45.75092" lon="4.74365">
        <ele>260</ele>
        <time>2025-07-10T07:35:40.772000+02:00</time>
      </trkpt>
      <trkpt lat="45.75093" lon="4.74375">
        <ele>259.8</ele>
        <time>2025-07-10T07:35:41.772000+02:00</time>
      </trkpt>
      <trkpt lat="45.75094" lon="4.74395">
        <ele>259.7</ele>
        <time>2025-07-10T07:35:43.772000+02:00</time>
      </trkpt>
      <trkpt lat="45.75094" lon="4.74404">
        <ele>259.8</ele>
        <time>2025-07-10T07:35:44.772000+02:00</time>
      </trkpt>
      <trkpt lat="45.75095" lon="4.74414">
        <ele>260</ele>
        <time>2025-07-10T07:35:45.772000+02:00</time>
      </trkpt>
      <trkpt lat="45.75095" lon="4.74424">
        <ele>260.2</ele>
        <time>2025-07-10T07:35:46.772000+02:00</time>
      </trkpt>
      <trkpt lat="45.75096" lon="4.74433">
        <ele>260.6</ele>
        <time>2025-07-10T07:35:47.772000+02:00</time>
      </trkpt>
      <trkpt lat="45.75096" lon="4.74451">
        <ele>261</ele>
        <time>2025-07-10T07:35:49.773000+02:00</time>
      </trkpt>
      <trkpt lat="45.75097" lon="4.74468">
        <ele>261</ele>
        <time>2025-07-10T07:35:51.770000+02:00</time>
      </trkpt>
      <trkpt lat="45.75098" lon="4.74477">
        <ele>261</ele>
        <time>2025-07-10T07:35:52.771000+02:00</time>
      </trkpt>
      <trkpt lat="45.75098" lon="4.74485">
        <ele>261</ele>
        <time>2025-07-10T07:35:53.772000+02:00</time>
      </trkpt>
      <trkpt lat="45.75098" lon="4.74494">
        <ele>261</ele>
        <time>2025-07-10T07:35:54.772000+02:00</time>
      </trkpt>
      <trkpt lat="45.75098" lon="4.74503">
        <ele>261.1</ele>
        <time>2025-07-10T07:35:55.772000+02:00</time>
      </trkpt>
      <trkpt lat="45.75098" lon="4.74521">
        <ele>261.8</ele>
        <time>2025-07-10T07:35:57.771000+02:00</time>
      </trkpt>
      <trkpt lat="45.75098" lon="4.7453">
        <ele>262</ele>
        <time>2025-07-10T07:35:58.772000+02:00</time>
      </trkpt>
      <trkpt lat="45.75097" lon="4.74548">
        <ele>262</ele>
        <time>2025-07-10T07:36:00.771000+02:00</time>
      </trkpt>
      <trkpt lat="45.75096" lon="4.74557">
        <ele>262</ele>
        <time>2025-07-10T07:36:01.771000+02:00</time>
      </trkpt>
      <trkpt lat="45.75096" lon="4.74566">
        <ele>262</ele>
        <time>2025-07-10T07:36:02.771000+02:00</time>
      </trkpt>
      <trkpt lat="45.75095" lon="4.74576">
        <ele>262</ele>
        <time>2025-07-10T07:36:03.771000+02:00</time>
      </trkpt>
      <trkpt lat="45.75094" lon="4.74585">
        <ele>262</ele>
        <time>2025-07-10T07:36:04.772000+02:00</time>
      </trkpt>
      <trkpt lat="45.75094" lon="4.74594">
        <ele>261.7</ele>
        <time>2025-07-10T07:36:05.772000+02:00</time>
      </trkpt>
      <trkpt lat="45.75092" lon="4.74614">
        <ele>261.3</ele>
        <time>2025-07-10T07:36:07.771000+02:00</time>
      </trkpt>
      <trkpt lat="45.75092" lon="4.74624">
        <ele>261.3</ele>
        <time>2025-07-10T07:36:08.771000+02:00</time>
      </trkpt>
      <trkpt lat="45.75091" lon="4.74632">
        <ele>261.3</ele>
        <time>2025-07-10T07:36:09.772000+02:00</time>
      </trkpt>
      <trkpt lat="45.7509" lon="4.74646">
        <ele>260.9</ele>
        <time>2025-07-10T07:36:11.771000+02:00</time>
      </trkpt>
      <trkpt lat="45.75089" lon="4.74653">
        <ele>260.6</ele>
        <time>2025-07-10T07:36:12.772000+02:00</time>
      </trkpt>
      <trkpt lat="45.75088" lon="4.74669">
        <ele>259.9</ele>
        <time>2025-07-10T07:36:14.772000+02:00</time>
      </trkpt>
      <trkpt lat="45.75087" lon="4.74688">
        <ele>259.2</ele>
        <time>2025-07-10T07:36:16.771000+02:00</time>
      </trkpt>
      <trkpt lat="45.75087" lon="4.74697">
        <ele>258.9</ele>
        <time>2025-07-10T07:36:17.772000+02:00</time>
      </trkpt>
      <trkpt lat="45.75086" lon="4.74707">
        <ele>258.5</ele>
        <time>2025-07-10T07:36:18.772000+02:00</time>
      </trkpt>
      <trkpt lat="45.75085" lon="4.74729">
        <ele>257.5</ele>
        <time>2025-07-10T07:36:20.772000+02:00</time>
      </trkpt>
      <trkpt lat="45.75084" lon="4.74752">
        <ele>255.9</ele>
        <time>2025-07-10T07:36:22.771000+02:00</time>
      </trkpt>
      <trkpt lat="45.75083" lon="4.74763">
        <ele>255.5</ele>
        <time>2025-07-10T07:36:23.772000+02:00</time>
      </trkpt>
      <trkpt lat="45.75082" lon="4.74788">
        <ele>254.7</ele>
        <time>2025-07-10T07:36:25.770000+02:00</time>
      </trkpt>
      <trkpt lat="45.75081" lon="4.748">
        <ele>254.2</ele>
        <time>2025-07-10T07:36:26.773000+02:00</time>
      </trkpt>
      <trkpt lat="45.75076" lon="4.74825">
        <ele>252.6</ele>
        <time>2025-07-10T07:36:28.772000+02:00</time>
      </trkpt>
      <trkpt lat="45.75074" lon="4.74836">
        <ele>251.8</ele>
        <time>2025-07-10T07:36:29.772000+02:00</time>
      </trkpt>
      <trkpt lat="45.7507" lon="4.74855">
        <ele>250.4</ele>
        <time>2025-07-10T07:36:31.772000+02:00</time>
      </trkpt>
      <trkpt lat="45.75066" lon="4.74872">
        <ele>249.4</ele>
        <time>2025-07-10T07:36:33.770000+02:00</time>
      </trkpt>
      <trkpt lat="45.75065" lon="4.74881">
        <ele>248.8</ele>
        <time>2025-07-10T07:36:34.770000+02:00</time>
      </trkpt>
      <trkpt lat="45.75063" lon="4.7489">
        <ele>248.2</ele>
        <time>2025-07-10T07:36:35.772000+02:00</time>
      </trkpt>
      <trkpt lat="45.75062" lon="4.749">
        <ele>247.8</ele>
        <time>2025-07-10T07:36:36.773000+02:00</time>
      </trkpt>
      <trkpt lat="45.75058" lon="4.74921">
        <ele>246.9</ele>
        <time>2025-07-10T07:36:38.772000+02:00</time>
      </trkpt>
      <trkpt lat="45.75056" lon="4.74932">
        <ele>246.5</ele>
        <time>2025-07-10T07:36:39.773000+02:00</time>
      </trkpt>
      <trkpt lat="45.75052" lon="4.74954">
        <ele>245.9</ele>
        <time>2025-07-10T07:36:41.771000+02:00</time>
      </trkpt>
      <trkpt lat="45.7505" lon="4.74965">
        <ele>245.7</ele>
        <time>2025-07-10T07:36:42.772000+02:00</time>
      </trkpt>
      <trkpt lat="45.75046" lon="4.74988">
        <ele>245</ele>
        <time>2025-07-10T07:36:44.773000+02:00</time>
      </trkpt>
      <trkpt lat="45.75042" lon="4.75012">
        <ele>244.3</ele>
        <time>2025-07-10T07:36:46.772000+02:00</time>
      </trkpt>
      <trkpt lat="45.75038" lon="4.75034">
        <ele>244.1</ele>
        <time>2025-07-10T07:36:48.770000+02:00</time>
      </trkpt>
      <trkpt lat="45.75036" lon="4.75046">
        <ele>243.9</ele>
        <time>2025-07-10T07:36:49.773000+02:00</time>
      </trkpt>
      <trkpt lat="45.75035" lon="4.75068">
        <ele>243.7</ele>
        <time>2025-07-10T07:36:51.770000+02:00</time>
      </trkpt>
      <trkpt lat="45.75035" lon="4.75079">
        <ele>243.7</ele>
        <time>2025-07-10T07:36:52.772000+02:00</time>
      </trkpt>
      <trkpt lat="45.75035" lon="4.75101">
        <ele>243.8</ele>
        <time>2025-07-10T07:36:54.772000+02:00</time>
      </trkpt>
      <trkpt lat="45.75035" lon="4.75122">
        <ele>243.5</ele>
        <time>2025-07-10T07:36:56.771000+02:00</time>
      </trkpt>
      <trkpt lat="45.75035" lon="4.75143">
        <ele>243</ele>
        <time>2025-07-10T07:36:58.772000+02:00</time>
      </trkpt>
      <trkpt lat="45.75034" lon="4.75162">
        <ele>243</ele>
        <time>2025-07-10T07:37:00.770000+02:00</time>
      </trkpt>
      <trkpt lat="45.75034" lon="4.75172">
        <ele>243</ele>
        <time>2025-07-10T07:37:01.771000+02:00</time>
      </trkpt>
      <trkpt lat="45.75033" lon="4.75183">
        <ele>242.9</ele>
        <time>2025-07-10T07:37:02.773000+02:00</time>
      </trkpt>
      <trkpt lat="45.7503" lon="4.75204">
        <ele>242.6</ele>
        <time>2025-07-10T07:37:04.771000+02:00</time>
      </trkpt>
      <trkpt lat="45.75029" lon="4.75214">
        <ele>242.3</ele>
        <time>2025-07-10T07:37:05.771000+02:00</time>
      </trkpt>
      <trkpt lat="45.75026" lon="4.75234">
        <ele>242</ele>
        <time>2025-07-10T07:37:07.771000+02:00</time>
      </trkpt>
      <trkpt lat="45.75025" lon="4.75245">
        <ele>242</ele>
        <time>2025-07-10T07:37:08.772000+02:00</time>
      </trkpt>
      <trkpt lat="45.75025" lon="4.75264">
        <ele>241.5</ele>
        <time>2025-07-10T07:37:10.772000+02:00</time>
      </trkpt>
      <trkpt lat="45.75027" lon="4.75284">
        <ele>241.3</ele>
        <time>2025-07-10T07:37:12.771000+02:00</time>
      </trkpt>
      <trkpt lat="45.75028" lon="4.75294">
        <ele>241.6</ele>
        <time>2025-07-10T07:37:13.771000+02:00</time>
      </trkpt>
      <trkpt lat="45.75028" lon="4.75312">
        <ele>242</ele>
        <time>2025-07-10T07:37:15.771000+02:00</time>
      </trkpt>
      <trkpt lat="45.75029" lon="4.75322">
        <ele>241.9</ele>
        <time>2025-07-10T07:37:16.771000+02:00</time>
      </trkpt>
      <trkpt lat="45.75029" lon="4.75331">
        <ele>241.9</ele>
        <time>2025-07-10T07:37:17.771000+02:00</time>
      </trkpt>
      <trkpt lat="45.7503" lon="4.7534">
        <ele>242.2</ele>
        <time>2025-07-10T07:37:18.772000+02:00</time>
      </trkpt>
      <trkpt lat="45.75031" lon="4.75349">
        <ele>242.6</ele>
        <time>2025-07-10T07:37:19.772000+02:00</time>
      </trkpt>
      <trkpt lat="45.75034" lon="4.75365">
        <ele>243.6</ele>
        <time>2025-07-10T07:37:21.772000+02:00</time>
      </trkpt>
      <trkpt lat="45.75037" lon="4.75381">
        <ele>245</ele>
        <time>2025-07-10T07:37:23.771000+02:00</time>
      </trkpt>
      <trkpt lat="45.75039" lon="4.75387">
        <ele>245.7</ele>
        <time>2025-07-10T07:37:24.771000+02:00</time>
      </trkpt>
      <trkpt lat="45.7504" lon="4.75396">
        <ele>245.9</ele>
        <time>2025-07-10T07:37:25.771000+02:00</time>
      </trkpt>
      <trkpt lat="45.75041" lon="4.75404">
        <ele>246</ele>
        <time>2025-07-10T07:37:26.771000+02:00</time>
      </trkpt>
      <trkpt lat="45.75043" lon="4.75412">
        <ele>246.1</ele>
        <time>2025-07-10T07:37:27.772000+02:00</time>
      </trkpt>
      <trkpt lat="45.75046" lon="4.75429">
        <ele>246.2</ele>
        <time>2025-07-10T07:37:29.773000+02:00</time>
      </trkpt>
      <trkpt lat="45.7505" lon="4.75446">
        <ele>246.4</ele>
        <time>2025-07-10T07:37:31.771000+02:00</time>
      </trkpt>
      <trkpt lat="45.75052" lon="4.75455">
        <ele>246.3</ele>
        <time>2025-07-10T07:37:32.771000+02:00</time>
      </trkpt>
      <trkpt lat="45.75054" lon="4.75463">
        <ele>246.2</ele>
        <time>2025-07-10T07:37:33.771000+02:00</time>
      </trkpt>
      <trkpt lat="45.75057" lon="4.75472">
        <ele>246.1</ele>
        <time>2025-07-10T07:37:34.772000+02:00</time>
      </trkpt>
      <trkpt lat="45.75059" lon="4.75481">
        <ele>245.8</ele>
        <time>2025-07-10T07:37:35.772000+02:00</time>
      </trkpt>
      <trkpt lat="45.75064" lon="4.75499">
        <ele>245.3</ele>
        <time>2025-07-10T07:37:37.771000+02:00</time>
      </trkpt>
      <trkpt lat="45.75066" lon="4.75509">
        <ele>244.7</ele>
        <time>2025-07-10T07:37:38.772000+02:00</time>
      </trkpt>
      <trkpt lat="45.75071" lon="4.75531">
        <ele>243.4</ele>
        <time>2025-07-10T07:37:40.771000+02:00</time>
      </trkpt>
      <trkpt lat="45.75074" lon="4.75542">
        <ele>243</ele>
        <time>2025-07-10T07:37:41.772000+02:00</time>
      </trkpt>
      <trkpt lat="45.75079" lon="4.75561">
        <ele>242.3</ele>
        <time>2025-07-10T07:37:43.771000+02:00</time>
      </trkpt>
      <trkpt lat="45.75081" lon="4.75569">
        <ele>241.9</ele>
        <time>2025-07-10T07:37:44.771000+02:00</time>
      </trkpt>
      <trkpt lat="45.75083" lon="4.75577">
        <ele>241.5</ele>
        <time>2025-07-10T07:37:45.771000+02:00</time>
      </trkpt>
      <trkpt lat="45.75085" lon="4.75583">
        <ele>241.1</ele>
        <time>2025-07-10T07:37:46.771000+02:00</time>
      </trkpt>
      <trkpt lat="45.75085" lon="4.75589">
        <ele>240.8</ele>
        <time>2025-07-10T07:37:47.771000+02:00</time>
      </trkpt>
      <trkpt lat="45.75084" lon="4.75592">
        <ele>240.7</ele>
        <time>2025-07-10T07:37:48.771000+02:00</time>
      </trkpt>
      <trkpt lat="45.75084" lon="4.75593">
        <ele>240.6</ele>
        <time>2025-07-10T07:37:49.771000+02:00</time>
      </trkpt>
      <trkpt lat="45.75083" lon="4.75595">
        <ele>240.6</ele>
        <time>2025-07-10T07:37:50.771000+02:00</time>
      </trkpt>
      <trkpt lat="45.75081" lon="4.75597">
        <ele>240.6</ele>
        <time>2025-07-10T07:37:51.771000+02:00</time>
      </trkpt>
      <trkpt lat="45.75074" lon="4.756">
        <ele>240.6</ele>
        <time>2025-07-10T07:37:53.771000+02:00</time>
      </trkpt>
      <trkpt lat="45.75064" lon="4.756">
        <ele>240.8</ele>
        <time>2025-07-10T07:37:55.771000+02:00</time>
      </trkpt>
      <trkpt lat="45.75053" lon="4.75601">
        <ele>241</ele>
        <time>2025-07-10T07:37:57.770000+02:00</time>
      </trkpt>
      <trkpt lat="45.75047" lon="4.75602">
        <ele>241</ele>
        <time>2025-07-10T07:37:58.771000+02:00</time>
      </trkpt>
      <trkpt lat="45.7504" lon="4.75601">
        <ele>241</ele>
        <time>2025-07-10T07:37:59.771000+02:00</time>
      </trkpt>
      <trkpt lat="45.75027" lon="4.756">
        <ele>241</ele>
        <time>2025-07-10T07:38:01.771000+02:00</time>
      </trkpt>
      <trkpt lat="45.75021" lon="4.75601">
        <ele>241</ele>
        <time>2025-07-10T07:38:02.772000+02:00</time>
      </trkpt>
      <trkpt lat="45.75007" lon="4.75603">
        <ele>241</ele>
        <time>2025-07-10T07:38:04.772000+02:00</time>
      </trkpt>
      <trkpt lat="45.74994" lon="4.75603">
        <ele>241</ele>
        <time>2025-07-10T07:38:06.772000+02:00</time>
      </trkpt>
      <trkpt lat="45.74981" lon="4.75602">
        <ele>241</ele>
        <time>2025-07-10T07:38:08.771000+02:00</time>
      </trkpt>
      <trkpt lat="45.74975" lon="4.75602">
        <ele>241</ele>
        <time>2025-07-10T07:38:09.771000+02:00</time>
      </trkpt>
      <trkpt lat="45.74962" lon="4.75602">
        <ele>241</ele>
        <time>2025-07-10T07:38:11.771000+02:00</time>
      </trkpt>
      <trkpt lat="45.74955" lon="4.75603">
        <ele>241</ele>
        <time>2025-07-10T07:38:12.771000+02:00</time>
      </trkpt>
      <trkpt lat="45.74948" lon="4.75603">
        <ele>241</ele>
        <time>2025-07-10T07:38:13.771000+02:00</time>
      </trkpt>
      <trkpt lat="45.74942" lon="4.75604">
        <ele>241</ele>
        <time>2025-07-10T07:38:14.771000+02:00</time>
      </trkpt>
      <trkpt lat="45.74935" lon="4.75604">
        <ele>241.1</ele>
        <time>2025-07-10T07:38:15.772000+02:00</time>
      </trkpt>
      <trkpt lat="45.74922" lon="4.75604">
        <ele>241.2</ele>
        <time>2025-07-10T07:38:17.770000+02:00</time>
      </trkpt>
      <trkpt lat="45.74916" lon="4.75605">
        <ele>241.2</ele>
        <time>2025-07-10T07:38:18.771000+02:00</time>
      </trkpt>
      <trkpt lat="45.74909" lon="4.75605">
        <ele>241.2</ele>
        <time>2025-07-10T07:38:19.771000+02:00</time>
      </trkpt>
      <trkpt lat="45.74895" lon="4.75605">
        <ele>241.2</ele>
        <time>2025-07-10T07:38:21.771000+02:00</time>
      </trkpt>
      <trkpt lat="45.74882" lon="4.75607">
        <ele>241.1</ele>
        <time>2025-07-10T07:38:23.770000+02:00</time>
      </trkpt>
      <trkpt lat="45.74876" lon="4.75607">
        <ele>241.1</ele>
        <time>2025-07-10T07:38:24.770000+02:00</time>
      </trkpt>
      <trkpt lat="45.74869" lon="4.75608">
        <ele>241</ele>
        <time>2025-07-10T07:38:25.771000+02:00</time>
      </trkpt>
      <trkpt lat="45.74855" lon="4.75609">
        <ele>241</ele>
        <time>2025-07-10T07:38:27.771000+02:00</time>
      </trkpt>
      <trkpt lat="45.74849" lon="4.75609">
        <ele>241</ele>
        <time>2025-07-10T07:38:28.771000+02:00</time>
      </trkpt>
      <trkpt lat="45.74843" lon="4.75609">
        <ele>241.1</ele>
        <time>2025-07-10T07:38:29.771000+02:00</time>
      </trkpt>
      <trkpt lat="45.7483" lon="4.75609">
        <ele>241.2</ele>
        <time>2025-07-10T07:38:31.771000+02:00</time>
      </trkpt>
      <trkpt lat="45.74825" lon="4.7561">
        <ele>241.3</ele>
        <time>2025-07-10T07:38:32.771000+02:00</time>
      </trkpt>
      <trkpt lat="45.74821" lon="4.7561">
        <ele>241.5</ele>
        <time>2025-07-10T07:38:33.771000+02:00</time>
      </trkpt>
      <trkpt lat="45.74812" lon="4.7561">
        <ele>241.8</ele>
        <time>2025-07-10T07:38:35.771000+02:00</time>
      </trkpt>
      <trkpt lat="45.74808" lon="4.7561">
        <ele>241.9</ele>
        <time>2025-07-10T07:38:36.771000+02:00</time>
      </trkpt>
      <trkpt lat="45.74804" lon="4.75609">
        <ele>242</ele>
        <time>2025-07-10T07:38:37.771000+02:00</time>
      </trkpt>
      <trkpt lat="45.74799" lon="4.7561">
        <ele>242</ele>
        <time>2025-07-10T07:38:38.771000+02:00</time>
      </trkpt>
      <trkpt lat="45.74794" lon="4.7561">
        <ele>242</ele>
        <time>2025-07-10T07:38:39.772000+02:00</time>
      </trkpt>
      <trkpt lat="45.74782" lon="4.75611">
        <ele>242</ele>
        <time>2025-07-10T07:38:41.771000+02:00</time>
      </trkpt>
      <trkpt lat="45.74777" lon="4.75612">
        <ele>242</ele>
        <time>2025-07-10T07:38:42.771000+02:00</time>
      </trkpt>
      <trkpt lat="45.74771" lon="4.75613">
        <ele>242</ele>
        <time>2025-07-10T07:38:43.771000+02:00</time>
      </trkpt>
      <trkpt lat="45.74766" lon="4.75613">
        <ele>242</ele>
        <time>2025-07-10T07:38:44.771000+02:00</time>
      </trkpt>
      <trkpt lat="45.74761" lon="4.75614">
        <ele>242</ele>
        <time>2025-07-10T07:38:45.771000+02:00</time>
      </trkpt>
      <trkpt lat="45.74759" lon="4.75614">
        <ele>242</ele>
        <time>2025-07-10T07:38:46.771000+02:00</time>
      </trkpt>
      <trkpt lat="45.74757" lon="4.75614">
        <ele>242</ele>
        <time>2025-07-10T07:38:47.771000+02:00</time>
      </trkpt>
      <trkpt lat="45.74755" lon="4.75613">
        <ele>242</ele>
        <time>2025-07-10T07:38:48.771000+02:00</time>
      </trkpt>
      <trkpt lat="45.7475" lon="4.75613">
        <ele>242</ele>
        <time>2025-07-10T07:38:50.771000+02:00</time>
      </trkpt>
      <trkpt lat="45.74748" lon="4.75613">
        <ele>242.1</ele>
        <time>2025-07-10T07:38:51.771000+02:00</time>
      </trkpt>
      <trkpt lat="45.74746" lon="4.75613">
        <ele>242.1</ele>
        <time>2025-07-10T07:38:52.772000+02:00</time>
      </trkpt>
      <trkpt lat="45.74744" lon="4.75614">
        <ele>242.2</ele>
        <time>2025-07-10T07:38:54.771000+02:00</time>
      </trkpt>
      <trkpt lat="45.74744" lon="4.75615">
        <ele>242.2</ele>
        <time>2025-07-10T07:38:55.771000+02:00</time>
      </trkpt>
      <trkpt lat="45.74744" lon="4.75615">
        <ele>242.2</ele>
        <time>2025-07-10T07:38:56.771000+02:00</time>
      </trkpt>
      <trkpt lat="45.74743" lon="4.75614">
        <ele>242.2</ele>
        <time>2025-07-10T07:38:57.771000+02:00</time>
      </trkpt>
      <trkpt lat="45.74739" lon="4.75615">
        <ele>242.4</ele>
        <time>2025-07-10T07:38:59.770000+02:00</time>
      </trkpt>
      <trkpt lat="45.74736" lon="4.75618">
        <ele>242.4</ele>
        <time>2025-07-10T07:39:00.771000+02:00</time>
      </trkpt>
      <trkpt lat="45.74734" lon="4.75632">
        <ele>242.2</ele>
        <time>2025-07-10T07:39:02.772000+02:00</time>
      </trkpt>
      <trkpt lat="45.74735" lon="4.75647">
        <ele>242</ele>
        <time>2025-07-10T07:39:04.770000+02:00</time>
      </trkpt>
      <trkpt lat="45.74735" lon="4.75655">
        <ele>242</ele>
        <time>2025-07-10T07:39:05.772000+02:00</time>
      </trkpt>
      <trkpt lat="45.74735" lon="4.75673">
        <ele>241.9</ele>
        <time>2025-07-10T07:39:07.771000+02:00</time>
      </trkpt>
      <trkpt lat="45.74734" lon="4.75683">
        <ele>241.7</ele>
        <time>2025-07-10T07:39:08.772000+02:00</time>
      </trkpt>
      <trkpt lat="45.74734" lon="4.75703">
        <ele>241.3</ele>
        <time>2025-07-10T07:39:10.770000+02:00</time>
      </trkpt>
      <trkpt lat="45.74735" lon="4.75713">
        <ele>240.9</ele>
        <time>2025-07-10T07:39:11.772000+02:00</time>
      </trkpt>
      <trkpt lat="45.74736" lon="4.75734">
        <ele>240.3</ele>
        <time>2025-07-10T07:39:13.771000+02:00</time>
      </trkpt>
      <trkpt lat="45.74739" lon="4.75756">
        <ele>239.7</ele>
        <time>2025-07-10T07:39:15.770000+02:00</time>
      </trkpt>
      <trkpt lat="45.7474" lon="4.75767">
        <ele>239.5</ele>
        <time>2025-07-10T07:39:16.772000+02:00</time>
      </trkpt>
      <trkpt lat="45.74743" lon="4.75791">
        <ele>238.8</ele>
        <time>2025-07-10T07:39:18.772000+02:00</time>
      </trkpt>
      <trkpt lat="45.74746" lon="4.75803">
        <ele>238.3</ele>
        <time>2025-07-10T07:39:19.772000+02:00</time>
      </trkpt>
      <trkpt lat="45.74747" lon="4.75815">
        <ele>237.7</ele>
        <time>2025-07-10T07:39:20.772000+02:00</time>
      </trkpt>
      <trkpt lat="45.7475" lon="4.75841">
        <ele>236.7</ele>
        <time>2025-07-10T07:39:22.770000+02:00</time>
      </trkpt>
      <trkpt lat="45.74752" lon="4.75854">
        <ele>236.3</ele>
        <time>2025-07-10T07:39:23.770000+02:00</time>
      </trkpt>
      <trkpt lat="45.74755" lon="4.75866">
        <ele>235.8</ele>
        <time>2025-07-10T07:39:24.771000+02:00</time>
      </trkpt>
      <trkpt lat="45.74763" lon="4.75892">
        <ele>234.4</ele>
        <time>2025-07-10T07:39:26.771000+02:00</time>
      </trkpt>
      <trkpt lat="45.74767" lon="4.75906">
        <ele>233.4</ele>
        <time>2025-07-10T07:39:27.771000+02:00</time>
      </trkpt>
      <trkpt lat="45.74772" lon="4.75919">
        <ele>232.2</ele>
        <time>2025-07-10T07:39:28.771000+02:00</time>
      </trkpt>
      <trkpt lat="45.74777" lon="4.75933">
        <ele>230.8</ele>
        <time>2025-07-10T07:39:29.771000+02:00</time>
      </trkpt>
      <trkpt lat="45.74787" lon="4.7596">
        <ele>229.2</ele>
        <time>2025-07-10T07:39:31.771000+02:00</time>
      </trkpt>
      <trkpt lat="45.74796" lon="4.75987">
        <ele>227.4</ele>
        <time>2025-07-10T07:39:33.770000+02:00</time>
      </trkpt>
      <trkpt lat="45.74801" lon="4.76001">
        <ele>226.1</ele>
        <time>2025-07-10T07:39:34.770000+02:00</time>
      </trkpt>
      <trkpt lat="45.74807" lon="4.76014">
        <ele>225.2</ele>
        <time>2025-07-10T07:39:35.772000+02:00</time>
      </trkpt>
      <trkpt lat="45.74819" lon="4.76041">
        <ele>224.8</ele>
        <time>2025-07-10T07:39:37.770000+02:00</time>
      </trkpt>
      <trkpt lat="45.74826" lon="4.76053">
        <ele>224.4</ele>
        <time>2025-07-10T07:39:38.771000+02:00</time>
      </trkpt>
      <trkpt lat="45.74833" lon="4.76064">
        <ele>223.5</ele>
        <time>2025-07-10T07:39:39.771000+02:00</time>
      </trkpt>
      <trkpt lat="45.74842" lon="4.76073">
        <ele>222.2</ele>
        <time>2025-07-10T07:39:40.771000+02:00</time>
      </trkpt>
      <trkpt lat="45.74862" lon="4.7609">
        <ele>219.8</ele>
        <time>2025-07-10T07:39:42.770000+02:00</time>
      </trkpt>
      <trkpt lat="45.74872" lon="4.76096">
        <ele>218.1</ele>
        <time>2025-07-10T07:39:43.770000+02:00</time>
      </trkpt>
      <trkpt lat="45.74883" lon="4.76101">
        <ele>216.7</ele>
        <time>2025-07-10T07:39:44.771000+02:00</time>
      </trkpt>
      <trkpt lat="45.74895" lon="4.76104">
        <ele>215.8</ele>
        <time>2025-07-10T07:39:45.771000+02:00</time>
      </trkpt>
      <trkpt lat="45.74907" lon="4.76106">
        <ele>215.1</ele>
        <time>2025-07-10T07:39:46.772000+02:00</time>
      </trkpt>
      <trkpt lat="45.7493" lon="4.76111">
        <ele>213</ele>
        <time>2025-07-10T07:39:48.771000+02:00</time>
      </trkpt>
      <trkpt lat="45.74942" lon="4.76114">
        <ele>211.7</ele>
        <time>2025-07-10T07:39:49.771000+02:00</time>
      </trkpt>
      <trkpt lat="45.74965" lon="4.76118">
        <ele>209.6</ele>
        <time>2025-07-10T07:39:51.771000+02:00</time>
      </trkpt>
      <trkpt lat="45.74976" lon="4.76121">
        <ele>208.9</ele>
        <time>2025-07-10T07:39:52.772000+02:00</time>
      </trkpt>
      <trkpt lat="45.74999" lon="4.76124">
        <ele>208.6</ele>
        <time>2025-07-10T07:39:54.772000+02:00</time>
      </trkpt>
      <trkpt lat="45.75022" lon="4.76128">
        <ele>207.9</ele>
        <time>2025-07-10T07:39:56.771000+02:00</time>
      </trkpt>
      <trkpt lat="45.75043" lon="4.76134">
        <ele>207.4</ele>
        <time>2025-07-10T07:39:58.771000+02:00</time>
      </trkpt>
      <trkpt lat="45.75063" lon="4.76138">
        <ele>206.9</ele>
        <time>2025-07-10T07:40:00.771000+02:00</time>
      </trkpt>
      <trkpt lat="45.75083" lon="4.76142">
        <ele>205.9</ele>
        <time>2025-07-10T07:40:02.771000+02:00</time>
      </trkpt>
      <trkpt lat="45.75099" lon="4.76146">
        <ele>205.2</ele>
        <time>2025-07-10T07:40:04.772000+02:00</time>
      </trkpt>
      <trkpt lat="45.75111" lon="4.76149">
        <ele>204.6</ele>
        <time>2025-07-10T07:40:06.770000+02:00</time>
      </trkpt>
      <trkpt lat="45.75116" lon="4.7615">
        <ele>204.6</ele>
        <time>2025-07-10T07:40:07.771000+02:00</time>
      </trkpt>
      <trkpt lat="45.75128" lon="4.7615">
        <ele>204.4</ele>
        <time>2025-07-10T07:40:09.770000+02:00</time>
      </trkpt>
      <trkpt lat="45.75135" lon="4.76151">
        <ele>204.3</ele>
        <time>2025-07-10T07:40:10.771000+02:00</time>
      </trkpt>
      <trkpt lat="45.7515" lon="4.76156">
        <ele>203.9</ele>
        <time>2025-07-10T07:40:12.771000+02:00</time>
      </trkpt>
      <trkpt lat="45.75164" lon="4.76167">
        <ele>201.9</ele>
        <time>2025-07-10T07:40:14.770000+02:00</time>
      </trkpt>
      <trkpt lat="45.75177" lon="4.76187">
        <ele>197.9</ele>
        <time>2025-07-10T07:40:16.771000+02:00</time>
      </trkpt>
      <trkpt lat="45.75183" lon="4.76209">
        <ele>198.8</ele>
        <time>2025-07-10T07:40:18.769000+02:00</time>
      </trkpt>
      <trkpt lat="45.75185" lon="4.76221">
        <ele>201</ele>
        <time>2025-07-10T07:40:19.771000+02:00</time>
      </trkpt>
      <trkpt lat="45.75186" lon="4.76243">
        <ele>203.1</ele>
        <time>2025-07-10T07:40:21.772000+02:00</time>
      </trkpt>
      <trkpt lat="45.75184" lon="4.76263">
        <ele>203.6</ele>
        <time>2025-07-10T07:40:23.770000+02:00</time>
      </trkpt>
      <trkpt lat="45.75182" lon="4.76272">
        <ele>203.5</ele>
        <time>2025-07-10T07:40:24.771000+02:00</time>
      </trkpt>
      <trkpt lat="45.75177" lon="4.76288">
        <ele>203.6</ele>
        <time>2025-07-10T07:40:26.770000+02:00</time>
      </trkpt>
      <trkpt lat="45.75173" lon="4.76296">
        <ele>203.5</ele>
        <time>2025-07-10T07:40:27.770000+02:00</time>
      </trkpt>
      <trkpt lat="45.75169" lon="4.76303">
        <ele>203.3</ele>
        <time>2025-07-10T07:40:28.772000+02:00</time>
      </trkpt>
      <trkpt lat="45.75163" lon="4.76317">
        <ele>204.6</ele>
        <time>2025-07-10T07:40:30.772000+02:00</time>
      </trkpt>
      <trkpt lat="45.75157" lon="4.76331">
        <ele>206.2</ele>
        <time>2025-07-10T07:40:32.772000+02:00</time>
      </trkpt>
      <trkpt lat="45.75149" lon="4.76344">
        <ele>206.9</ele>
        <time>2025-07-10T07:40:34.771000+02:00</time>
      </trkpt>
      <trkpt lat="45.75141" lon="4.76355">
        <ele>206.4</ele>
        <time>2025-07-10T07:40:36.770000+02:00</time>
      </trkpt>
      <trkpt lat="45.75137" lon="4.76361">
        <ele>206.3</ele>
        <time>2025-07-10T07:40:37.770000+02:00</time>
      </trkpt>
      <trkpt lat="45.75132" lon="4.76366">
        <ele>207.6</ele>
        <time>2025-07-10T07:40:38.770000+02:00</time>
      </trkpt>
      <trkpt lat="45.75127" lon="4.76371">
        <ele>208.4</ele>
        <time>2025-07-10T07:40:39.772000+02:00</time>
      </trkpt>
      <trkpt lat="45.75117" lon="4.76382">
        <ele>208.8</ele>
        <time>2025-07-10T07:40:41.772000+02:00</time>
      </trkpt>
      <trkpt lat="45.75107" lon="4.76391">
        <ele>208.5</ele>
        <time>2025-07-10T07:40:43.769000+02:00</time>
      </trkpt>
      <trkpt lat="45.75102" lon="4.76395">
        <ele>209.3</ele>
        <time>2025-07-10T07:40:44.771000+02:00</time>
      </trkpt>
      <trkpt lat="45.75097" lon="4.764">
        <ele>209.8</ele>
        <time>2025-07-10T07:40:45.771000+02:00</time>
      </trkpt>
      <trkpt lat="45.75087" lon="4.76409">
        <ele>210.1</ele>
        <time>2025-07-10T07:40:47.770000+02:00</time>
      </trkpt>
      <trkpt lat="45.75082" lon="4.76413">
        <ele>210</ele>
        <time>2025-07-10T07:40:48.771000+02:00</time>
      </trkpt>
      <trkpt lat="45.75073" lon="4.76421">
        <ele>210.8</ele>
        <time>2025-07-10T07:40:50.771000+02:00</time>
      </trkpt>
      <trkpt lat="45.75068" lon="4.76426">
        <ele>211.3</ele>
        <time>2025-07-10T07:40:51.771000+02:00</time>
      </trkpt>
      <trkpt lat="45.75059" lon="4.76438">
        <ele>211.9</ele>
        <time>2025-07-10T07:40:53.769000+02:00</time>
      </trkpt>
      <trkpt lat="45.75055" lon="4.76445">
        <ele>212</ele>
        <time>2025-07-10T07:40:54.771000+02:00</time>
      </trkpt>
      <trkpt lat="45.75052" lon="4.76451">
        <ele>212.7</ele>
        <time>2025-07-10T07:40:55.772000+02:00</time>
      </trkpt>
      <trkpt lat="45.75048" lon="4.76465">
        <ele>214</ele>
        <time>2025-07-10T07:40:57.771000+02:00</time>
      </trkpt>
      <trkpt lat="45.75047" lon="4.76472">
        <ele>214.7</ele>
        <time>2025-07-10T07:40:58.771000+02:00</time>
      </trkpt>
      <trkpt lat="45.75046" lon="4.76479">
        <ele>215</ele>
        <time>2025-07-10T07:40:59.772000+02:00</time>
      </trkpt>
      <trkpt lat="45.75045" lon="4.76494">
        <ele>215.7</ele>
        <time>2025-07-10T07:41:01.771000+02:00</time>
      </trkpt>
      <trkpt lat="45.75045" lon="4.76501">
        <ele>216</ele>
        <time>2025-07-10T07:41:02.771000+02:00</time>
      </trkpt>
      <trkpt lat="45.75045" lon="4.76509">
        <ele>216.3</ele>
        <time>2025-07-10T07:41:03.771000+02:00</time>
      </trkpt>
      <trkpt lat="45.75046" lon="4.76517">
        <ele>216.6</ele>
        <time>2025-07-10T07:41:04.771000+02:00</time>
      </trkpt>
      <trkpt lat="45.75047" lon="4.76524">
        <ele>216.9</ele>
        <time>2025-07-10T07:41:05.772000+02:00</time>
      </trkpt>
      <trkpt lat="45.75049" lon="4.7654">
        <ele>217.4</ele>
        <time>2025-07-10T07:41:07.770000+02:00</time>
      </trkpt>
      <trkpt lat="45.75049" lon="4.76547">
        <ele>217.7</ele>
        <time>2025-07-10T07:41:08.772000+02:00</time>
      </trkpt>
      <trkpt lat="45.75049" lon="4.76562">
        <ele>218.2</ele>
        <time>2025-07-10T07:41:10.770000+02:00</time>
      </trkpt>
      <trkpt lat="45.75047" lon="4.76571">
        <ele>218.5</ele>
        <time>2025-07-10T07:41:11.771000+02:00</time>
      </trkpt>
      <trkpt lat="45.75038" lon="4.76584">
        <ele>219</ele>
        <time>2025-07-10T07:41:13.771000+02:00</time>
      </trkpt>
      <trkpt lat="45.75026" lon="4.76591">
        <ele>218.9</ele>
        <time>2025-07-10T07:41:15.771000+02:00</time>
      </trkpt>
      <trkpt lat="45.75011" lon="4.76595">
        <ele>218.2</ele>
        <time>2025-07-10T07:41:17.770000+02:00</time>
      </trkpt>
      <trkpt lat="45.75004" lon="4.76598">
        <ele>217.7</ele>
        <time>2025-07-10T07:41:18.771000+02:00</time>
      </trkpt>
      <trkpt lat="45.74997" lon="4.76599">
        <ele>217.3</ele>
        <time>2025-07-10T07:41:19.771000+02:00</time>
      </trkpt>
      <trkpt lat="45.74981" lon="4.76602">
        <ele>216.6</ele>
        <time>2025-07-10T07:41:21.770000+02:00</time>
      </trkpt>
      <trkpt lat="45.74972" lon="4.76604">
        <ele>216.2</ele>
        <time>2025-07-10T07:41:22.771000+02:00</time>
      </trkpt>
      <trkpt lat="45.74964" lon="4.7661">
        <ele>215.8</ele>
        <time>2025-07-10T07:41:23.771000+02:00</time>
      </trkpt>
      <trkpt lat="45.74957" lon="4.76632">
        <ele>215</ele>
        <time>2025-07-10T07:41:25.770000+02:00</time>
      </trkpt>
      <trkpt lat="45.74955" lon="4.76645">
        <ele>214.1</ele>
        <time>2025-07-10T07:41:26.770000+02:00</time>
      </trkpt>
      <trkpt lat="45.74957" lon="4.76656">
        <ele>213.1</ele>
        <time>2025-07-10T07:41:27.770000+02:00</time>
      </trkpt>
      <trkpt lat="45.74963" lon="4.76665">
        <ele>212.5</ele>
        <time>2025-07-10T07:41:28.770000+02:00</time>
      </trkpt>
      <trkpt lat="45.74967" lon="4.76675">
        <ele>212.5</ele>
        <time>2025-07-10T07:41:29.770000+02:00</time>
      </trkpt>
      <trkpt lat="45.74977" lon="4.76695">
        <ele>213.2</ele>
        <time>2025-07-10T07:41:31.770000+02:00</time>
      </trkpt>
      <trkpt lat="45.74983" lon="4.76704">
        <ele>212.5</ele>
        <time>2025-07-10T07:41:32.770000+02:00</time>
      </trkpt>
      <trkpt lat="45.74988" lon="4.76713">
        <ele>212</ele>
        <time>2025-07-10T07:41:33.770000+02:00</time>
      </trkpt>
      <trkpt lat="45.74994" lon="4.76722">
        <ele>211.6</ele>
        <time>2025-07-10T07:41:34.770000+02:00</time>
      </trkpt>
      <trkpt lat="45.75" lon="4.76731">
        <ele>211.7</ele>
        <time>2025-07-10T07:41:35.770000+02:00</time>
      </trkpt>
      <trkpt lat="45.75006" lon="4.7674">
        <ele>211.7</ele>
        <time>2025-07-10T07:41:36.770000+02:00</time>
      </trkpt>
      <trkpt lat="45.75018" lon="4.76755">
        <ele>211.6</ele>
        <time>2025-07-10T07:41:38.771000+02:00</time>
      </trkpt>
      <trkpt lat="45.7503" lon="4.76771">
        <ele>212.1</ele>
        <time>2025-07-10T07:41:40.772000+02:00</time>
      </trkpt>
      <trkpt lat="45.75042" lon="4.76786">
        <ele>212.2</ele>
        <time>2025-07-10T07:41:42.769000+02:00</time>
      </trkpt>
      <trkpt lat="45.75047" lon="4.76793">
        <ele>212.1</ele>
        <time>2025-07-10T07:41:43.770000+02:00</time>
      </trkpt>
      <trkpt lat="45.75053" lon="4.76801">
        <ele>212.1</ele>
        <time>2025-07-10T07:41:44.770000+02:00</time>
      </trkpt>
      <trkpt lat="45.75058" lon="4.76808">
        <ele>212.1</ele>
        <time>2025-07-10T07:41:45.771000+02:00</time>
      </trkpt>
      <trkpt lat="45.75068" lon="4.76822">
        <ele>212.2</ele>
        <time>2025-07-10T07:41:47.771000+02:00</time>
      </trkpt>
      <trkpt lat="45.75076" lon="4.76836">
        <ele>212</ele>
        <time>2025-07-10T07:41:49.770000+02:00</time>
      </trkpt>
      <trkpt lat="45.7508" lon="4.76843">
        <ele>212</ele>
        <time>2025-07-10T07:41:50.770000+02:00</time>
      </trkpt>
      <trkpt lat="45.75084" lon="4.76849">
        <ele>212</ele>
        <time>2025-07-10T07:41:51.771000+02:00</time>
      </trkpt>
      <trkpt lat="45.7509" lon="4.7686">
        <ele>212.2</ele>
        <time>2025-07-10T07:41:53.771000+02:00</time>
      </trkpt>
      <trkpt lat="45.75097" lon="4.76873">
        <ele>212.5</ele>
        <time>2025-07-10T07:41:55.771000+02:00</time>
      </trkpt>
      <trkpt lat="45.75105" lon="4.76887">
        <ele>212.8</ele>
        <time>2025-07-10T07:41:57.770000+02:00</time>
      </trkpt>
      <trkpt lat="45.7511" lon="4.76894">
        <ele>212.8</ele>
        <time>2025-07-10T07:41:58.771000+02:00</time>
      </trkpt>
      <trkpt lat="45.75118" lon="4.76909">
        <ele>212.2</ele>
        <time>2025-07-10T07:42:00.769000+02:00</time>
      </trkpt>
      <trkpt lat="45.75122" lon="4.76917">
        <ele>212</ele>
        <time>2025-07-10T07:42:01.770000+02:00</time>
      </trkpt>
      <trkpt lat="45.75126" lon="4.76925">
        <ele>212</ele>
        <time>2025-07-10T07:42:02.770000+02:00</time>
      </trkpt>
      <trkpt lat="45.75128" lon="4.76934">
        <ele>212</ele>
        <time>2025-07-10T07:42:03.771000+02:00</time>
      </trkpt>
      <trkpt lat="45.75131" lon="4.76941">
        <ele>212</ele>
        <time>2025-07-10T07:42:04.772000+02:00</time>
      </trkpt>
      <trkpt lat="45.75137" lon="4.76958">
        <ele>212.5</ele>
        <time>2025-07-10T07:42:06.769000+02:00</time>
      </trkpt>
      <trkpt lat="45.7514" lon="4.76965">
        <ele>212.7</ele>
        <time>2025-07-10T07:42:07.770000+02:00</time>
      </trkpt>
      <trkpt lat="45.75143" lon="4.76973">
        <ele>212.9</ele>
        <time>2025-07-10T07:42:08.771000+02:00</time>
      </trkpt>
      <trkpt lat="45.75146" lon="4.76981">
        <ele>212.7</ele>
        <time>2025-07-10T07:42:09.771000+02:00</time>
      </trkpt>
      <trkpt lat="45.75153" lon="4.76997">
        <ele>212.5</ele>
        <time>2025-07-10T07:42:11.769000+02:00</time>
      </trkpt>
      <trkpt lat="45.75157" lon="4.77004">
        <ele>212.5</ele>
        <time>2025-07-10T07:42:12.771000+02:00</time>
      </trkpt>
      <trkpt lat="45.75161" lon="4.77012">
        <ele>212.6</ele>
        <time>2025-07-10T07:42:13.771000+02:00</time>
      </trkpt>
      <trkpt lat="45.75168" lon="4.77026">
        <ele>212.9</ele>
        <time>2025-07-10T07:42:15.769000+02:00</time>
      </trkpt>
      <trkpt lat="45.75172" lon="4.77033">
        <ele>213</ele>
        <time>2025-07-10T07:42:16.770000+02:00</time>
      </trkpt>
      <trkpt lat="45.75176" lon="4.77041">
        <ele>213</ele>
        <time>2025-07-10T07:42:17.770000+02:00</time>
      </trkpt>
      <trkpt lat="45.7518" lon="4.77048">
        <ele>213</ele>
        <time>2025-07-10T07:42:18.771000+02:00</time>
      </trkpt>
      <trkpt lat="45.75188" lon="4.77062">
        <ele>213.1</ele>
        <time>2025-07-10T07:42:20.770000+02:00</time>
      </trkpt>
      <trkpt lat="45.75192" lon="4.77069">
        <ele>213</ele>
        <time>2025-07-10T07:42:21.770000+02:00</time>
      </trkpt>
      <trkpt lat="45.75196" lon="4.77076">
        <ele>213</ele>
        <time>2025-07-10T07:42:22.770000+02:00</time>
      </trkpt>
      <trkpt lat="45.752" lon="4.77083">
        <ele>213</ele>
        <time>2025-07-10T07:42:23.770000+02:00</time>
      </trkpt>
      <trkpt lat="45.75204" lon="4.77089">
        <ele>213</ele>
        <time>2025-07-10T07:42:24.770000+02:00</time>
      </trkpt>
      <trkpt lat="45.75209" lon="4.77096">
        <ele>213</ele>
        <time>2025-07-10T07:42:25.770000+02:00</time>
      </trkpt>
      <trkpt lat="45.75213" lon="4.77103">
        <ele>213</ele>
        <time>2025-07-10T07:42:26.770000+02:00</time>
      </trkpt>
      <trkpt lat="45.75223" lon="4.77116">
        <ele>213</ele>
        <time>2025-07-10T07:42:28.771000+02:00</time>
      </trkpt>
      <trkpt lat="45.75233" lon="4.7713">
        <ele>213.1</ele>
        <time>2025-07-10T07:42:30.769000+02:00</time>
      </trkpt>
      <trkpt lat="45.75238" lon="4.77136">
        <ele>213.1</ele>
        <time>2025-07-10T07:42:31.770000+02:00</time>
      </trkpt>
      <trkpt lat="45.75247" lon="4.7715">
        <ele>213</ele>
        <time>2025-07-10T07:42:33.770000+02:00</time>
      </trkpt>
      <trkpt lat="45.75251" lon="4.77157">
        <ele>213</ele>
        <time>2025-07-10T07:42:34.771000+02:00</time>
      </trkpt>
      <trkpt lat="45.75258" lon="4.77173">
        <ele>213.9</ele>
        <time>2025-07-10T07:42:36.769000+02:00</time>
      </trkpt>
      <trkpt lat="45.7526" lon="4.7718">
        <ele>214.5</ele>
        <time>2025-07-10T07:42:37.770000+02:00</time>
      </trkpt>
      <trkpt lat="45.75263" lon="4.77187">
        <ele>214.8</ele>
        <time>2025-07-10T07:42:38.770000+02:00</time>
      </trkpt>
      <trkpt lat="45.75265" lon="4.77193">
        <ele>214.9</ele>
        <time>2025-07-10T07:42:39.772000+02:00</time>
      </trkpt>
      <trkpt lat="45.7527" lon="4.77204">
        <ele>214.1</ele>
        <time>2025-07-10T07:42:41.770000+02:00</time>
      </trkpt>
      <trkpt lat="45.75273" lon="4.7721">
        <ele>213.7</ele>
        <time>2025-07-10T07:42:42.771000+02:00</time>
      </trkpt>
      <trkpt lat="45.75277" lon="4.77222">
        <ele>213</ele>
        <time>2025-07-10T07:42:44.771000+02:00</time>
      </trkpt>
      <trkpt lat="45.75282" lon="4.77236">
        <ele>213.1</ele>
        <time>2025-07-10T07:42:46.770000+02:00</time>
      </trkpt>
      <trkpt lat="45.75284" lon="4.77244">
        <ele>213.2</ele>
        <time>2025-07-10T07:42:47.770000+02:00</time>
      </trkpt>
      <trkpt lat="45.75287" lon="4.77252">
        <ele>213.3</ele>
        <time>2025-07-10T07:42:48.771000+02:00</time>
      </trkpt>
      <trkpt lat="45.75292" lon="4.77269">
        <ele>213.5</ele>
        <time>2025-07-10T07:42:50.770000+02:00</time>
      </trkpt>
      <trkpt lat="45.75295" lon="4.77278">
        <ele>213.6</ele>
        <time>2025-07-10T07:42:51.770000+02:00</time>
      </trkpt>
      <trkpt lat="45.75299" lon="4.77295">
        <ele>213.8</ele>
        <time>2025-07-10T07:42:53.770000+02:00</time>
      </trkpt>
      <trkpt lat="45.75301" lon="4.77304">
        <ele>213.8</ele>
        <time>2025-07-10T07:42:54.770000+02:00</time>
      </trkpt>
      <trkpt lat="45.75302" lon="4.77314">
        <ele>213.7</ele>
        <time>2025-07-10T07:42:55.771000+02:00</time>
      </trkpt>
      <trkpt lat="45.75305" lon="4.77331">
        <ele>213.1</ele>
        <time>2025-07-10T07:42:57.769000+02:00</time>
      </trkpt>
      <trkpt lat="45.75306" lon="4.77341">
        <ele>213.3</ele>
        <time>2025-07-10T07:42:58.769000+02:00</time>
      </trkpt>
      <trkpt lat="45.75307" lon="4.7735">
        <ele>213.6</ele>
        <time>2025-07-10T07:42:59.771000+02:00</time>
      </trkpt>
      <trkpt lat="45.7531" lon="4.77368">
        <ele>214</ele>
        <time>2025-07-10T07:43:01.770000+02:00</time>
      </trkpt>
      <trkpt lat="45.75313" lon="4.77386">
        <ele>214</ele>
        <time>2025-07-10T07:43:03.770000+02:00</time>
      </trkpt>
      <trkpt lat="45.75315" lon="4.77395">
        <ele>214</ele>
        <time>2025-07-10T07:43:04.771000+02:00</time>
      </trkpt>
      <trkpt lat="45.75318" lon="4.77413">
        <ele>214</ele>
        <time>2025-07-10T07:43:06.770000+02:00</time>
      </trkpt>
      <trkpt lat="45.7532" lon="4.77422">
        <ele>214.1</ele>
        <time>2025-07-10T07:43:07.771000+02:00</time>
      </trkpt>
      <trkpt lat="45.75322" lon="4.77431">
        <ele>214.2</ele>
        <time>2025-07-10T07:43:08.771000+02:00</time>
      </trkpt>
      <trkpt lat="45.75324" lon="4.77439">
        <ele>214.3</ele>
        <time>2025-07-10T07:43:09.771000+02:00</time>
      </trkpt>
      <trkpt lat="45.75329" lon="4.77456">
        <ele>214.6</ele>
        <time>2025-07-10T07:43:11.770000+02:00</time>
      </trkpt>
      <trkpt lat="45.75332" lon="4.77464">
        <ele>214.8</ele>
        <time>2025-07-10T07:43:12.771000+02:00</time>
      </trkpt>
      <trkpt lat="45.75334" lon="4.77472">
        <ele>215</ele>
        <time>2025-07-10T07:43:13.771000+02:00</time>
      </trkpt>
      <trkpt lat="45.7534" lon="4.77488">
        <ele>215</ele>
        <time>2025-07-10T07:43:15.770000+02:00</time>
      </trkpt>
      <trkpt lat="45.75342" lon="4.77496">
        <ele>215</ele>
        <time>2025-07-10T07:43:16.770000+02:00</time>
      </trkpt>
      <trkpt lat="45.75344" lon="4.77504">
        <ele>215.1</ele>
        <time>2025-07-10T07:43:17.770000+02:00</time>
      </trkpt>
      <trkpt lat="45.75347" lon="4.77512">
        <ele>215.2</ele>
        <time>2025-07-10T07:43:18.771000+02:00</time>
      </trkpt>
      <trkpt lat="45.75349" lon="4.7752">
        <ele>215.3</ele>
        <time>2025-07-10T07:43:19.771000+02:00</time>
      </trkpt>
      <trkpt lat="45.75354" lon="4.77536">
        <ele>215.6</ele>
        <time>2025-07-10T07:43:21.771000+02:00</time>
      </trkpt>
      <trkpt lat="45.75359" lon="4.77552">
        <ele>216</ele>
        <time>2025-07-10T07:43:23.769000+02:00</time>
      </trkpt>
      <trkpt lat="45.75361" lon="4.7756">
        <ele>216.1</ele>
        <time>2025-07-10T07:43:24.770000+02:00</time>
      </trkpt>
      <trkpt lat="45.75364" lon="4.77567">
        <ele>216.4</ele>
        <time>2025-07-10T07:43:25.772000+02:00</time>
      </trkpt>
      <trkpt lat="45.75369" lon="4.77583">
        <ele>217</ele>
        <time>2025-07-10T07:43:27.771000+02:00</time>
      </trkpt>
      <trkpt lat="45.75374" lon="4.77599">
        <ele>217.6</ele>
        <time>2025-07-10T07:43:29.769000+02:00</time>
      </trkpt>
      <trkpt lat="45.75377" lon="4.77607">
        <ele>217.9</ele>
        <time>2025-07-10T07:43:30.771000+02:00</time>
      </trkpt>
      <trkpt lat="45.75382" lon="4.77622">
        <ele>218.1</ele>
        <time>2025-07-10T07:43:32.769000+02:00</time>
      </trkpt>
      <trkpt lat="45.75385" lon="4.77629">
        <ele>218.1</ele>
        <time>2025-07-10T07:43:33.771000+02:00</time>
      </trkpt>
      <trkpt lat="45.75388" lon="4.77644">
        <ele>218.1</ele>
        <time>2025-07-10T07:43:35.770000+02:00</time>
      </trkpt>
      <trkpt lat="45.7539" lon="4.77653">
        <ele>218</ele>
        <time>2025-07-10T07:43:36.770000+02:00</time>
      </trkpt>
      <trkpt lat="45.75392" lon="4.7766">
        <ele>218.1</ele>
        <time>2025-07-10T07:43:37.770000+02:00</time>
      </trkpt>
      <trkpt lat="45.75394" lon="4.77667">
        <ele>218.2</ele>
        <time>2025-07-10T07:43:38.771000+02:00</time>
      </trkpt>
      <trkpt lat="45.75398" lon="4.77682">
        <ele>218.7</ele>
        <time>2025-07-10T07:43:40.769000+02:00</time>
      </trkpt>
      <trkpt lat="45.754" lon="4.77689">
        <ele>218.9</ele>
        <time>2025-07-10T07:43:41.769000+02:00</time>
      </trkpt>
      <trkpt lat="45.75402" lon="4.77696">
        <ele>219</ele>
        <time>2025-07-10T07:43:42.770000+02:00</time>
      </trkpt>
      <trkpt lat="45.75404" lon="4.77704">
        <ele>219.2</ele>
        <time>2025-07-10T07:43:43.771000+02:00</time>
      </trkpt>
      <trkpt lat="45.75407" lon="4.7772">
        <ele>219.3</ele>
        <time>2025-07-10T07:43:45.770000+02:00</time>
      </trkpt>
      <trkpt lat="45.75411" lon="4.77737">
        <ele>219.3</ele>
        <time>2025-07-10T07:43:47.771000+02:00</time>
      </trkpt>
      <trkpt lat="45.75415" lon="4.77754">
        <ele>219.3</ele>
        <time>2025-07-10T07:43:49.769000+02:00</time>
      </trkpt>
      <trkpt lat="45.75417" lon="4.77762">
        <ele>219.4</ele>
        <time>2025-07-10T07:43:50.771000+02:00</time>
      </trkpt>
      <trkpt lat="45.7542" lon="4.7778">
        <ele>219.7</ele>
        <time>2025-07-10T07:43:52.770000+02:00</time>
      </trkpt>
      <trkpt lat="45.75424" lon="4.77798">
        <ele>219.9</ele>
        <time>2025-07-10T07:43:54.770000+02:00</time>
      </trkpt>
      <trkpt lat="45.75427" lon="4.77815">
        <ele>220.2</ele>
        <time>2025-07-10T07:43:56.770000+02:00</time>
      </trkpt>
      <trkpt lat="45.75428" lon="4.77824">
        <ele>220.4</ele>
        <time>2025-07-10T07:43:57.770000+02:00</time>
      </trkpt>
      <trkpt lat="45.75428" lon="4.77833">
        <ele>220.6</ele>
        <time>2025-07-10T07:43:58.770000+02:00</time>
      </trkpt>
      <trkpt lat="45.75432" lon="4.7785">
        <ele>220.8</ele>
        <time>2025-07-10T07:44:00.769000+02:00</time>
      </trkpt>
      <trkpt lat="45.75433" lon="4.77859">
        <ele>221</ele>
        <time>2025-07-10T07:44:01.771000+02:00</time>
      </trkpt>
      <trkpt lat="45.75435" lon="4.77876">
        <ele>221.5</ele>
        <time>2025-07-10T07:44:03.769000+02:00</time>
      </trkpt>
      <trkpt lat="45.75436" lon="4.77884">
        <ele>221.8</ele>
        <time>2025-07-10T07:44:04.771000+02:00</time>
      </trkpt>
      <trkpt lat="45.75438" lon="4.77892">
        <ele>222.1</ele>
        <time>2025-07-10T07:44:05.771000+02:00</time>
      </trkpt>
      <trkpt lat="45.75439" lon="4.779">
        <ele>222.4</ele>
        <time>2025-07-10T07:44:06.771000+02:00</time>
      </trkpt>
      <trkpt lat="45.75441" lon="4.77916">
        <ele>223</ele>
        <time>2025-07-10T07:44:08.771000+02:00</time>
      </trkpt>
      <trkpt lat="45.75444" lon="4.77932">
        <ele>223.6</ele>
        <time>2025-07-10T07:44:10.769000+02:00</time>
      </trkpt>
      <trkpt lat="45.75445" lon="4.7794">
        <ele>223.8</ele>
        <time>2025-07-10T07:44:11.770000+02:00</time>
      </trkpt>
      <trkpt lat="45.75446" lon="4.77947">
        <ele>224</ele>
        <time>2025-07-10T07:44:12.770000+02:00</time>
      </trkpt>
      <trkpt lat="45.75447" lon="4.77955">
        <ele>224.3</ele>
        <time>2025-07-10T07:44:13.770000+02:00</time>
      </trkpt>
      <trkpt lat="45.75448" lon="4.77963">
        <ele>224.5</ele>
        <time>2025-07-10T07:44:14.771000+02:00</time>
      </trkpt>
      <trkpt lat="45.75451" lon="4.77977">
        <ele>225.1</ele>
        <time>2025-07-10T07:44:16.769000+02:00</time>
      </trkpt>
      <trkpt lat="45.75452" lon="4.77984">
        <ele>225.6</ele>
        <time>2025-07-10T07:44:17.769000+02:00</time>
      </trkpt>
      <trkpt lat="45.75453" lon="4.77991">
        <ele>226.1</ele>
        <time>2025-07-10T07:44:18.769000+02:00</time>
      </trkpt>
      <trkpt lat="45.75454" lon="4.77999">
        <ele>226.6</ele>
        <time>2025-07-10T07:44:19.771000+02:00</time>
      </trkpt>
      <trkpt lat="45.75455" lon="4.78015">
        <ele>227.2</ele>
        <time>2025-07-10T07:44:21.769000+02:00</time>
      </trkpt>
      <trkpt lat="45.75455" lon="4.78023">
        <ele>227.4</ele>
        <time>2025-07-10T07:44:22.771000+02:00</time>
      </trkpt>
      <trkpt lat="45.75455" lon="4.78031">
        <ele>227.7</ele>
        <time>2025-07-10T07:44:23.771000+02:00</time>
      </trkpt>
      <trkpt lat="45.75455" lon="4.78046">
        <ele>228.1</ele>
        <time>2025-07-10T07:44:25.770000+02:00</time>
      </trkpt>
      <trkpt lat="45.75454" lon="4.78054">
        <ele>228.3</ele>
        <time>2025-07-10T07:44:26.770000+02:00</time>
      </trkpt>
      <trkpt lat="45.75454" lon="4.78061">
        <ele>228.5</ele>
        <time>2025-07-10T07:44:27.770000+02:00</time>
      </trkpt>
      <trkpt lat="45.75453" lon="4.78077">
        <ele>229.2</ele>
        <time>2025-07-10T07:44:29.770000+02:00</time>
      </trkpt>
      <trkpt lat="45.75452" lon="4.78084">
        <ele>229.5</ele>
        <time>2025-07-10T07:44:30.770000+02:00</time>
      </trkpt>
      <trkpt lat="45.75451" lon="4.78091">
        <ele>229.7</ele>
        <time>2025-07-10T07:44:31.770000+02:00</time>
      </trkpt>
      <trkpt lat="45.75451" lon="4.78098">
        <ele>230</ele>
        <time>2025-07-10T07:44:32.771000+02:00</time>
      </trkpt>
      <trkpt lat="45.7545" lon="4.78112">
        <ele>230.5</ele>
        <time>2025-07-10T07:44:34.770000+02:00</time>
      </trkpt>
      <trkpt lat="45.75449" lon="4.78125">
        <ele>231.1</ele>
        <time>2025-07-10T07:44:36.770000+02:00</time>
      </trkpt>
      <trkpt lat="45.75449" lon="4.78138">
        <ele>231.6</ele>
        <time>2025-07-10T07:44:38.770000+02:00</time>
      </trkpt>
      <trkpt lat="45.75449" lon="4.78144">
        <ele>231.9</ele>
        <time>2025-07-10T07:44:39.770000+02:00</time>
      </trkpt>
      <trkpt lat="45.75449" lon="4.7815">
        <ele>232.1</ele>
        <time>2025-07-10T07:44:40.770000+02:00</time>
      </trkpt>
      <trkpt lat="45.75448" lon="4.78161">
        <ele>232.5</ele>
        <time>2025-07-10T07:44:42.770000+02:00</time>
      </trkpt>
      <trkpt lat="45.75448" lon="4.78163">
        <ele>232.6</ele>
        <time>2025-07-10T07:44:43.771000+02:00</time>
      </trkpt>
      <trkpt lat="45.75447" lon="4.78165">
        <ele>232.8</ele>
        <time>2025-07-10T07:44:45.770000+02:00</time>
      </trkpt>
      <trkpt lat="45.75446" lon="4.78167">
        <ele>232.9</ele>
        <time>2025-07-10T07:44:46.770000+02:00</time>
      </trkpt>
      <trkpt lat="45.75445" lon="4.78177">
        <ele>233.4</ele>
        <time>2025-07-10T07:44:48.770000+02:00</time>
      </trkpt>
      <trkpt lat="45.75444" lon="4.78183">
        <ele>233.6</ele>
        <time>2025-07-10T07:44:49.770000+02:00</time>
      </trkpt>
      <trkpt lat="45.75443" lon="4.78189">
        <ele>233.9</ele>
        <time>2025-07-10T07:44:50.770000+02:00</time>
      </trkpt>
      <trkpt lat="45.75442" lon="4.78203">
        <ele>234.6</ele>
        <time>2025-07-10T07:44:52.771000+02:00</time>
      </trkpt>
      <trkpt lat="45.75441" lon="4.78218">
        <ele>235.3</ele>
        <time>2025-07-10T07:44:54.769000+02:00</time>
      </trkpt>
      <trkpt lat="45.7544" lon="4.78225">
        <ele>235.7</ele>
        <time>2025-07-10T07:44:55.770000+02:00</time>
      </trkpt>
      <trkpt lat="45.75439" lon="4.78242">
        <ele>236.7</ele>
        <time>2025-07-10T07:44:57.770000+02:00</time>
      </trkpt>
      <trkpt lat="45.75439" lon="4.7826">
        <ele>237.6</ele>
        <time>2025-07-10T07:44:59.771000+02:00</time>
      </trkpt>
      <trkpt lat="45.75438" lon="4.78277">
        <ele>238.4</ele>
        <time>2025-07-10T07:45:01.770000+02:00</time>
      </trkpt>
      <trkpt lat="45.75437" lon="4.78285">
        <ele>238.7</ele>
        <time>2025-07-10T07:45:02.770000+02:00</time>
      </trkpt>
      <trkpt lat="45.75437" lon="4.783">
        <ele>239</ele>
        <time>2025-07-10T07:45:04.769000+02:00</time>
      </trkpt>
      <trkpt lat="45.75437" lon="4.78308">
        <ele>239.1</ele>
        <time>2025-07-10T07:45:05.769000+02:00</time>
      </trkpt>
      <trkpt lat="45.75438" lon="4.78316">
        <ele>239.4</ele>
        <time>2025-07-10T07:45:06.769000+02:00</time>
      </trkpt>
      <trkpt lat="45.75437" lon="4.78324">
        <ele>239.8</ele>
        <time>2025-07-10T07:45:07.769000+02:00</time>
      </trkpt>
      <trkpt lat="45.75436" lon="4.78333">
        <ele>240.2</ele>
        <time>2025-07-10T07:45:08.771000+02:00</time>
      </trkpt>
      <trkpt lat="45.75435" lon="4.7835">
        <ele>241</ele>
        <time>2025-07-10T07:45:10.769000+02:00</time>
      </trkpt>
      <trkpt lat="45.75434" lon="4.78358">
        <ele>241.4</ele>
        <time>2025-07-10T07:45:11.769000+02:00</time>
      </trkpt>
      <trkpt lat="45.75434" lon="4.78367">
        <ele>241.9</ele>
        <time>2025-07-10T07:45:12.770000+02:00</time>
      </trkpt>
      <trkpt lat="45.75434" lon="4.78375">
        <ele>242.4</ele>
        <time>2025-07-10T07:45:13.770000+02:00</time>
      </trkpt>
      <trkpt lat="45.75435" lon="4.78391">
        <ele>243.1</ele>
        <time>2025-07-10T07:45:15.770000+02:00</time>
      </trkpt>
      <trkpt lat="45.75435" lon="4.784">
        <ele>243.3</ele>
        <time>2025-07-10T07:45:16.771000+02:00</time>
      </trkpt>
      <trkpt lat="45.75438" lon="4.78417">
        <ele>243.5</ele>
        <time>2025-07-10T07:45:18.770000+02:00</time>
      </trkpt>
      <trkpt lat="45.75439" lon="4.78425">
        <ele>243.8</ele>
        <time>2025-07-10T07:45:19.770000+02:00</time>
      </trkpt>
      <trkpt lat="45.7544" lon="4.78434">
        <ele>244</ele>
        <time>2025-07-10T07:45:20.770000+02:00</time>
      </trkpt>
      <trkpt lat="45.75441" lon="4.78442">
        <ele>244.3</ele>
        <time>2025-07-10T07:45:21.770000+02:00</time>
      </trkpt>
      <trkpt lat="45.75442" lon="4.7846">
        <ele>245.3</ele>
        <time>2025-07-10T07:45:23.770000+02:00</time>
      </trkpt>
      <trkpt lat="45.75443" lon="4.78468">
        <ele>245.8</ele>
        <time>2025-07-10T07:45:24.770000+02:00</time>
      </trkpt>
      <trkpt lat="45.75443" lon="4.78476">
        <ele>246.2</ele>
        <time>2025-07-10T07:45:25.770000+02:00</time>
      </trkpt>
      <trkpt lat="45.75444" lon="4.78485">
        <ele>246.5</ele>
        <time>2025-07-10T07:45:26.771000+02:00</time>
      </trkpt>
      <trkpt lat="45.75445" lon="4.78493">
        <ele>246.7</ele>
        <time>2025-07-10T07:45:27.771000+02:00</time>
      </trkpt>
      <trkpt lat="45.75447" lon="4.7851">
        <ele>247.1</ele>
        <time>2025-07-10T07:45:29.770000+02:00</time>
      </trkpt>
      <trkpt lat="45.75448" lon="4.78519">
        <ele>247.4</ele>
        <time>2025-07-10T07:45:30.770000+02:00</time>
      </trkpt>
      <trkpt lat="45.7545" lon="4.78535">
        <ele>247.8</ele>
        <time>2025-07-10T07:45:32.769000+02:00</time>
      </trkpt>
      <trkpt lat="45.75451" lon="4.78543">
        <ele>248</ele>
        <time>2025-07-10T07:45:33.770000+02:00</time>
      </trkpt>
      <trkpt lat="45.75452" lon="4.7856">
        <ele>248.4</ele>
        <time>2025-07-10T07:45:35.770000+02:00</time>
      </trkpt>
      <trkpt lat="45.75453" lon="4.78568">
        <ele>248.7</ele>
        <time>2025-07-10T07:45:36.770000+02:00</time>
      </trkpt>
      <trkpt lat="45.75456" lon="4.78585">
        <ele>249.3</ele>
        <time>2025-07-10T07:45:38.769000+02:00</time>
      </trkpt>
      <trkpt lat="45.75457" lon="4.78593">
        <ele>249.5</ele>
        <time>2025-07-10T07:45:39.769000+02:00</time>
      </trkpt>
      <trkpt lat="45.75458" lon="4.78601">
        <ele>249.7</ele>
        <time>2025-07-10T07:45:40.770000+02:00</time>
      </trkpt>
      <trkpt lat="45.7546" lon="4.78618">
        <ele>250.5</ele>
        <time>2025-07-10T07:45:42.769000+02:00</time>
      </trkpt>
      <trkpt lat="45.75461" lon="4.78626">
        <ele>251.2</ele>
        <time>2025-07-10T07:45:43.769000+02:00</time>
      </trkpt>
      <trkpt lat="45.75462" lon="4.78634">
        <ele>252</ele>
        <time>2025-07-10T07:45:44.770000+02:00</time>
      </trkpt>
      <trkpt lat="45.75463" lon="4.78643">
        <ele>252.5</ele>
        <time>2025-07-10T07:45:45.770000+02:00</time>
      </trkpt>
      <trkpt lat="45.75464" lon="4.7866">
        <ele>253.2</ele>
        <time>2025-07-10T07:45:47.770000+02:00</time>
      </trkpt>
      <trkpt lat="45.75466" lon="4.78676">
        <ele>253.9</ele>
        <time>2025-07-10T07:45:49.769000+02:00</time>
      </trkpt>
      <trkpt lat="45.75466" lon="4.78685">
        <ele>254.3</ele>
        <time>2025-07-10T07:45:50.769000+02:00</time>
      </trkpt>
      <trkpt lat="45.75466" lon="4.78694">
        <ele>254.7</ele>
        <time>2025-07-10T07:45:51.770000+02:00</time>
      </trkpt>
      <trkpt lat="45.75465" lon="4.7871">
        <ele>255.4</ele>
        <time>2025-07-10T07:45:53.771000+02:00</time>
      </trkpt>
      <trkpt lat="45.75464" lon="4.78726">
        <ele>255.9</ele>
        <time>2025-07-10T07:45:55.770000+02:00</time>
      </trkpt>
      <trkpt lat="45.75462" lon="4.78742">
        <ele>256.3</ele>
        <time>2025-07-10T07:45:57.770000+02:00</time>
      </trkpt>
      <trkpt lat="45.75459" lon="4.7876">
        <ele>256.5</ele>
        <time>2025-07-10T07:45:59.770000+02:00</time>
      </trkpt>
      <trkpt lat="45.75457" lon="4.78777">
        <ele>256.5</ele>
        <time>2025-07-10T07:46:01.770000+02:00</time>
      </trkpt>
      <trkpt lat="45.75456" lon="4.78786">
        <ele>256.8</ele>
        <time>2025-07-10T07:46:02.770000+02:00</time>
      </trkpt>
      <trkpt lat="45.75453" lon="4.78803">
        <ele>257.3</ele>
        <time>2025-07-10T07:46:04.770000+02:00</time>
      </trkpt>
      <trkpt lat="45.75452" lon="4.78817">
        <ele>258</ele>
        <time>2025-07-10T07:46:06.770000+02:00</time>
      </trkpt>
      <trkpt lat="45.75452" lon="4.78823">
        <ele>258.2</ele>
        <time>2025-07-10T07:46:07.770000+02:00</time>
      </trkpt>
      <trkpt lat="45.75453" lon="4.78828">
        <ele>258.4</ele>
        <time>2025-07-10T07:46:08.770000+02:00</time>
      </trkpt>
      <trkpt lat="45.75454" lon="4.78832">
        <ele>258.6</ele>
        <time>2025-07-10T07:46:09.770000+02:00</time>
      </trkpt>
      <trkpt lat="45.75455" lon="4.78839">
        <ele>258.8</ele>
        <time>2025-07-10T07:46:11.770000+02:00</time>
      </trkpt>
      <trkpt lat="45.75455" lon="4.78841">
        <ele>258.9</ele>
        <time>2025-07-10T07:46:12.770000+02:00</time>
      </trkpt>
      <trkpt lat="45.75455" lon="4.78843">
        <ele>258.9</ele>
        <time>2025-07-10T07:46:13.770000+02:00</time>
      </trkpt>
      <trkpt lat="45.75456" lon="4.78845">
        <ele>259</ele>
        <time>2025-07-10T07:46:15.770000+02:00</time>
      </trkpt>
      <trkpt lat="45.75456" lon="4.78845">
        <ele>259</ele>
        <time>2025-07-10T07:46:16.770000+02:00</time>
      </trkpt>
      <trkpt lat="45.75456" lon="4.78845">
        <ele>259</ele>
        <time>2025-07-10T07:46:18.768000+02:00</time>
      </trkpt>
      <trkpt lat="45.75456" lon="4.78845">
        <ele>259</ele>
        <time>2025-07-10T07:46:19.770000+02:00</time>
      </trkpt>
      <trkpt lat="45.75456" lon="4.78845">
        <ele>259</ele>
        <time>2025-07-10T07:46:21.769000+02:00</time>
      </trkpt>
      <trkpt lat="45.75456" lon="4.78846">
        <ele>259</ele>
        <time>2025-07-10T07:46:22.770000+02:00</time>
      </trkpt>
      <trkpt lat="45.75456" lon="4.78847">
        <ele>259.1</ele>
        <time>2025-07-10T07:46:23.771000+02:00</time>
      </trkpt>
      <trkpt lat="45.75457" lon="4.78855">
        <ele>259.3</ele>
        <time>2025-07-10T07:46:25.769000+02:00</time>
      </trkpt>
      <trkpt lat="45.75459" lon="4.7886">
        <ele>259.4</ele>
        <time>2025-07-10T07:46:26.769000+02:00</time>
      </trkpt>
      <trkpt lat="45.75461" lon="4.78865">
        <ele>259.7</ele>
        <time>2025-07-10T07:46:27.769000+02:00</time>
      </trkpt>
      <trkpt lat="45.75465" lon="4.7887">
        <ele>260</ele>
        <time>2025-07-10T07:46:28.769000+02:00</time>
      </trkpt>
      <trkpt lat="45.75468" lon="4.78876">
        <ele>260.3</ele>
        <time>2025-07-10T07:46:29.769000+02:00</time>
      </trkpt>
      <trkpt lat="45.75472" lon="4.78882">
        <ele>260.5</ele>
        <time>2025-07-10T07:46:30.770000+02:00</time>
      </trkpt>
      <trkpt lat="45.75475" lon="4.78887">
        <ele>260.7</ele>
        <time>2025-07-10T07:46:31.770000+02:00</time>
      </trkpt>
      <trkpt lat="45.75479" lon="4.78893">
        <ele>260.9</ele>
        <time>2025-07-10T07:46:32.771000+02:00</time>
      </trkpt>
      <trkpt lat="45.75488" lon="4.78906">
        <ele>261.4</ele>
        <time>2025-07-10T07:46:34.769000+02:00</time>
      </trkpt>
      <trkpt lat="45.75491" lon="4.78913">
        <ele>261.6</ele>
        <time>2025-07-10T07:46:35.770000+02:00</time>
      </trkpt>
      <trkpt lat="45.75496" lon="4.78919">
        <ele>261.7</ele>
        <time>2025-07-10T07:46:36.771000+02:00</time>
      </trkpt>
      <trkpt lat="45.75504" lon="4.78931">
        <ele>262.4</ele>
        <time>2025-07-10T07:46:38.771000+02:00</time>
      </trkpt>
      <trkpt lat="45.75513" lon="4.78944">
        <ele>263.5</ele>
        <time>2025-07-10T07:46:40.769000+02:00</time>
      </trkpt>
      <trkpt lat="45.75517" lon="4.7895">
        <ele>263.9</ele>
        <time>2025-07-10T07:46:41.771000+02:00</time>
      </trkpt>
      <trkpt lat="45.75524" lon="4.78963">
        <ele>264.5</ele>
        <time>2025-07-10T07:46:43.769000+02:00</time>
      </trkpt>
      <trkpt lat="45.75527" lon="4.7897">
        <ele>264.9</ele>
        <time>2025-07-10T07:46:44.769000+02:00</time>
      </trkpt>
      <trkpt lat="45.75531" lon="4.78977">
        <ele>265.2</ele>
        <time>2025-07-10T07:46:45.769000+02:00</time>
      </trkpt>
      <trkpt lat="45.75534" lon="4.78984">
        <ele>265.5</ele>
        <time>2025-07-10T07:46:46.770000+02:00</time>
      </trkpt>
      <trkpt lat="45.75538" lon="4.7899">
        <ele>265.8</ele>
        <time>2025-07-10T07:46:47.771000+02:00</time>
      </trkpt>
      <trkpt lat="45.75545" lon="4.79002">
        <ele>266.6</ele>
        <time>2025-07-10T07:46:49.770000+02:00</time>
      </trkpt>
      <trkpt lat="45.75553" lon="4.79014">
        <ele>267.2</ele>
        <time>2025-07-10T07:46:51.769000+02:00</time>
      </trkpt>
      <trkpt lat="45.75557" lon="4.7902">
        <ele>267.4</ele>
        <time>2025-07-10T07:46:52.770000+02:00</time>
      </trkpt>
      <trkpt lat="45.7556" lon="4.79027">
        <ele>267.6</ele>
        <time>2025-07-10T07:46:53.770000+02:00</time>
      </trkpt>
      <trkpt lat="45.75567" lon="4.7904">
        <ele>267.8</ele>
        <time>2025-07-10T07:46:55.770000+02:00</time>
      </trkpt>
      <trkpt lat="45.75571" lon="4.79047">
        <ele>267.8</ele>
        <time>2025-07-10T07:46:56.770000+02:00</time>
      </trkpt>
      <trkpt lat="45.75575" lon="4.79053">
        <ele>267.8</ele>
        <time>2025-07-10T07:46:57.770000+02:00</time>
      </trkpt>
      <trkpt lat="45.75581" lon="4.79069">
        <ele>267.7</ele>
        <time>2025-07-10T07:46:59.770000+02:00</time>
      </trkpt>
      <trkpt lat="45.75586" lon="4.79085">
        <ele>268</ele>
        <time>2025-07-10T07:47:01.770000+02:00</time>
      </trkpt>
      <trkpt lat="45.75589" lon="4.79102">
        <ele>269</ele>
        <time>2025-07-10T07:47:03.769000+02:00</time>
      </trkpt>
      <trkpt lat="45.75591" lon="4.7911">
        <ele>269.4</ele>
        <time>2025-07-10T07:47:04.770000+02:00</time>
      </trkpt>
      <trkpt lat="45.75594" lon="4.79127">
        <ele>269.8</ele>
        <time>2025-07-10T07:47:06.768000+02:00</time>
      </trkpt>
      <trkpt lat="45.75596" lon="4.79136">
        <ele>270</ele>
        <time>2025-07-10T07:47:07.769000+02:00</time>
      </trkpt>
      <trkpt lat="45.75599" lon="4.79154">
        <ele>270.2</ele>
        <time>2025-07-10T07:47:09.768000+02:00</time>
      </trkpt>
      <trkpt lat="45.75601" lon="4.79163">
        <ele>270.3</ele>
        <time>2025-07-10T07:47:10.770000+02:00</time>
      </trkpt>
      <trkpt lat="45.75604" lon="4.79182">
        <ele>270.4</ele>
        <time>2025-07-10T07:47:12.768000+02:00</time>
      </trkpt>
      <trkpt lat="45.75606" lon="4.79191">
        <ele>270.4</ele>
        <time>2025-07-10T07:47:13.768000+02:00</time>
      </trkpt>
      <trkpt lat="45.75607" lon="4.79198">
        <ele>270.3</ele>
        <time>2025-07-10T07:47:14.769000+02:00</time>
      </trkpt>
      <trkpt lat="45.75609" lon="4.79208">
        <ele>270.2</ele>
        <time>2025-07-10T07:47:16.769000+02:00</time>
      </trkpt>
      <trkpt lat="45.75611" lon="4.79216">
        <ele>270</ele>
        <time>2025-07-10T07:47:18.769000+02:00</time>
      </trkpt>
      <trkpt lat="45.75613" lon="4.79228">
        <ele>270.2</ele>
        <time>2025-07-10T07:47:20.769000+02:00</time>
      </trkpt>
      <trkpt lat="45.75615" lon="4.79235">
        <ele>270.4</ele>
        <time>2025-07-10T07:47:21.770000+02:00</time>
      </trkpt>
      <trkpt lat="45.75616" lon="4.79243">
        <ele>270.6</ele>
        <time>2025-07-10T07:47:22.770000+02:00</time>
      </trkpt>
      <trkpt lat="45.75619" lon="4.79261">
        <ele>271</ele>
        <time>2025-07-10T07:47:24.768000+02:00</time>
      </trkpt>
      <trkpt lat="45.75621" lon="4.79271">
        <ele>271.1</ele>
        <time>2025-07-10T07:47:25.770000+02:00</time>
      </trkpt>
      <trkpt lat="45.75625" lon="4.79288">
        <ele>271.2</ele>
        <time>2025-07-10T07:47:27.770000+02:00</time>
      </trkpt>
      <trkpt lat="45.75628" lon="4.79306">
        <ele>271.4</ele>
        <time>2025-07-10T07:47:29.769000+02:00</time>
      </trkpt>
      <trkpt lat="45.7563" lon="4.79315">
        <ele>271.3</ele>
        <time>2025-07-10T07:47:30.769000+02:00</time>
      </trkpt>
      <trkpt lat="45.75633" lon="4.79332">
        <ele>271.2</ele>
        <time>2025-07-10T07:47:32.771000+02:00</time>
      </trkpt>
      <trkpt lat="45.75637" lon="4.7935">
        <ele>271.1</ele>
        <time>2025-07-10T07:47:34.770000+02:00</time>
      </trkpt>
      <trkpt lat="45.7564" lon="4.79367">
        <ele>271</ele>
        <time>2025-07-10T07:47:36.770000+02:00</time>
      </trkpt>
      <trkpt lat="45.75644" lon="4.79386">
        <ele>271.2</ele>
        <time>2025-07-10T07:47:38.768000+02:00</time>
      </trkpt>
      <trkpt lat="45.75646" lon="4.79394">
        <ele>271.4</ele>
        <time>2025-07-10T07:47:39.769000+02:00</time>
      </trkpt>
      <trkpt lat="45.75647" lon="4.79403">
        <ele>271.7</ele>
        <time>2025-07-10T07:47:40.769000+02:00</time>
      </trkpt>
      <trkpt lat="45.75649" lon="4.79412">
        <ele>271.9</ele>
        <time>2025-07-10T07:47:41.770000+02:00</time>
      </trkpt>
      <trkpt lat="45.75651" lon="4.79421">
        <ele>272.1</ele>
        <time>2025-07-10T07:47:42.770000+02:00</time>
      </trkpt>
      <trkpt lat="45.75655" lon="4.79438">
        <ele>272.3</ele>
        <time>2025-07-10T07:47:44.768000+02:00</time>
      </trkpt>
      <trkpt lat="45.75656" lon="4.79447">
        <ele>272.3</ele>
        <time>2025-07-10T07:47:45.769000+02:00</time>
      </trkpt>
      <trkpt lat="45.75657" lon="4.79465">
        <ele>272.1</ele>
        <time>2025-07-10T07:47:47.770000+02:00</time>
      </trkpt>
      <trkpt lat="45.75654" lon="4.79484">
        <ele>272.2</ele>
        <time>2025-07-10T07:47:49.769000+02:00</time>
      </trkpt>
      <trkpt lat="45.75652" lon="4.79492">
        <ele>272.3</ele>
        <time>2025-07-10T07:47:50.770000+02:00</time>
      </trkpt>
      <trkpt lat="45.75647" lon="4.79509">
        <ele>272.3</ele>
        <time>2025-07-10T07:47:52.769000+02:00</time>
      </trkpt>
      <trkpt lat="45.75644" lon="4.79517">
        <ele>272.2</ele>
        <time>2025-07-10T07:47:53.769000+02:00</time>
      </trkpt>
      <trkpt lat="45.75642" lon="4.79526">
        <ele>272.1</ele>
        <time>2025-07-10T07:47:54.769000+02:00</time>
      </trkpt>
      <trkpt lat="45.7564" lon="4.79534">
        <ele>272.3</ele>
        <time>2025-07-10T07:47:55.770000+02:00</time>
      </trkpt>
      <trkpt lat="45.75635" lon="4.79552">
        <ele>272.9</ele>
        <time>2025-07-10T07:47:57.770000+02:00</time>
      </trkpt>
      <trkpt lat="45.75633" lon="4.7956">
        <ele>273</ele>
        <time>2025-07-10T07:47:58.770000+02:00</time>
      </trkpt>
      <trkpt lat="45.7563" lon="4.79569">
        <ele>273</ele>
        <time>2025-07-10T07:47:59.770000+02:00</time>
      </trkpt>
      <trkpt lat="45.75626" lon="4.79586">
        <ele>273.1</ele>
        <time>2025-07-10T07:48:01.768000+02:00</time>
      </trkpt>
      <trkpt lat="45.75624" lon="4.79595">
        <ele>273.2</ele>
        <time>2025-07-10T07:48:02.768000+02:00</time>
      </trkpt>
      <trkpt lat="45.75623" lon="4.79605">
        <ele>273.3</ele>
        <time>2025-07-10T07:48:03.769000+02:00</time>
      </trkpt>
      <trkpt lat="45.75623" lon="4.79614">
        <ele>273.4</ele>
        <time>2025-07-10T07:48:04.770000+02:00</time>
      </trkpt>
      <trkpt lat="45.75624" lon="4.79623">
        <ele>273.4</ele>
        <time>2025-07-10T07:48:05.770000+02:00</time>
      </trkpt>
      <trkpt lat="45.75625" lon="4.79632">
        <ele>273.5</ele>
        <time>2025-07-10T07:48:06.770000+02:00</time>
      </trkpt>
      <trkpt lat="45.75627" lon="4.7965">
        <ele>273.3</ele>
        <time>2025-07-10T07:48:08.769000+02:00</time>
      </trkpt>
      <trkpt lat="45.75629" lon="4.79668">
        <ele>273</ele>
        <time>2025-07-10T07:48:10.769000+02:00</time>
      </trkpt>
      <trkpt lat="45.7563" lon="4.79687">
        <ele>273</ele>
        <time>2025-07-10T07:48:12.770000+02:00</time>
      </trkpt>
      <trkpt lat="45.75631" lon="4.79696">
        <ele>273</ele>
        <time>2025-07-10T07:48:13.770000+02:00</time>
      </trkpt>
      <trkpt lat="45.75633" lon="4.79714">
        <ele>273.7</ele>
        <time>2025-07-10T07:48:15.769000+02:00</time>
      </trkpt>
      <trkpt lat="45.75634" lon="4.79723">
        <ele>274</ele>
        <time>2025-07-10T07:48:16.769000+02:00</time>
      </trkpt>
      <trkpt lat="45.75635" lon="4.79732">
        <ele>274</ele>
        <time>2025-07-10T07:48:17.769000+02:00</time>
      </trkpt>
      <trkpt lat="45.75636" lon="4.79742">
        <ele>274</ele>
        <time>2025-07-10T07:48:18.770000+02:00</time>
      </trkpt>
      <trkpt lat="45.75637" lon="4.79761">
        <ele>273.6</ele>
        <time>2025-07-10T07:48:20.768000+02:00</time>
      </trkpt>
      <trkpt lat="45.75638" lon="4.7977">
        <ele>273.3</ele>
        <time>2025-07-10T07:48:21.771000+02:00</time>
      </trkpt>
      <trkpt lat="45.75638" lon="4.79789">
        <ele>273</ele>
        <time>2025-07-10T07:48:23.769000+02:00</time>
      </trkpt>
      <trkpt lat="45.75638" lon="4.79799">
        <ele>273</ele>
        <time>2025-07-10T07:48:24.769000+02:00</time>
      </trkpt>
      <trkpt lat="45.75639" lon="4.79808">
        <ele>273</ele>
        <time>2025-07-10T07:48:25.769000+02:00</time>
      </trkpt>
      <trkpt lat="45.75639" lon="4.79817">
        <ele>273</ele>
        <time>2025-07-10T07:48:26.770000+02:00</time>
      </trkpt>
      <trkpt lat="45.7564" lon="4.79827">
        <ele>273</ele>
        <time>2025-07-10T07:48:27.770000+02:00</time>
      </trkpt>
      <trkpt lat="45.75642" lon="4.79846">
        <ele>273.1</ele>
        <time>2025-07-10T07:48:29.768000+02:00</time>
      </trkpt>
      <trkpt lat="45.75643" lon="4.79855">
        <ele>273</ele>
        <time>2025-07-10T07:48:30.770000+02:00</time>
      </trkpt>
      <trkpt lat="45.75644" lon="4.79875">
        <ele>273</ele>
        <time>2025-07-10T07:48:32.769000+02:00</time>
      </trkpt>
      <trkpt lat="45.75645" lon="4.79885">
        <ele>273</ele>
        <time>2025-07-10T07:48:33.771000+02:00</time>
      </trkpt>
      <trkpt lat="45.75646" lon="4.79905">
        <ele>273</ele>
        <time>2025-07-10T07:48:35.769000+02:00</time>
      </trkpt>
      <trkpt lat="45.75646" lon="4.79915">
        <ele>273</ele>
        <time>2025-07-10T07:48:36.769000+02:00</time>
      </trkpt>
      <trkpt lat="45.75646" lon="4.79924">
        <ele>273</ele>
        <time>2025-07-10T07:48:37.769000+02:00</time>
      </trkpt>
      <trkpt lat="45.75646" lon="4.79932">
        <ele>273</ele>
        <time>2025-07-10T07:48:38.769000+02:00</time>
      </trkpt>
      <trkpt lat="45.75645" lon="4.79941">
        <ele>273</ele>
        <time>2025-07-10T07:48:39.769000+02:00</time>
      </trkpt>
      <trkpt lat="45.75644" lon="4.7995">
        <ele>273</ele>
        <time>2025-07-10T07:48:40.769000+02:00</time>
      </trkpt>
      <trkpt lat="45.75642" lon="4.79959">
        <ele>273</ele>
        <time>2025-07-10T07:48:41.769000+02:00</time>
      </trkpt>
      <trkpt lat="45.75641" lon="4.79967">
        <ele>273</ele>
        <time>2025-07-10T07:48:42.770000+02:00</time>
      </trkpt>
      <trkpt lat="45.75639" lon="4.79983">
        <ele>272.6</ele>
        <time>2025-07-10T07:48:44.768000+02:00</time>
      </trkpt>
      <trkpt lat="45.75638" lon="4.79992">
        <ele>272.3</ele>
        <time>2025-07-10T07:48:45.768000+02:00</time>
      </trkpt>
      <trkpt lat="45.75636" lon="4.8">
        <ele>272.1</ele>
        <time>2025-07-10T07:48:46.770000+02:00</time>
      </trkpt>
      <trkpt lat="45.75635" lon="4.80007">
        <ele>272.1</ele>
        <time>2025-07-10T07:48:47.770000+02:00</time>
      </trkpt>
      <trkpt lat="45.75633" lon="4.80018">
        <ele>272.2</ele>
        <time>2025-07-10T07:48:49.770000+02:00</time>
      </trkpt>
      <trkpt lat="45.75633" lon="4.80023">
        <ele>272.2</ele>
        <time>2025-07-10T07:48:51.770000+02:00</time>
      </trkpt>
      <trkpt lat="45.75632" lon="4.80026">
        <ele>272.3</ele>
        <time>2025-07-10T07:48:53.769000+02:00</time>
      </trkpt>
      <trkpt lat="45.75632" lon="4.80028">
        <ele>272.3</ele>
        <time>2025-07-10T07:48:54.769000+02:00</time>
      </trkpt>
      <trkpt lat="45.75631" lon="4.8003">
        <ele>272.3</ele>
        <time>2025-07-10T07:48:55.769000+02:00</time>
      </trkpt>
      <trkpt lat="45.75631" lon="4.80033">
        <ele>272.3</ele>
        <time>2025-07-10T07:48:56.769000+02:00</time>
      </trkpt>
      <trkpt lat="45.75631" lon="4.80037">
        <ele>272.3</ele>
        <time>2025-07-10T07:48:57.769000+02:00</time>
      </trkpt>
      <trkpt lat="45.75632" lon="4.80041">
        <ele>272.2</ele>
        <time>2025-07-10T07:48:58.770000+02:00</time>
      </trkpt>
      <trkpt lat="45.75631" lon="4.80053">
        <ele>272.3</ele>
        <time>2025-07-10T07:49:00.769000+02:00</time>
      </trkpt>
      <trkpt lat="45.75629" lon="4.80061">
        <ele>272.4</ele>
        <time>2025-07-10T07:49:01.771000+02:00</time>
      </trkpt>
      <trkpt lat="45.75625" lon="4.8008">
        <ele>272.5</ele>
        <time>2025-07-10T07:49:03.769000+02:00</time>
      </trkpt>
      <trkpt lat="45.75623" lon="4.8009">
        <ele>272.6</ele>
        <time>2025-07-10T07:49:04.769000+02:00</time>
      </trkpt>
      <trkpt lat="45.75622" lon="4.801">
        <ele>272.6</ele>
        <time>2025-07-10T07:49:05.769000+02:00</time>
      </trkpt>
      <trkpt lat="45.75621" lon="4.8011">
        <ele>272.7</ele>
        <time>2025-07-10T07:49:06.769000+02:00</time>
      </trkpt>
      <trkpt lat="45.7562" lon="4.80119">
        <ele>272.8</ele>
        <time>2025-07-10T07:49:07.769000+02:00</time>
      </trkpt>
      <trkpt lat="45.75619" lon="4.80128">
        <ele>272.9</ele>
        <time>2025-07-10T07:49:08.769000+02:00</time>
      </trkpt>
      <trkpt lat="45.75619" lon="4.80137">
        <ele>273</ele>
        <time>2025-07-10T07:49:09.769000+02:00</time>
      </trkpt>
      <trkpt lat="45.75618" lon="4.80156">
        <ele>273.4</ele>
        <time>2025-07-10T07:49:11.770000+02:00</time>
      </trkpt>
      <trkpt lat="45.75618" lon="4.80173">
        <ele>273.8</ele>
        <time>2025-07-10T07:49:13.770000+02:00</time>
      </trkpt>
      <trkpt lat="45.75619" lon="4.80182">
        <ele>273.9</ele>
        <time>2025-07-10T07:49:14.770000+02:00</time>
      </trkpt>
      <trkpt lat="45.7562" lon="4.80199">
        <ele>274.1</ele>
        <time>2025-07-10T07:49:16.769000+02:00</time>
      </trkpt>
      <trkpt lat="45.7562" lon="4.80208">
        <ele>274.3</ele>
        <time>2025-07-10T07:49:17.769000+02:00</time>
      </trkpt>
      <trkpt lat="45.7562" lon="4.80217">
        <ele>274.6</ele>
        <time>2025-07-10T07:49:18.770000+02:00</time>
      </trkpt>
      <trkpt lat="45.75621" lon="4.80236">
        <ele>275.3</ele>
        <time>2025-07-10T07:49:20.769000+02:00</time>
      </trkpt>
      <trkpt lat="45.75621" lon="4.80244">
        <ele>275.7</ele>
        <time>2025-07-10T07:49:21.770000+02:00</time>
      </trkpt>
      <trkpt lat="45.75621" lon="4.80253">
        <ele>276</ele>
        <time>2025-07-10T07:49:22.770000+02:00</time>
      </trkpt>
      <trkpt lat="45.75622" lon="4.80271">
        <ele>276</ele>
        <time>2025-07-10T07:49:24.768000+02:00</time>
      </trkpt>
      <trkpt lat="45.75622" lon="4.8028">
        <ele>276.1</ele>
        <time>2025-07-10T07:49:25.770000+02:00</time>
      </trkpt>
      <trkpt lat="45.75623" lon="4.80297">
        <ele>276.7</ele>
        <time>2025-07-10T07:49:27.770000+02:00</time>
      </trkpt>
      <trkpt lat="45.75625" lon="4.80315">
        <ele>277.3</ele>
        <time>2025-07-10T07:49:29.770000+02:00</time>
      </trkpt>
      <trkpt lat="45.75625" lon="4.80333">
        <ele>278</ele>
        <time>2025-07-10T07:49:31.769000+02:00</time>
      </trkpt>
      <trkpt lat="45.75626" lon="4.80342">
        <ele>278.2</ele>
        <time>2025-07-10T07:49:32.769000+02:00</time>
      </trkpt>
      <trkpt lat="45.75626" lon="4.8035">
        <ele>278.3</ele>
        <time>2025-07-10T07:49:33.770000+02:00</time>
      </trkpt>
      <trkpt lat="45.75627" lon="4.80368">
        <ele>278.6</ele>
        <time>2025-07-10T07:49:35.770000+02:00</time>
      </trkpt>
      <trkpt lat="45.75626" lon="4.80387">
        <ele>278.5</ele>
        <time>2025-07-10T07:49:37.769000+02:00</time>
      </trkpt>
      <trkpt lat="45.75625" lon="4.80396">
        <ele>278.4</ele>
        <time>2025-07-10T07:49:38.770000+02:00</time>
      </trkpt>
      <trkpt lat="45.75623" lon="4.80415">
        <ele>278</ele>
        <time>2025-07-10T07:49:40.770000+02:00</time>
      </trkpt>
      <trkpt lat="45.7562" lon="4.80433">
        <ele>278</ele>
        <time>2025-07-10T07:49:42.769000+02:00</time>
      </trkpt>
      <trkpt lat="45.75619" lon="4.80443">
        <ele>278</ele>
        <time>2025-07-10T07:49:43.770000+02:00</time>
      </trkpt>
      <trkpt lat="45.75615" lon="4.80461">
        <ele>278</ele>
        <time>2025-07-10T07:49:45.769000+02:00</time>
      </trkpt>
      <trkpt lat="45.75614" lon="4.80471">
        <ele>278</ele>
        <time>2025-07-10T07:49:46.769000+02:00</time>
      </trkpt>
      <trkpt lat="45.75613" lon="4.80481">
        <ele>278</ele>
        <time>2025-07-10T07:49:47.770000+02:00</time>
      </trkpt>
      <trkpt lat="45.75613" lon="4.80502">
        <ele>277.9</ele>
        <time>2025-07-10T07:49:49.770000+02:00</time>
      </trkpt>
      <trkpt lat="45.75613" lon="4.80522">
        <ele>277.2</ele>
        <time>2025-07-10T07:49:51.770000+02:00</time>
      </trkpt>
      <trkpt lat="45.75613" lon="4.80543">
        <ele>277</ele>
        <time>2025-07-10T07:49:53.769000+02:00</time>
      </trkpt>
      <trkpt lat="45.75614" lon="4.80553">
        <ele>276.9</ele>
        <time>2025-07-10T07:49:54.770000+02:00</time>
      </trkpt>
      <trkpt lat="45.75615" lon="4.80574">
        <ele>276.9</ele>
        <time>2025-07-10T07:49:56.769000+02:00</time>
      </trkpt>
      <trkpt lat="45.75617" lon="4.80584">
        <ele>276.8</ele>
        <time>2025-07-10T07:49:57.769000+02:00</time>
      </trkpt>
      <trkpt lat="45.75619" lon="4.80593">
        <ele>276.6</ele>
        <time>2025-07-10T07:49:58.769000+02:00</time>
      </trkpt>
      <trkpt lat="45.75631" lon="4.80602">
        <ele>275.8</ele>
        <time>2025-07-10T07:50:00.768000+02:00</time>
      </trkpt>
      <trkpt lat="45.75637" lon="4.80607">
        <ele>275.3</ele>
        <time>2025-07-10T07:50:01.769000+02:00</time>
      </trkpt>
      <trkpt lat="45.75646" lon="4.80625">
        <ele>274.6</ele>
        <time>2025-07-10T07:50:03.768000+02:00</time>
      </trkpt>
      <trkpt lat="45.75648" lon="4.80636">
        <ele>274.4</ele>
        <time>2025-07-10T07:50:04.769000+02:00</time>
      </trkpt>
      <trkpt lat="45.75651" lon="4.80661">
        <ele>273.4</ele>
        <time>2025-07-10T07:50:06.769000+02:00</time>
      </trkpt>
      <trkpt lat="45.75652" lon="4.80674">
        <ele>272.9</ele>
        <time>2025-07-10T07:50:07.769000+02:00</time>
      </trkpt>
      <trkpt lat="45.75654" lon="4.80687">
        <ele>272.5</ele>
        <time>2025-07-10T07:50:08.769000+02:00</time>
      </trkpt>
      <trkpt lat="45.75656" lon="4.807">
        <ele>271.9</ele>
        <time>2025-07-10T07:50:09.769000+02:00</time>
      </trkpt>
      <trkpt lat="45.75659" lon="4.80714">
        <ele>270.9</ele>
        <time>2025-07-10T07:50:10.770000+02:00</time>
      </trkpt>
      <trkpt lat="45.75662" lon="4.80742">
        <ele>269</ele>
        <time>2025-07-10T07:50:12.769000+02:00</time>
      </trkpt>
      <trkpt lat="45.75665" lon="4.80772">
        <ele>267.4</ele>
        <time>2025-07-10T07:50:14.770000+02:00</time>
      </trkpt>
      <trkpt lat="45.75667" lon="4.80801">
        <ele>267</ele>
        <time>2025-07-10T07:50:16.770000+02:00</time>
      </trkpt>
      <trkpt lat="45.7567" lon="4.8083">
        <ele>266</ele>
        <time>2025-07-10T07:50:18.769000+02:00</time>
      </trkpt>
      <trkpt lat="45.75671" lon="4.80844">
        <ele>265.5</ele>
        <time>2025-07-10T07:50:19.769000+02:00</time>
      </trkpt>
      <trkpt lat="45.75673" lon="4.80858">
        <ele>265.1</ele>
        <time>2025-07-10T07:50:20.769000+02:00</time>
      </trkpt>
      <trkpt lat="45.75676" lon="4.80872">
        <ele>265.3</ele>
        <time>2025-07-10T07:50:21.770000+02:00</time>
      </trkpt>
      <trkpt lat="45.75683" lon="4.80899">
        <ele>265.2</ele>
        <time>2025-07-10T07:50:23.769000+02:00</time>
      </trkpt>
      <trkpt lat="45.75687" lon="4.80912">
        <ele>264.7</ele>
        <time>2025-07-10T07:50:24.769000+02:00</time>
      </trkpt>
      <trkpt lat="45.7569" lon="4.80925">
        <ele>264.1</ele>
        <time>2025-07-10T07:50:25.769000+02:00</time>
      </trkpt>
      <trkpt lat="45.75697" lon="4.80952">
        <ele>263</ele>
        <time>2025-07-10T07:50:27.769000+02:00</time>
      </trkpt>
      <trkpt lat="45.75701" lon="4.80964">
        <ele>262.8</ele>
        <time>2025-07-10T07:50:28.769000+02:00</time>
      </trkpt>
      <trkpt lat="45.75705" lon="4.80977">
        <ele>262.7</ele>
        <time>2025-07-10T07:50:29.769000+02:00</time>
      </trkpt>
      <trkpt lat="45.75707" lon="4.80989">
        <ele>262.9</ele>
        <time>2025-07-10T07:50:30.769000+02:00</time>
      </trkpt>
      <trkpt lat="45.75709" lon="4.81002">
        <ele>262.9</ele>
        <time>2025-07-10T07:50:31.769000+02:00</time>
      </trkpt>
      <trkpt lat="45.75709" lon="4.81015">
        <ele>262.7</ele>
        <time>2025-07-10T07:50:32.770000+02:00</time>
      </trkpt>
      <trkpt lat="45.7571" lon="4.81034">
        <ele>262.6</ele>
        <time>2025-07-10T07:50:34.770000+02:00</time>
      </trkpt>
      <trkpt lat="45.75708" lon="4.8105">
        <ele>262.9</ele>
        <time>2025-07-10T07:50:36.769000+02:00</time>
      </trkpt>
      <trkpt lat="45.75706" lon="4.81059">
        <ele>263</ele>
        <time>2025-07-10T07:50:37.769000+02:00</time>
      </trkpt>
      <trkpt lat="45.75704" lon="4.81068">
        <ele>262.8</ele>
        <time>2025-07-10T07:50:38.769000+02:00</time>
      </trkpt>
      <trkpt lat="45.75702" lon="4.81077">
        <ele>262.8</ele>
        <time>2025-07-10T07:50:39.769000+02:00</time>
      </trkpt>
      <trkpt lat="45.757" lon="4.81085">
        <ele>262.8</ele>
        <time>2025-07-10T07:50:40.769000+02:00</time>
      </trkpt>
      <trkpt lat="45.75695" lon="4.81102">
        <ele>263</ele>
        <time>2025-07-10T07:50:42.768000+02:00</time>
      </trkpt>
      <trkpt lat="45.75693" lon="4.81111">
        <ele>263</ele>
        <time>2025-07-10T07:50:43.769000+02:00</time>
      </trkpt>
      <trkpt lat="45.75691" lon="4.8112">
        <ele>263</ele>
        <time>2025-07-10T07:50:44.769000+02:00</time>
      </trkpt>
      <trkpt lat="45.75689" lon="4.81129">
        <ele>263</ele>
        <time>2025-07-10T07:50:45.769000+02:00</time>
      </trkpt>
      <trkpt lat="45.75687" lon="4.81137">
        <ele>263</ele>
        <time>2025-07-10T07:50:46.769000+02:00</time>
      </trkpt>
      <trkpt lat="45.75683" lon="4.81155">
        <ele>263</ele>
        <time>2025-07-10T07:50:48.769000+02:00</time>
      </trkpt>
      <trkpt lat="45.75681" lon="4.81164">
        <ele>263</ele>
        <time>2025-07-10T07:50:49.769000+02:00</time>
      </trkpt>
      <trkpt lat="45.75679" lon="4.81173">
        <ele>263</ele>
        <time>2025-07-10T07:50:50.769000+02:00</time>
      </trkpt>
      <trkpt lat="45.75677" lon="4.81181">
        <ele>263</ele>
        <time>2025-07-10T07:50:51.769000+02:00</time>
      </trkpt>
      <trkpt lat="45.75673" lon="4.81198">
        <ele>263</ele>
        <time>2025-07-10T07:50:53.769000+02:00</time>
      </trkpt>
      <trkpt lat="45.75671" lon="4.81206">
        <ele>263</ele>
        <time>2025-07-10T07:50:54.769000+02:00</time>
      </trkpt>
      <trkpt lat="45.7567" lon="4.81212">
        <ele>263</ele>
        <time>2025-07-10T07:50:55.769000+02:00</time>
      </trkpt>
      <trkpt lat="45.75668" lon="4.81217">
        <ele>263</ele>
        <time>2025-07-10T07:50:57.769000+02:00</time>
      </trkpt>
      <trkpt lat="45.75668" lon="4.81218">
        <ele>263</ele>
        <time>2025-07-10T07:50:58.769000+02:00</time>
      </trkpt>
      <trkpt lat="45.75668" lon="4.81219">
        <ele>263</ele>
        <time>2025-07-10T07:50:59.769000+02:00</time>
      </trkpt>
      <trkpt lat="45.75668" lon="4.81219">
        <ele>263</ele>
        <time>2025-07-10T07:51:00.769000+02:00</time>
      </trkpt>
      <trkpt lat="45.75667" lon="4.8122">
        <ele>263</ele>
        <time>2025-07-10T07:51:02.769000+02:00</time>
      </trkpt>
      <trkpt lat="45.75667" lon="4.81222">
        <ele>263</ele>
        <time>2025-07-10T07:51:04.770000+02:00</time>
      </trkpt>
      <trkpt lat="45.75668" lon="4.81222">
        <ele>263</ele>
        <time>2025-07-10T07:51:06.770000+02:00</time>
      </trkpt>
      <trkpt lat="45.75668" lon="4.81224">
        <ele>263</ele>
        <time>2025-07-10T07:51:08.769000+02:00</time>
      </trkpt>
      <trkpt lat="45.75667" lon="4.81226">
        <ele>263</ele>
        <time>2025-07-10T07:51:09.769000+02:00</time>
      </trkpt>
      <trkpt lat="45.75668" lon="4.8123">
        <ele>263</ele>
        <time>2025-07-10T07:51:10.769000+02:00</time>
      </trkpt>
      <trkpt lat="45.7567" lon="4.81234">
        <ele>263</ele>
        <time>2025-07-10T07:51:11.769000+02:00</time>
      </trkpt>
      <trkpt lat="45.75674" lon="4.81237">
        <ele>263</ele>
        <time>2025-07-10T07:51:12.769000+02:00</time>
      </trkpt>
      <trkpt lat="45.75685" lon="4.81245">
        <ele>263</ele>
        <time>2025-07-10T07:51:14.768000+02:00</time>
      </trkpt>
      <trkpt lat="45.75691" lon="4.81249">
        <ele>263</ele>
        <time>2025-07-10T07:51:15.769000+02:00</time>
      </trkpt>
      <trkpt lat="45.75697" lon="4.81253">
        <ele>263.1</ele>
        <time>2025-07-10T07:51:16.769000+02:00</time>
      </trkpt>
      <trkpt lat="45.75704" lon="4.81256">
        <ele>263.3</ele>
        <time>2025-07-10T07:51:17.769000+02:00</time>
      </trkpt>
      <trkpt lat="45.75709" lon="4.8126">
        <ele>263.3</ele>
        <time>2025-07-10T07:51:18.770000+02:00</time>
      </trkpt>
      <trkpt lat="45.75715" lon="4.81263">
        <ele>263.4</ele>
        <time>2025-07-10T07:51:19.770000+02:00</time>
      </trkpt>
      <trkpt lat="45.75727" lon="4.81271">
        <ele>263.4</ele>
        <time>2025-07-10T07:51:21.769000+02:00</time>
      </trkpt>
      <trkpt lat="45.75733" lon="4.81274">
        <ele>263.5</ele>
        <time>2025-07-10T07:51:22.769000+02:00</time>
      </trkpt>
      <trkpt lat="45.75745" lon="4.81281">
        <ele>263.8</ele>
        <time>2025-07-10T07:51:24.769000+02:00</time>
      </trkpt>
      <trkpt lat="45.75751" lon="4.81284">
        <ele>264</ele>
        <time>2025-07-10T07:51:25.769000+02:00</time>
      </trkpt>
      <trkpt lat="45.75762" lon="4.8129">
        <ele>264.2</ele>
        <time>2025-07-10T07:51:27.769000+02:00</time>
      </trkpt>
      <trkpt lat="45.75768" lon="4.81293">
        <ele>264.4</ele>
        <time>2025-07-10T07:51:28.769000+02:00</time>
      </trkpt>
      <trkpt lat="45.75779" lon="4.813">
        <ele>264.9</ele>
        <time>2025-07-10T07:51:30.769000+02:00</time>
      </trkpt>
      <trkpt lat="45.75785" lon="4.81303">
        <ele>265.2</ele>
        <time>2025-07-10T07:51:31.769000+02:00</time>
      </trkpt>
      <trkpt lat="45.7579" lon="4.81308">
        <ele>265.5</ele>
        <time>2025-07-10T07:51:32.769000+02:00</time>
      </trkpt>
      <trkpt lat="45.75794" lon="4.81313">
        <ele>265.7</ele>
        <time>2025-07-10T07:51:33.769000+02:00</time>
      </trkpt>
      <trkpt lat="45.75798" lon="4.81329">
        <ele>266</ele>
        <time>2025-07-10T07:51:35.769000+02:00</time>
      </trkpt>
      <trkpt lat="45.75795" lon="4.81337">
        <ele>266.1</ele>
        <time>2025-07-10T07:51:36.769000+02:00</time>
      </trkpt>
      <trkpt lat="45.75788" lon="4.8135">
        <ele>266.4</ele>
        <time>2025-07-10T07:51:38.769000+02:00</time>
      </trkpt>
      <trkpt lat="45.75777" lon="4.81361">
        <ele>266</ele>
        <time>2025-07-10T07:51:40.768000+02:00</time>
      </trkpt>
      <trkpt lat="45.75771" lon="4.81367">
        <ele>265.9</ele>
        <time>2025-07-10T07:51:41.768000+02:00</time>
      </trkpt>
      <trkpt lat="45.75766" lon="4.81373">
        <ele>265.8</ele>
        <time>2025-07-10T07:51:42.768000+02:00</time>
      </trkpt>
      <trkpt lat="45.75755" lon="4.81385">
        <ele>265.3</ele>
        <time>2025-07-10T07:51:44.769000+02:00</time>
      </trkpt>
      <trkpt lat="45.75749" lon="4.81391">
        <ele>265</ele>
        <time>2025-07-10T07:51:45.769000+02:00</time>
      </trkpt>
      <trkpt lat="45.75744" lon="4.81397">
        <ele>265</ele>
        <time>2025-07-10T07:51:46.770000+02:00</time>
      </trkpt>
      <trkpt lat="45.75733" lon="4.8141">
        <ele>264.7</ele>
        <time>2025-07-10T07:51:48.769000+02:00</time>
      </trkpt>
      <trkpt lat="45.7572" lon="4.81423">
        <ele>264.2</ele>
        <time>2025-07-10T07:51:50.767000+02:00</time>
      </trkpt>
      <trkpt lat="45.75714" lon="4.8143">
        <ele>264.1</ele>
        <time>2025-07-10T07:51:51.768000+02:00</time>
      </trkpt>
      <trkpt lat="45.75707" lon="4.81437">
        <ele>263.8</ele>
        <time>2025-07-10T07:51:52.769000+02:00</time>
      </trkpt>
      <trkpt lat="45.75701" lon="4.81445">
        <ele>263.5</ele>
        <time>2025-07-10T07:51:53.769000+02:00</time>
      </trkpt>
      <trkpt lat="45.75694" lon="4.81452">
        <ele>263</ele>
        <time>2025-07-10T07:51:54.769000+02:00</time>
      </trkpt>
      <trkpt lat="45.75688" lon="4.81459">
        <ele>262.7</ele>
        <time>2025-07-10T07:51:55.769000+02:00</time>
      </trkpt>
      <trkpt lat="45.75681" lon="4.81466">
        <ele>262.4</ele>
        <time>2025-07-10T07:51:56.769000+02:00</time>
      </trkpt>
      <trkpt lat="45.75667" lon="4.81482">
        <ele>262</ele>
        <time>2025-07-10T07:51:58.769000+02:00</time>
      </trkpt>
      <trkpt lat="45.7566" lon="4.81489">
        <ele>261.8</ele>
        <time>2025-07-10T07:51:59.769000+02:00</time>
      </trkpt>
      <trkpt lat="45.75653" lon="4.81497">
        <ele>261.6</ele>
        <time>2025-07-10T07:52:00.769000+02:00</time>
      </trkpt>
      <trkpt lat="45.75647" lon="4.81505">
        <ele>261.3</ele>
        <time>2025-07-10T07:52:01.770000+02:00</time>
      </trkpt>
      <trkpt lat="45.75633" lon="4.81519">
        <ele>261</ele>
        <time>2025-07-10T07:52:03.768000+02:00</time>
      </trkpt>
      <trkpt lat="45.75627" lon="4.81525">
        <ele>261</ele>
        <time>2025-07-10T07:52:04.768000+02:00</time>
      </trkpt>
      <trkpt lat="45.75622" lon="4.81531">
        <ele>261</ele>
        <time>2025-07-10T07:52:05.768000+02:00</time>
      </trkpt>
      <trkpt lat="45.75616" lon="4.81538">
        <ele>260.8</ele>
        <time>2025-07-10T07:52:06.768000+02:00</time>
      </trkpt>
      <trkpt lat="45.75611" lon="4.81544">
        <ele>260.4</ele>
        <time>2025-07-10T07:52:07.770000+02:00</time>
      </trkpt>
      <trkpt lat="45.75599" lon="4.81557">
        <ele>260</ele>
        <time>2025-07-10T07:52:09.770000+02:00</time>
      </trkpt>
      <trkpt lat="45.75587" lon="4.81569">
        <ele>259.4</ele>
        <time>2025-07-10T07:52:11.768000+02:00</time>
      </trkpt>
      <trkpt lat="45.75584" lon="4.81572">
        <ele>258.8</ele>
        <time>2025-07-10T07:52:12.768000+02:00</time>
      </trkpt>
      <trkpt lat="45.75581" lon="4.81576">
        <ele>258.5</ele>
        <time>2025-07-10T07:52:13.768000+02:00</time>
      </trkpt>
      <trkpt lat="45.75578" lon="4.8158">
        <ele>258.1</ele>
        <time>2025-07-10T07:52:14.769000+02:00</time>
      </trkpt>
      <trkpt lat="45.75575" lon="4.81583">
        <ele>257.8</ele>
        <time>2025-07-10T07:52:15.769000+02:00</time>
      </trkpt>
      <trkpt lat="45.75572" lon="4.81586">
        <ele>257.6</ele>
        <time>2025-07-10T07:52:16.769000+02:00</time>
      </trkpt>
      <trkpt lat="45.75574" lon="4.816">
        <ele>257.4</ele>
        <time>2025-07-10T07:52:18.769000+02:00</time>
      </trkpt>
      <trkpt lat="45.75579" lon="4.81618">
        <ele>257.5</ele>
        <time>2025-07-10T07:52:20.769000+02:00</time>
      </trkpt>
      <trkpt lat="45.75586" lon="4.81634">
        <ele>257.7</ele>
        <time>2025-07-10T07:52:22.768000+02:00</time>
      </trkpt>
      <trkpt lat="45.75589" lon="4.81643">
        <ele>258</ele>
        <time>2025-07-10T07:52:23.768000+02:00</time>
      </trkpt>
      <trkpt lat="45.75592" lon="4.81652">
        <ele>258.2</ele>
        <time>2025-07-10T07:52:24.769000+02:00</time>
      </trkpt>
      <trkpt lat="45.75597" lon="4.81671">
        <ele>258.3</ele>
        <time>2025-07-10T07:52:26.769000+02:00</time>
      </trkpt>
      <trkpt lat="45.756" lon="4.81681">
        <ele>258.3</ele>
        <time>2025-07-10T07:52:27.769000+02:00</time>
      </trkpt>
      <trkpt lat="45.75605" lon="4.817">
        <ele>258.2</ele>
        <time>2025-07-10T07:52:29.769000+02:00</time>
      </trkpt>
      <trkpt lat="45.75609" lon="4.81718">
        <ele>258</ele>
        <time>2025-07-10T07:52:31.769000+02:00</time>
      </trkpt>
      <trkpt lat="45.75612" lon="4.81726">
        <ele>258.2</ele>
        <time>2025-07-10T07:52:32.769000+02:00</time>
      </trkpt>
      <trkpt lat="45.75616" lon="4.81742">
        <ele>259.7</ele>
        <time>2025-07-10T07:52:34.769000+02:00</time>
      </trkpt>
      <trkpt lat="45.75619" lon="4.81749">
        <ele>260.5</ele>
        <time>2025-07-10T07:52:35.770000+02:00</time>
      </trkpt>
      <trkpt lat="45.75623" lon="4.81759">
        <ele>261.6</ele>
        <time>2025-07-10T07:52:37.769000+02:00</time>
      </trkpt>
      <trkpt lat="45.7562" lon="4.81774">
        <ele>261.3</ele>
        <time>2025-07-10T07:52:39.768000+02:00</time>
      </trkpt>
      <trkpt lat="45.75618" lon="4.81783">
        <ele>260.8</ele>
        <time>2025-07-10T07:52:40.768000+02:00</time>
      </trkpt>
      <trkpt lat="45.75616" lon="4.81792">
        <ele>260.2</ele>
        <time>2025-07-10T07:52:41.769000+02:00</time>
      </trkpt>
      <trkpt lat="45.75614" lon="4.81802">
        <ele>259.8</ele>
        <time>2025-07-10T07:52:42.769000+02:00</time>
      </trkpt>
      <trkpt lat="45.7561" lon="4.81822">
        <ele>259.5</ele>
        <time>2025-07-10T07:52:44.769000+02:00</time>
      </trkpt>
      <trkpt lat="45.75606" lon="4.81844">
        <ele>259.1</ele>
        <time>2025-07-10T07:52:46.768000+02:00</time>
      </trkpt>
      <trkpt lat="45.75603" lon="4.81855">
        <ele>258.6</ele>
        <time>2025-07-10T07:52:47.769000+02:00</time>
      </trkpt>
      <trkpt lat="45.75603" lon="4.81867">
        <ele>258.3</ele>
        <time>2025-07-10T07:52:48.769000+02:00</time>
      </trkpt>
      <trkpt lat="45.75605" lon="4.81891">
        <ele>257.4</ele>
        <time>2025-07-10T07:52:50.768000+02:00</time>
      </trkpt>
      <trkpt lat="45.75608" lon="4.81904">
        <ele>256.3</ele>
        <time>2025-07-10T07:52:51.769000+02:00</time>
      </trkpt>
      <trkpt lat="45.75612" lon="4.81916">
        <ele>255.1</ele>
        <time>2025-07-10T07:52:52.769000+02:00</time>
      </trkpt>
      <trkpt lat="45.75619" lon="4.8194">
        <ele>253.4</ele>
        <time>2025-07-10T07:52:54.767000+02:00</time>
      </trkpt>
      <trkpt lat="45.75623" lon="4.81953">
        <ele>252.7</ele>
        <time>2025-07-10T07:52:55.769000+02:00</time>
      </trkpt>
      <trkpt lat="45.75627" lon="4.81965">
        <ele>252.3</ele>
        <time>2025-07-10T07:52:56.769000+02:00</time>
      </trkpt>
      <trkpt lat="45.75636" lon="4.8199">
        <ele>250.8</ele>
        <time>2025-07-10T07:52:58.768000+02:00</time>
      </trkpt>
      <trkpt lat="45.75641" lon="4.82002">
        <ele>249.9</ele>
        <time>2025-07-10T07:52:59.768000+02:00</time>
      </trkpt>
      <trkpt lat="45.75646" lon="4.82013">
        <ele>249.4</ele>
        <time>2025-07-10T07:53:00.769000+02:00</time>
      </trkpt>
      <trkpt lat="45.75658" lon="4.82036">
        <ele>247.6</ele>
        <time>2025-07-10T07:53:02.768000+02:00</time>
      </trkpt>
      <trkpt lat="45.75665" lon="4.82046">
        <ele>246.2</ele>
        <time>2025-07-10T07:53:03.768000+02:00</time>
      </trkpt>
      <trkpt lat="45.75671" lon="4.82055">
        <ele>245.1</ele>
        <time>2025-07-10T07:53:04.769000+02:00</time>
      </trkpt>
      <trkpt lat="45.75682" lon="4.82069">
        <ele>244.5</ele>
        <time>2025-07-10T07:53:06.768000+02:00</time>
      </trkpt>
      <trkpt lat="45.75687" lon="4.82077">
        <ele>244.2</ele>
        <time>2025-07-10T07:53:07.769000+02:00</time>
      </trkpt>
      <trkpt lat="45.75695" lon="4.82095">
        <ele>243.2</ele>
        <time>2025-07-10T07:53:09.770000+02:00</time>
      </trkpt>
      <trkpt lat="45.75707" lon="4.82114">
        <ele>241.8</ele>
        <time>2025-07-10T07:53:11.769000+02:00</time>
      </trkpt>
      <trkpt lat="45.7572" lon="4.82132">
        <ele>239.8</ele>
        <time>2025-07-10T07:53:13.768000+02:00</time>
      </trkpt>
      <trkpt lat="45.75727" lon="4.82141">
        <ele>239.7</ele>
        <time>2025-07-10T07:53:14.768000+02:00</time>
      </trkpt>
      <trkpt lat="45.75735" lon="4.82149">
        <ele>239.8</ele>
        <time>2025-07-10T07:53:15.770000+02:00</time>
      </trkpt>
      <trkpt lat="45.75743" lon="4.82157">
        <ele>239.1</ele>
        <time>2025-07-10T07:53:16.770000+02:00</time>
      </trkpt>
      <trkpt lat="45.7576" lon="4.82171">
        <ele>237.2</ele>
        <time>2025-07-10T07:53:18.769000+02:00</time>
      </trkpt>
      <trkpt lat="45.75776" lon="4.82182">
        <ele>237.5</ele>
        <time>2025-07-10T07:53:20.769000+02:00</time>
      </trkpt>
      <trkpt lat="45.75784" lon="4.82188">
        <ele>237.5</ele>
        <time>2025-07-10T07:53:21.769000+02:00</time>
      </trkpt>
      <trkpt lat="45.758" lon="4.82199">
        <ele>237.1</ele>
        <time>2025-07-10T07:53:23.768000+02:00</time>
      </trkpt>
      <trkpt lat="45.75808" lon="4.82203">
        <ele>237.2</ele>
        <time>2025-07-10T07:53:24.769000+02:00</time>
      </trkpt>
      <trkpt lat="45.75815" lon="4.82208">
        <ele>237.2</ele>
        <time>2025-07-10T07:53:25.769000+02:00</time>
      </trkpt>
      <trkpt lat="45.75825" lon="4.82224">
        <ele>237</ele>
        <time>2025-07-10T07:53:27.767000+02:00</time>
      </trkpt>
      <trkpt lat="45.75827" lon="4.82234">
        <ele>236.8</ele>
        <time>2025-07-10T07:53:28.767000+02:00</time>
      </trkpt>
      <trkpt lat="45.7583" lon="4.82245">
        <ele>236.8</ele>
        <time>2025-07-10T07:53:29.769000+02:00</time>
      </trkpt>
      <trkpt lat="45.75834" lon="4.82255">
        <ele>236.5</ele>
        <time>2025-07-10T07:53:30.769000+02:00</time>
      </trkpt>
      <trkpt lat="45.7584" lon="4.82278">
        <ele>236.1</ele>
        <time>2025-07-10T07:53:32.768000+02:00</time>
      </trkpt>
      <trkpt lat="45.75843" lon="4.8229">
        <ele>236.7</ele>
        <time>2025-07-10T07:53:33.768000+02:00</time>
      </trkpt>
      <trkpt lat="45.75846" lon="4.82301">
        <ele>237.5</ele>
        <time>2025-07-10T07:53:34.768000+02:00</time>
      </trkpt>
      <trkpt lat="45.75849" lon="4.82313">
        <ele>238.2</ele>
        <time>2025-07-10T07:53:35.770000+02:00</time>
      </trkpt>
      <trkpt lat="45.75852" lon="4.82325">
        <ele>238.3</ele>
        <time>2025-07-10T07:53:36.770000+02:00</time>
      </trkpt>
      <trkpt lat="45.75855" lon="4.82335">
        <ele>238.6</ele>
        <time>2025-07-10T07:53:37.770000+02:00</time>
      </trkpt>
      <trkpt lat="45.75862" lon="4.82356">
        <ele>234.1</ele>
        <time>2025-07-10T07:53:39.768000+02:00</time>
      </trkpt>
      <trkpt lat="45.75865" lon="4.82367">
        <ele>231.6</ele>
        <time>2025-07-10T07:53:40.768000+02:00</time>
      </trkpt>
      <trkpt lat="45.75872" lon="4.82375">
        <ele>230.4</ele>
        <time>2025-07-10T07:53:41.769000+02:00</time>
      </trkpt>
      <trkpt lat="45.7588" lon="4.82382">
        <ele>229.1</ele>
        <time>2025-07-10T07:53:42.769000+02:00</time>
      </trkpt>
      <trkpt lat="45.75888" lon="4.82389">
        <ele>226.9</ele>
        <time>2025-07-10T07:53:43.769000+02:00</time>
      </trkpt>
      <trkpt lat="45.75895" lon="4.82397">
        <ele>227.8</ele>
        <time>2025-07-10T07:53:44.770000+02:00</time>
      </trkpt>
      <trkpt lat="45.75912" lon="4.8241">
        <ele>226.1</ele>
        <time>2025-07-10T07:53:46.770000+02:00</time>
      </trkpt>
      <trkpt lat="45.7593" lon="4.8242">
        <ele>222.1</ele>
        <time>2025-07-10T07:53:48.769000+02:00</time>
      </trkpt>
      <trkpt lat="45.7595" lon="4.82429">
        <ele>219.6</ele>
        <time>2025-07-10T07:53:50.768000+02:00</time>
      </trkpt>
      <trkpt lat="45.7596" lon="4.82433">
        <ele>218.4</ele>
        <time>2025-07-10T07:53:51.768000+02:00</time>
      </trkpt>
      <trkpt lat="45.7597" lon="4.82437">
        <ele>216.9</ele>
        <time>2025-07-10T07:53:52.768000+02:00</time>
      </trkpt>
      <trkpt lat="45.7598" lon="4.82441">
        <ele>216.5</ele>
        <time>2025-07-10T07:53:53.768000+02:00</time>
      </trkpt>
      <trkpt lat="45.75989" lon="4.82446">
        <ele>216.5</ele>
        <time>2025-07-10T07:53:54.769000+02:00</time>
      </trkpt>
      <trkpt lat="45.76007" lon="4.82458">
        <ele>214.5</ele>
        <time>2025-07-10T07:53:56.769000+02:00</time>
      </trkpt>
      <trkpt lat="45.76025" lon="4.82471">
        <ele>209</ele>
        <time>2025-07-10T07:53:58.769000+02:00</time>
      </trkpt>
      <trkpt lat="45.76034" lon="4.82476">
        <ele>207.2</ele>
        <time>2025-07-10T07:53:59.769000+02:00</time>
      </trkpt>
      <trkpt lat="45.76044" lon="4.82481">
        <ele>206</ele>
        <time>2025-07-10T07:54:00.769000+02:00</time>
      </trkpt>
      <trkpt lat="45.76054" lon="4.82486">
        <ele>204.6</ele>
        <time>2025-07-10T07:54:01.769000+02:00</time>
      </trkpt>
      <trkpt lat="45.76064" lon="4.8249">
        <ele>203.2</ele>
        <time>2025-07-10T07:54:02.769000+02:00</time>
      </trkpt>
      <trkpt lat="45.76085" lon="4.82499">
        <ele>199.7</ele>
        <time>2025-07-10T07:54:04.768000+02:00</time>
      </trkpt>
      <trkpt lat="45.76096" lon="4.82503">
        <ele>198.5</ele>
        <time>2025-07-10T07:54:05.768000+02:00</time>
      </trkpt>
      <trkpt lat="45.76106" lon="4.82507">
        <ele>197.4</ele>
        <time>2025-07-10T07:54:06.769000+02:00</time>
      </trkpt>
      <trkpt lat="45.76126" lon="4.82517">
        <ele>194.4</ele>
        <time>2025-07-10T07:54:08.769000+02:00</time>
      </trkpt>
      <trkpt lat="45.76136" lon="4.82523">
        <ele>192</ele>
        <time>2025-07-10T07:54:09.769000+02:00</time>
      </trkpt>
      <trkpt lat="45.76145" lon="4.8253">
        <ele>190.7</ele>
        <time>2025-07-10T07:54:10.769000+02:00</time>
      </trkpt>
      <trkpt lat="45.76162" lon="4.82542">
        <ele>189.2</ele>
        <time>2025-07-10T07:54:12.767000+02:00</time>
      </trkpt>
      <trkpt lat="45.76169" lon="4.82548">
        <ele>187.8</ele>
        <time>2025-07-10T07:54:13.769000+02:00</time>
      </trkpt>
      <trkpt lat="45.76181" lon="4.8256">
        <ele>187.5</ele>
        <time>2025-07-10T07:54:15.770000+02:00</time>
      </trkpt>
      <trkpt lat="45.76192" lon="4.82574">
        <ele>185.4</ele>
        <time>2025-07-10T07:54:17.768000+02:00</time>
      </trkpt>
      <trkpt lat="45.76197" lon="4.8258">
        <ele>184</ele>
        <time>2025-07-10T07:54:18.768000+02:00</time>
      </trkpt>
      <trkpt lat="45.76201" lon="4.82586">
        <ele>183.3</ele>
        <time>2025-07-10T07:54:19.769000+02:00</time>
      </trkpt>
      <trkpt lat="45.76204" lon="4.82592">
        <ele>182.8</ele>
        <time>2025-07-10T07:54:20.769000+02:00</time>
      </trkpt>
      <trkpt lat="45.76204" lon="4.82599">
        <ele>181.1</ele>
        <time>2025-07-10T07:54:21.769000+02:00</time>
      </trkpt>
      <trkpt lat="45.76201" lon="4.82612">
        <ele>177.1</ele>
        <time>2025-07-10T07:54:23.768000+02:00</time>
      </trkpt>
      <trkpt lat="45.76199" lon="4.82618">
        <ele>176.2</ele>
        <time>2025-07-10T07:54:24.768000+02:00</time>
      </trkpt>
      <trkpt lat="45.76196" lon="4.82625">
        <ele>175.2</ele>
        <time>2025-07-10T07:54:25.768000+02:00</time>
      </trkpt>
      <trkpt lat="45.76191" lon="4.82641">
        <ele>173.4</ele>
        <time>2025-07-10T07:54:27.768000+02:00</time>
      </trkpt>
      <trkpt lat="45.76186" lon="4.8265">
        <ele>172.4</ele>
        <time>2025-07-10T07:54:28.768000+02:00</time>
      </trkpt>
      <trkpt lat="45.76179" lon="4.82668">
        <ele>170.9</ele>
        <time>2025-07-10T07:54:30.768000+02:00</time>
      </trkpt>
      <trkpt lat="45.76177" lon="4.82677">
        <ele>170.5</ele>
        <time>2025-07-10T07:54:31.769000+02:00</time>
      </trkpt>
      <trkpt lat="45.76173" lon="4.82685">
        <ele>170.2</ele>
        <time>2025-07-10T07:54:32.769000+02:00</time>
      </trkpt>
      <trkpt lat="45.76168" lon="4.827">
        <ele>169.8</ele>
        <time>2025-07-10T07:54:34.768000+02:00</time>
      </trkpt>
      <trkpt lat="45.76164" lon="4.82713">
        <ele>169.2</ele>
        <time>2025-07-10T07:54:36.769000+02:00</time>
      </trkpt>
      <trkpt lat="45.76161" lon="4.82726">
        <ele>168.7</ele>
        <time>2025-07-10T07:54:38.767000+02:00</time>
      </trkpt>
      <trkpt lat="45.7616" lon="4.82734">
        <ele>168.4</ele>
        <time>2025-07-10T07:54:39.767000+02:00</time>
      </trkpt>
      <trkpt lat="45.7616" lon="4.82742">
        <ele>168.2</ele>
        <time>2025-07-10T07:54:40.767000+02:00</time>
      </trkpt>
      <trkpt lat="45.76159" lon="4.8275">
        <ele>168</ele>
        <time>2025-07-10T07:54:41.767000+02:00</time>
      </trkpt>
      <trkpt lat="45.76158" lon="4.82758">
        <ele>167.9</ele>
        <time>2025-07-10T07:54:42.767000+02:00</time>
      </trkpt>
      <trkpt lat="45.76158" lon="4.82767">
        <ele>167.8</ele>
        <time>2025-07-10T07:54:43.767000+02:00</time>
      </trkpt>
      <trkpt lat="45.76155" lon="4.82775">
        <ele>167.6</ele>
        <time>2025-07-10T07:54:44.767000+02:00</time>
      </trkpt>
      <trkpt lat="45.76153" lon="4.82782">
        <ele>167.4</ele>
        <time>2025-07-10T07:54:45.768000+02:00</time>
      </trkpt>
      <trkpt lat="45.76149" lon="4.82798">
        <ele>167.1</ele>
        <time>2025-07-10T07:54:47.767000+02:00</time>
      </trkpt>
      <trkpt lat="45.76147" lon="4.82805">
        <ele>167</ele>
        <time>2025-07-10T07:54:48.767000+02:00</time>
      </trkpt>
      <trkpt lat="45.76146" lon="4.82813">
        <ele>167.1</ele>
        <time>2025-07-10T07:54:49.767000+02:00</time>
      </trkpt>
      <trkpt lat="45.76144" lon="4.8282">
        <ele>167.1</ele>
        <time>2025-07-10T07:54:50.768000+02:00</time>
      </trkpt>
      <trkpt lat="45.76142" lon="4.82828">
        <ele>167.1</ele>
        <time>2025-07-10T07:54:51.769000+02:00</time>
      </trkpt>
      <trkpt lat="45.76141" lon="4.82834">
        <ele>167.1</ele>
        <time>2025-07-10T07:54:52.769000+02:00</time>
      </trkpt>
      <trkpt lat="45.76138" lon="4.82844">
        <ele>167</ele>
        <time>2025-07-10T07:54:54.767000+02:00</time>
      </trkpt>
      <trkpt lat="45.76137" lon="4.82849">
        <ele>167</ele>
        <time>2025-07-10T07:54:55.768000+02:00</time>
      </trkpt>
      <trkpt lat="45.76135" lon="4.82854">
        <ele>167</ele>
        <time>2025-07-10T07:54:57.768000+02:00</time>
      </trkpt>
      <trkpt lat="45.76135" lon="4.82857">
        <ele>167</ele>
        <time>2025-07-10T07:54:58.769000+02:00</time>
      </trkpt>
      <trkpt lat="45.76132" lon="4.82866">
        <ele>167</ele>
        <time>2025-07-10T07:55:00.768000+02:00</time>
      </trkpt>
      <trkpt lat="45.76132" lon="4.82873">
        <ele>167.1</ele>
        <time>2025-07-10T07:55:02.768000+02:00</time>
      </trkpt>
      <trkpt lat="45.7614" lon="4.82875">
        <ele>167</ele>
        <time>2025-07-10T07:55:04.768000+02:00</time>
      </trkpt>
      <trkpt lat="45.7615" lon="4.82878">
        <ele>167</ele>
        <time>2025-07-10T07:55:06.767000+02:00</time>
      </trkpt>
      <trkpt lat="45.76155" lon="4.8288">
        <ele>167</ele>
        <time>2025-07-10T07:55:07.768000+02:00</time>
      </trkpt>
      <trkpt lat="45.7616" lon="4.82882">
        <ele>167</ele>
        <time>2025-07-10T07:55:08.768000+02:00</time>
      </trkpt>
      <trkpt lat="45.76165" lon="4.82884">
        <ele>167</ele>
        <time>2025-07-10T07:55:09.768000+02:00</time>
      </trkpt>
      <trkpt lat="45.76177" lon="4.82888">
        <ele>167</ele>
        <time>2025-07-10T07:55:11.767000+02:00</time>
      </trkpt>
      <trkpt lat="45.76183" lon="4.8289">
        <ele>167.1</ele>
        <time>2025-07-10T07:55:12.768000+02:00</time>
      </trkpt>
      <trkpt lat="45.76189" lon="4.82893">
        <ele>167.1</ele>
        <time>2025-07-10T07:55:13.768000+02:00</time>
      </trkpt>
      <trkpt lat="45.76201" lon="4.82899">
        <ele>167.2</ele>
        <time>2025-07-10T07:55:15.768000+02:00</time>
      </trkpt>
      <trkpt lat="45.76206" lon="4.82903">
        <ele>167.3</ele>
        <time>2025-07-10T07:55:16.768000+02:00</time>
      </trkpt>
      <trkpt lat="45.76217" lon="4.8291">
        <ele>167.6</ele>
        <time>2025-07-10T07:55:18.768000+02:00</time>
      </trkpt>
      <trkpt lat="45.76228" lon="4.82917">
        <ele>167.8</ele>
        <time>2025-07-10T07:55:20.767000+02:00</time>
      </trkpt>
      <trkpt lat="45.76233" lon="4.82919">
        <ele>167.5</ele>
        <time>2025-07-10T07:55:21.769000+02:00</time>
      </trkpt>
      <trkpt lat="45.76242" lon="4.82924">
        <ele>167.3</ele>
        <time>2025-07-10T07:55:23.769000+02:00</time>
      </trkpt>
      <trkpt lat="45.76247" lon="4.82926">
        <ele>167.3</ele>
        <time>2025-07-10T07:55:24.769000+02:00</time>
      </trkpt>
      <trkpt lat="45.76256" lon="4.8293">
        <ele>167.4</ele>
        <time>2025-07-10T07:55:26.768000+02:00</time>
      </trkpt>
      <trkpt lat="45.76261" lon="4.82931">
        <ele>167.4</ele>
        <time>2025-07-10T07:55:27.768000+02:00</time>
      </trkpt>
      <trkpt lat="45.7627" lon="4.82934">
        <ele>167.3</ele>
        <time>2025-07-10T07:55:29.768000+02:00</time>
      </trkpt>
      <trkpt lat="45.76279" lon="4.82937">
        <ele>167.4</ele>
        <time>2025-07-10T07:55:31.768000+02:00</time>
      </trkpt>
      <trkpt lat="45.76283" lon="4.82938">
        <ele>167.5</ele>
        <time>2025-07-10T07:55:32.768000+02:00</time>
      </trkpt>
      <trkpt lat="45.76288" lon="4.8294">
        <ele>167.6</ele>
        <time>2025-07-10T07:55:33.768000+02:00</time>
      </trkpt>
      <trkpt lat="45.76291" lon="4.82941">
        <ele>167.7</ele>
        <time>2025-07-10T07:55:34.768000+02:00</time>
      </trkpt>
      <trkpt lat="45.76295" lon="4.82942">
        <ele>167.8</ele>
        <time>2025-07-10T07:55:35.768000+02:00</time>
      </trkpt>
      <trkpt lat="45.76303" lon="4.82944">
        <ele>168</ele>
        <time>2025-07-10T07:55:37.767000+02:00</time>
      </trkpt>
      <trkpt lat="45.76307" lon="4.82945">
        <ele>168</ele>
        <time>2025-07-10T07:55:38.767000+02:00</time>
      </trkpt>
      <trkpt lat="45.76311" lon="4.82946">
        <ele>168.1</ele>
        <time>2025-07-10T07:55:39.769000+02:00</time>
      </trkpt>
      <trkpt lat="45.76317" lon="4.82948">
        <ele>168</ele>
        <time>2025-07-10T07:55:41.769000+02:00</time>
      </trkpt>
      <trkpt lat="45.76319" lon="4.82952">
        <ele>167.6</ele>
        <time>2025-07-10T07:55:43.768000+02:00</time>
      </trkpt>
      <trkpt lat="45.76319" lon="4.82954">
        <ele>167.5</ele>
        <time>2025-07-10T07:55:45.769000+02:00</time>
      </trkpt>
      <trkpt lat="45.76319" lon="4.82954">
        <ele>167.5</ele>
        <time>2025-07-10T07:55:46.769000+02:00</time>
      </trkpt>
      <trkpt lat="45.76319" lon="4.82954">
        <ele>167.4</ele>
        <time>2025-07-10T07:55:48.768000+02:00</time>
      </trkpt>
      <trkpt lat="45.76318" lon="4.82954">
        <ele>167.4</ele>
        <time>2025-07-10T07:55:49.768000+02:00</time>
      </trkpt>
      <trkpt lat="45.76318" lon="4.82954">
        <ele>167.4</ele>
        <time>2025-07-10T07:55:50.768000+02:00</time>
      </trkpt>
      <trkpt lat="45.76318" lon="4.82954">
        <ele>167.4</ele>
        <time>2025-07-10T07:55:51.769000+02:00</time>
      </trkpt>
      <trkpt lat="45.76319" lon="4.82955">
        <ele>167.3</ele>
        <time>2025-07-10T07:55:53.769000+02:00</time>
      </trkpt>
      <trkpt lat="45.76323" lon="4.82957">
        <ele>167.3</ele>
        <time>2025-07-10T07:55:55.767000+02:00</time>
      </trkpt>
      <trkpt lat="45.76324" lon="4.8296">
        <ele>167.2</ele>
        <time>2025-07-10T07:55:56.769000+02:00</time>
      </trkpt>
      <trkpt lat="45.76324" lon="4.82971">
        <ele>166.1</ele>
        <time>2025-07-10T07:55:58.767000+02:00</time>
      </trkpt>
      <trkpt lat="45.76323" lon="4.82976">
        <ele>165.3</ele>
        <time>2025-07-10T07:55:59.767000+02:00</time>
      </trkpt>
      <trkpt lat="45.76323" lon="4.82982">
        <ele>164.5</ele>
        <time>2025-07-10T07:56:00.767000+02:00</time>
      </trkpt>
      <trkpt lat="45.76323" lon="4.82988">
        <ele>163.6</ele>
        <time>2025-07-10T07:56:01.768000+02:00</time>
      </trkpt>
      <trkpt lat="45.76323" lon="4.82994">
        <ele>162.8</ele>
        <time>2025-07-10T07:56:02.768000+02:00</time>
      </trkpt>
      <trkpt lat="45.76323" lon="4.83">
        <ele>162</ele>
        <time>2025-07-10T07:56:03.769000+02:00</time>
      </trkpt>
      <trkpt lat="45.76323" lon="4.83013">
        <ele>162</ele>
        <time>2025-07-10T07:56:05.768000+02:00</time>
      </trkpt>
      <trkpt lat="45.76323" lon="4.83019">
        <ele>162</ele>
        <time>2025-07-10T07:56:06.768000+02:00</time>
      </trkpt>
      <trkpt lat="45.76323" lon="4.83026">
        <ele>162</ele>
        <time>2025-07-10T07:56:07.769000+02:00</time>
      </trkpt>
      <trkpt lat="45.76323" lon="4.83039">
        <ele>162</ele>
        <time>2025-07-10T07:56:09.768000+02:00</time>
      </trkpt>
      <trkpt lat="45.76323" lon="4.83054">
        <ele>162</ele>
        <time>2025-07-10T07:56:11.768000+02:00</time>
      </trkpt>
      <trkpt lat="45.76324" lon="4.83069">
        <ele>162</ele>
        <time>2025-07-10T07:56:13.768000+02:00</time>
      </trkpt>
      <trkpt lat="45.76324" lon="4.83078">
        <ele>162</ele>
        <time>2025-07-10T07:56:14.768000+02:00</time>
      </trkpt>
      <trkpt lat="45.76324" lon="4.83086">
        <ele>162</ele>
        <time>2025-07-10T07:56:15.768000+02:00</time>
      </trkpt>
      <trkpt lat="45.76324" lon="4.83095">
        <ele>162</ele>
        <time>2025-07-10T07:56:16.768000+02:00</time>
      </trkpt>
      <trkpt lat="45.76324" lon="4.83105">
        <ele>162</ele>
        <time>2025-07-10T07:56:17.769000+02:00</time>
      </trkpt>
      <trkpt lat="45.76324" lon="4.83125">
        <ele>163</ele>
        <time>2025-07-10T07:56:19.767000+02:00</time>
      </trkpt>
      <trkpt lat="45.76323" lon="4.83135">
        <ele>163.7</ele>
        <time>2025-07-10T07:56:20.769000+02:00</time>
      </trkpt>
      <trkpt lat="45.76323" lon="4.83154">
        <ele>166.1</ele>
        <time>2025-07-10T07:56:22.769000+02:00</time>
      </trkpt>
      <trkpt lat="45.76323" lon="4.83168">
        <ele>168</ele>
        <time>2025-07-10T07:56:24.767000+02:00</time>
      </trkpt>
      <trkpt lat="45.76323" lon="4.83174">
        <ele>167.7</ele>
        <time>2025-07-10T07:56:25.768000+02:00</time>
      </trkpt>
      <trkpt lat="45.76323" lon="4.83181">
        <ele>167.5</ele>
        <time>2025-07-10T07:56:26.768000+02:00</time>
      </trkpt>
      <trkpt lat="45.76323" lon="4.83186">
        <ele>167.3</ele>
        <time>2025-07-10T07:56:27.768000+02:00</time>
      </trkpt>
      <trkpt lat="45.76324" lon="4.83192">
        <ele>167.1</ele>
        <time>2025-07-10T07:56:28.768000+02:00</time>
      </trkpt>
      <trkpt lat="45.76324" lon="4.83196">
        <ele>167</ele>
        <time>2025-07-10T07:56:29.768000+02:00</time>
      </trkpt>
      <trkpt lat="45.76325" lon="4.832">
        <ele>167</ele>
        <time>2025-07-10T07:56:30.768000+02:00</time>
      </trkpt>
      <trkpt lat="45.76326" lon="4.8321">
        <ele>167</ele>
        <time>2025-07-10T07:56:32.768000+02:00</time>
      </trkpt>
      <trkpt lat="45.76326" lon="4.83215">
        <ele>167</ele>
        <time>2025-07-10T07:56:33.768000+02:00</time>
      </trkpt>
      <trkpt lat="45.76327" lon="4.83225">
        <ele>167</ele>
        <time>2025-07-10T07:56:35.768000+02:00</time>
      </trkpt>
      <trkpt lat="45.76328" lon="4.8323">
        <ele>167</ele>
        <time>2025-07-10T07:56:36.768000+02:00</time>
      </trkpt>
      <trkpt lat="45.76328" lon="4.83234">
        <ele>167</ele>
        <time>2025-07-10T07:56:37.769000+02:00</time>
      </trkpt>
      <trkpt lat="45.76329" lon="4.83245">
        <ele>167</ele>
        <time>2025-07-10T07:56:39.767000+02:00</time>
      </trkpt>
      <trkpt lat="45.7633" lon="4.83252">
        <ele>167</ele>
        <time>2025-07-10T07:56:40.767000+02:00</time>
      </trkpt>
      <trkpt lat="45.76332" lon="4.8326">
        <ele>167</ele>
        <time>2025-07-10T07:56:41.768000+02:00</time>
      </trkpt>
      <trkpt lat="45.76332" lon="4.83269">
        <ele>167</ele>
        <time>2025-07-10T07:56:42.769000+02:00</time>
      </trkpt>
      <trkpt lat="45.76334" lon="4.83285">
        <ele>167</ele>
        <time>2025-07-10T07:56:44.768000+02:00</time>
      </trkpt>
      <trkpt lat="45.76334" lon="4.83293">
        <ele>167</ele>
        <time>2025-07-10T07:56:45.768000+02:00</time>
      </trkpt>
      <trkpt lat="45.76335" lon="4.83314">
        <ele>167</ele>
        <time>2025-07-10T07:56:47.769000+02:00</time>
      </trkpt>
      <trkpt lat="45.76334" lon="4.83333">
        <ele>167</ele>
        <time>2025-07-10T07:56:49.768000+02:00</time>
      </trkpt>
      <trkpt lat="45.76335" lon="4.8335">
        <ele>167</ele>
        <time>2025-07-10T07:56:51.769000+02:00</time>
      </trkpt>
      <trkpt lat="45.76336" lon="4.83358">
        <ele>167</ele>
        <time>2025-07-10T07:56:52.769000+02:00</time>
      </trkpt>
      <trkpt lat="45.76336" lon="4.83367">
        <ele>167.2</ele>
        <time>2025-07-10T07:56:54.769000+02:00</time>
      </trkpt>
      <trkpt lat="45.76336" lon="4.83375">
        <ele>167.4</ele>
        <time>2025-07-10T07:56:56.767000+02:00</time>
      </trkpt>
      <trkpt lat="45.76336" lon="4.83377">
        <ele>167.5</ele>
        <time>2025-07-10T07:56:57.767000+02:00</time>
      </trkpt>
      <trkpt lat="45.76336" lon="4.83381">
        <ele>167.7</ele>
        <time>2025-07-10T07:56:58.768000+02:00</time>
      </trkpt>
      <trkpt lat="45.76337" lon="4.83396">
        <ele>167.9</ele>
        <time>2025-07-10T07:57:00.766000+02:00</time>
      </trkpt>
      <trkpt lat="45.76338" lon="4.83404">
        <ele>167.9</ele>
        <time>2025-07-10T07:57:01.767000+02:00</time>
      </trkpt>
      <trkpt lat="45.76338" lon="4.83409">
        <ele>168</ele>
        <time>2025-07-10T07:57:02.767000+02:00</time>
      </trkpt>
      <trkpt lat="45.76336" lon="4.83412">
        <ele>168</ele>
        <time>2025-07-10T07:57:03.768000+02:00</time>
      </trkpt>
      <trkpt lat="45.76334" lon="4.83415">
        <ele>168</ele>
        <time>2025-07-10T07:57:04.769000+02:00</time>
      </trkpt>
      <trkpt lat="45.76334" lon="4.83419">
        <ele>168</ele>
        <time>2025-07-10T07:57:06.767000+02:00</time>
      </trkpt>
      <trkpt lat="45.76335" lon="4.83418">
        <ele>168</ele>
        <time>2025-07-10T07:57:07.767000+02:00</time>
      </trkpt>
      <trkpt lat="45.76335" lon="4.83418">
        <ele>168</ele>
        <time>2025-07-10T07:57:08.767000+02:00</time>
      </trkpt>
      <trkpt lat="45.76335" lon="4.83418">
        <ele>168</ele>
        <time>2025-07-10T07:57:09.767000+02:00</time>
      </trkpt>
      <trkpt lat="45.76335" lon="4.83419">
        <ele>168</ele>
        <time>2025-07-10T07:57:10.767000+02:00</time>
      </trkpt>
      <trkpt lat="45.76335" lon="4.83419">
        <ele>168</ele>
        <time>2025-07-10T07:57:11.768000+02:00</time>
      </trkpt>
      <trkpt lat="45.76335" lon="4.83419">
        <ele>168</ele>
        <time>2025-07-10T07:57:12.768000+02:00</time>
      </trkpt>
      <trkpt lat="45.76335" lon="4.83419">
        <ele>168</ele>
        <time>2025-07-10T07:57:13.768000+02:00</time>
      </trkpt>
      <trkpt lat="45.76335" lon="4.83419">
        <ele>168</ele>
        <time>2025-07-10T07:57:14.768000+02:00</time>
      </trkpt>
      <trkpt lat="45.76335" lon="4.83424">
        <ele>168</ele>
        <time>2025-07-10T07:57:16.768000+02:00</time>
      </trkpt>
      <trkpt lat="45.76335" lon="4.83434">
        <ele>168</ele>
        <time>2025-07-10T07:57:18.767000+02:00</time>
      </trkpt>
      <trkpt lat="45.76336" lon="4.83442">
        <ele>168</ele>
        <time>2025-07-10T07:57:19.769000+02:00</time>
      </trkpt>
      <trkpt lat="45.76339" lon="4.83458">
        <ele>167.6</ele>
        <time>2025-07-10T07:57:21.767000+02:00</time>
      </trkpt>
      <trkpt lat="45.7634" lon="4.83467">
        <ele>167.4</ele>
        <time>2025-07-10T07:57:22.767000+02:00</time>
      </trkpt>
      <trkpt lat="45.76342" lon="4.83476">
        <ele>167.3</ele>
        <time>2025-07-10T07:57:23.768000+02:00</time>
      </trkpt>
      <trkpt lat="45.76345" lon="4.83494">
        <ele>167.4</ele>
        <time>2025-07-10T07:57:25.767000+02:00</time>
      </trkpt>
      <trkpt lat="45.76345" lon="4.83505">
        <ele>167.4</ele>
        <time>2025-07-10T07:57:26.767000+02:00</time>
      </trkpt>
      <trkpt lat="45.76347" lon="4.83514">
        <ele>167.5</ele>
        <time>2025-07-10T07:57:27.767000+02:00</time>
      </trkpt>
      <trkpt lat="45.76348" lon="4.83523">
        <ele>167.5</ele>
        <time>2025-07-10T07:57:28.769000+02:00</time>
      </trkpt>
      <trkpt lat="45.76348" lon="4.83532">
        <ele>167.5</ele>
        <time>2025-07-10T07:57:29.769000+02:00</time>
      </trkpt>
      <trkpt lat="45.7635" lon="4.83553">
        <ele>167.6</ele>
        <time>2025-07-10T07:57:31.768000+02:00</time>
      </trkpt>
      <trkpt lat="45.7635" lon="4.83571">
        <ele>167.6</ele>
        <time>2025-07-10T07:57:33.767000+02:00</time>
      </trkpt>
      <trkpt lat="45.76349" lon="4.8358">
        <ele>167.6</ele>
        <time>2025-07-10T07:57:34.767000+02:00</time>
      </trkpt>
      <trkpt lat="45.76349" lon="4.8359">
        <ele>167.7</ele>
        <time>2025-07-10T07:57:35.767000+02:00</time>
      </trkpt>
      <trkpt lat="45.76347" lon="4.836">
        <ele>167.8</ele>
        <time>2025-07-10T07:57:36.768000+02:00</time>
      </trkpt>
      <trkpt lat="45.76347" lon="4.83619">
        <ele>168</ele>
        <time>2025-07-10T07:57:38.767000+02:00</time>
      </trkpt>
      <trkpt lat="45.76348" lon="4.83638">
        <ele>168</ele>
        <time>2025-07-10T07:57:40.769000+02:00</time>
      </trkpt>
      <trkpt lat="45.76348" lon="4.83658">
        <ele>167.7</ele>
        <time>2025-07-10T07:57:42.768000+02:00</time>
      </trkpt>
      <trkpt lat="45.76348" lon="4.83677">
        <ele>167.5</ele>
        <time>2025-07-10T07:57:44.767000+02:00</time>
      </trkpt>
      <trkpt lat="45.76348" lon="4.83686">
        <ele>167.5</ele>
        <time>2025-07-10T07:57:45.767000+02:00</time>
      </trkpt>
      <trkpt lat="45.76349" lon="4.83696">
        <ele>167.6</ele>
        <time>2025-07-10T07:57:46.768000+02:00</time>
      </trkpt>
      <trkpt lat="45.76349" lon="4.83714">
        <ele>167.9</ele>
        <time>2025-07-10T07:57:48.768000+02:00</time>
      </trkpt>
      <trkpt lat="45.76349" lon="4.83723">
        <ele>168</ele>
        <time>2025-07-10T07:57:49.768000+02:00</time>
      </trkpt>
      <trkpt lat="45.76349" lon="4.83731">
        <ele>168</ele>
        <time>2025-07-10T07:57:50.769000+02:00</time>
      </trkpt>
      <trkpt lat="45.76349" lon="4.83749">
        <ele>168</ele>
        <time>2025-07-10T07:57:52.769000+02:00</time>
      </trkpt>
      <trkpt lat="45.7635" lon="4.83767">
        <ele>168</ele>
        <time>2025-07-10T07:57:54.767000+02:00</time>
      </trkpt>
      <trkpt lat="45.76349" lon="4.83776">
        <ele>168</ele>
        <time>2025-07-10T07:57:55.768000+02:00</time>
      </trkpt>
      <trkpt lat="45.7635" lon="4.83784">
        <ele>168.2</ele>
        <time>2025-07-10T07:57:56.768000+02:00</time>
      </trkpt>
      <trkpt lat="45.76349" lon="4.83791">
        <ele>168.5</ele>
        <time>2025-07-10T07:57:57.768000+02:00</time>
      </trkpt>
      <trkpt lat="45.76347" lon="4.83797">
        <ele>168.7</ele>
        <time>2025-07-10T07:57:58.769000+02:00</time>
      </trkpt>
      <trkpt lat="45.76347" lon="4.83805">
        <ele>169</ele>
        <time>2025-07-10T07:58:00.768000+02:00</time>
      </trkpt>
      <trkpt lat="45.76347" lon="4.83807">
        <ele>169</ele>
        <time>2025-07-10T07:58:01.768000+02:00</time>
      </trkpt>
      <trkpt lat="45.76347" lon="4.83809">
        <ele>169</ele>
        <time>2025-07-10T07:58:03.766000+02:00</time>
      </trkpt>
      <trkpt lat="45.76347" lon="4.83809">
        <ele>169</ele>
        <time>2025-07-10T07:58:04.766000+02:00</time>
      </trkpt>
      <trkpt lat="45.76347" lon="4.83809">
        <ele>169</ele>
        <time>2025-07-10T07:58:05.767000+02:00</time>
      </trkpt>
      <trkpt lat="45.76347" lon="4.83809">
        <ele>169</ele>
        <time>2025-07-10T07:58:06.768000+02:00</time>
      </trkpt>
      <trkpt lat="45.76347" lon="4.83808">
        <ele>169</ele>
        <time>2025-07-10T07:58:08.767000+02:00</time>
      </trkpt>
      <trkpt lat="45.76347" lon="4.83808">
        <ele>169</ele>
        <time>2025-07-10T07:58:09.767000+02:00</time>
      </trkpt>
      <trkpt lat="45.76347" lon="4.83808">
        <ele>169</ele>
        <time>2025-07-10T07:58:10.768000+02:00</time>
      </trkpt>
      <trkpt lat="45.76347" lon="4.83808">
        <ele>169</ele>
        <time>2025-07-10T07:58:12.768000+02:00</time>
      </trkpt>
      <trkpt lat="45.76347" lon="4.83808">
        <ele>169</ele>
        <time>2025-07-10T07:58:14.766000+02:00</time>
      </trkpt>
      <trkpt lat="45.76347" lon="4.83808">
        <ele>169</ele>
        <time>2025-07-10T07:58:15.767000+02:00</time>
      </trkpt>
      <trkpt lat="45.76347" lon="4.83808">
        <ele>169</ele>
        <time>2025-07-10T07:58:16.767000+02:00</time>
      </trkpt>
      <trkpt lat="45.76347" lon="4.83808">
        <ele>169</ele>
        <time>2025-07-10T07:58:17.769000+02:00</time>
      </trkpt>
      <trkpt lat="45.76347" lon="4.83808">
        <ele>169</ele>
        <time>2025-07-10T07:58:19.767000+02:00</time>
      </trkpt>
      <trkpt lat="45.76347" lon="4.83808">
        <ele>169</ele>
        <time>2025-07-10T07:58:21.768000+02:00</time>
      </trkpt>
      <trkpt lat="45.76347" lon="4.83808">
        <ele>169</ele>
        <time>2025-07-10T07:58:24.768000+02:00</time>
      </trkpt>
      <trkpt lat="45.76347" lon="4.83808">
        <ele>169</ele>
        <time>2025-07-10T07:58:26.768000+02:00</time>
      </trkpt>
      <trkpt lat="45.76347" lon="4.83808">
        <ele>169</ele>
        <time>2025-07-10T07:58:30.768000+02:00</time>
      </trkpt>
      <trkpt lat="45.76347" lon="4.83809">
        <ele>169</ele>
        <time>2025-07-10T07:58:31.768000+02:00</time>
      </trkpt>
      <trkpt lat="45.76347" lon="4.83812">
        <ele>169</ele>
        <time>2025-07-10T07:58:32.769000+02:00</time>
      </trkpt>
      <trkpt lat="45.76346" lon="4.83822">
        <ele>169</ele>
        <time>2025-07-10T07:58:34.768000+02:00</time>
      </trkpt>
      <trkpt lat="45.76348" lon="4.83837">
        <ele>169.1</ele>
        <time>2025-07-10T07:58:36.767000+02:00</time>
      </trkpt>
      <trkpt lat="45.76348" lon="4.83846">
        <ele>169.2</ele>
        <time>2025-07-10T07:58:37.767000+02:00</time>
      </trkpt>
      <trkpt lat="45.76349" lon="4.83865">
        <ele>168.6</ele>
        <time>2025-07-10T07:58:39.767000+02:00</time>
      </trkpt>
      <trkpt lat="45.76351" lon="4.83875">
        <ele>166.6</ele>
        <time>2025-07-10T07:58:40.767000+02:00</time>
      </trkpt>
      <trkpt lat="45.76351" lon="4.83894">
        <ele>163.2</ele>
        <time>2025-07-10T07:58:42.768000+02:00</time>
      </trkpt>
      <trkpt lat="45.76351" lon="4.83912">
        <ele>162.5</ele>
        <time>2025-07-10T07:58:44.766000+02:00</time>
      </trkpt>
      <trkpt lat="45.76352" lon="4.83922">
        <ele>162.3</ele>
        <time>2025-07-10T07:58:45.768000+02:00</time>
      </trkpt>
      <trkpt lat="45.76352" lon="4.83939">
        <ele>162.3</ele>
        <time>2025-07-10T07:58:47.767000+02:00</time>
      </trkpt>
      <trkpt lat="45.76351" lon="4.83949">
        <ele>162.4</ele>
        <time>2025-07-10T07:58:48.767000+02:00</time>
      </trkpt>
      <trkpt lat="45.76351" lon="4.83958">
        <ele>162.4</ele>
        <time>2025-07-10T07:58:49.767000+02:00</time>
      </trkpt>
      <trkpt lat="45.76351" lon="4.83967">
        <ele>162.3</ele>
        <time>2025-07-10T07:58:50.768000+02:00</time>
      </trkpt>
      <trkpt lat="45.76351" lon="4.83985">
        <ele>162.3</ele>
        <time>2025-07-10T07:58:52.769000+02:00</time>
      </trkpt>
      <trkpt lat="45.76352" lon="4.84003">
        <ele>162.3</ele>
        <time>2025-07-10T07:58:54.767000+02:00</time>
      </trkpt>
      <trkpt lat="45.76352" lon="4.84012">
        <ele>162.3</ele>
        <time>2025-07-10T07:58:55.767000+02:00</time>
      </trkpt>
      <trkpt lat="45.76352" lon="4.84022">
        <ele>162.3</ele>
        <time>2025-07-10T07:58:56.768000+02:00</time>
      </trkpt>
      <trkpt lat="45.76352" lon="4.8404">
        <ele>162.2</ele>
        <time>2025-07-10T07:58:58.768000+02:00</time>
      </trkpt>
      <trkpt lat="45.76352" lon="4.84049">
        <ele>162.1</ele>
        <time>2025-07-10T07:58:59.768000+02:00</time>
      </trkpt>
      <trkpt lat="45.76353" lon="4.84068">
        <ele>162.4</ele>
        <time>2025-07-10T07:59:01.768000+02:00</time>
      </trkpt>
      <trkpt lat="45.76353" lon="4.84076">
        <ele>162.8</ele>
        <time>2025-07-10T07:59:02.768000+02:00</time>
      </trkpt>
      <trkpt lat="45.76353" lon="4.84094">
        <ele>164.2</ele>
        <time>2025-07-10T07:59:04.768000+02:00</time>
      </trkpt>
      <trkpt lat="45.76353" lon="4.84103">
        <ele>165.2</ele>
        <time>2025-07-10T07:59:05.768000+02:00</time>
      </trkpt>
      <trkpt lat="45.76353" lon="4.84109">
        <ele>165.9</ele>
        <time>2025-07-10T07:59:06.768000+02:00</time>
      </trkpt>
      <trkpt lat="45.76352" lon="4.84118">
        <ele>166.8</ele>
        <time>2025-07-10T07:59:08.766000+02:00</time>
      </trkpt>
      <trkpt lat="45.7635" lon="4.84122">
        <ele>167</ele>
        <time>2025-07-10T07:59:09.769000+02:00</time>
      </trkpt>
      <trkpt lat="45.76349" lon="4.84124">
        <ele>167.3</ele>
        <time>2025-07-10T07:59:10.769000+02:00</time>
      </trkpt>
      <trkpt lat="45.76348" lon="4.84128">
        <ele>167.7</ele>
        <time>2025-07-10T07:59:12.767000+02:00</time>
      </trkpt>
      <trkpt lat="45.76348" lon="4.84131">
        <ele>168</ele>
        <time>2025-07-10T07:59:13.767000+02:00</time>
      </trkpt>
      <trkpt lat="45.76347" lon="4.84133">
        <ele>168.2</ele>
        <time>2025-07-10T07:59:14.767000+02:00</time>
      </trkpt>
      <trkpt lat="45.76347" lon="4.84134">
        <ele>168.4</ele>
        <time>2025-07-10T07:59:15.767000+02:00</time>
      </trkpt>
      <trkpt lat="45.76347" lon="4.84135">
        <ele>168.4</ele>
        <time>2025-07-10T07:59:16.767000+02:00</time>
      </trkpt>
      <trkpt lat="45.76346" lon="4.84135">
        <ele>168.5</ele>
        <time>2025-07-10T07:59:18.768000+02:00</time>
      </trkpt>
      <trkpt lat="45.76346" lon="4.84137">
        <ele>168.8</ele>
        <time>2025-07-10T07:59:19.768000+02:00</time>
      </trkpt>
      <trkpt lat="45.76351" lon="4.8414">
        <ele>169</ele>
        <time>2025-07-10T07:59:21.768000+02:00</time>
      </trkpt>
      <trkpt lat="45.76354" lon="4.8414">
        <ele>169</ele>
        <time>2025-07-10T07:59:23.768000+02:00</time>
      </trkpt>
      <trkpt lat="45.76356" lon="4.84142">
        <ele>169</ele>
        <time>2025-07-10T07:59:25.767000+02:00</time>
      </trkpt>
      <trkpt lat="45.76356" lon="4.84141">
        <ele>169</ele>
        <time>2025-07-10T07:59:26.767000+02:00</time>
      </trkpt>
      <trkpt lat="45.76356" lon="4.84141">
        <ele>169</ele>
        <time>2025-07-10T07:59:27.767000+02:00</time>
      </trkpt>
      <trkpt lat="45.76356" lon="4.84141">
        <ele>169</ele>
        <time>2025-07-10T07:59:29.767000+02:00</time>
      </trkpt>
      <trkpt lat="45.76356" lon="4.84141">
        <ele>169</ele>
        <time>2025-07-10T07:59:30.767000+02:00</time>
      </trkpt>
      <trkpt lat="45.76356" lon="4.84141">
        <ele>169</ele>
        <time>2025-07-10T07:59:31.767000+02:00</time>
      </trkpt>
      <trkpt lat="45.76356" lon="4.84141">
        <ele>169</ele>
        <time>2025-07-10T07:59:32.767000+02:00</time>
      </trkpt>
      <trkpt lat="45.76356" lon="4.84141">
        <ele>169</ele>
        <time>2025-07-10T07:59:33.767000+02:00</time>
      </trkpt>
      <trkpt lat="45.76356" lon="4.84141">
        <ele>169</ele>
        <time>2025-07-10T07:59:34.768000+02:00</time>
      </trkpt>
      <trkpt lat="45.76356" lon="4.84141">
        <ele>169</ele>
        <time>2025-07-10T07:59:35.768000+02:00</time>
      </trkpt>
      <trkpt lat="45.76356" lon="4.84143">
        <ele>169</ele>
        <time>2025-07-10T07:59:36.768000+02:00</time>
      </trkpt>
      <trkpt lat="45.76358" lon="4.8415">
        <ele>169</ele>
        <time>2025-07-10T07:59:38.768000+02:00</time>
      </trkpt>
      <trkpt lat="45.76359" lon="4.84164">
        <ele>169</ele>
        <time>2025-07-10T07:59:40.767000+02:00</time>
      </trkpt>
      <trkpt lat="45.76359" lon="4.84172">
        <ele>169</ele>
        <time>2025-07-10T07:59:41.767000+02:00</time>
      </trkpt>
      <trkpt lat="45.76359" lon="4.8419">
        <ele>168.9</ele>
        <time>2025-07-10T07:59:43.767000+02:00</time>
      </trkpt>
      <trkpt lat="45.76359" lon="4.842">
        <ele>168.7</ele>
        <time>2025-07-10T07:59:44.768000+02:00</time>
      </trkpt>
      <trkpt lat="45.7636" lon="4.84219">
        <ele>168.1</ele>
        <time>2025-07-10T07:59:46.767000+02:00</time>
      </trkpt>
      <trkpt lat="45.7636" lon="4.8423">
        <ele>168</ele>
        <time>2025-07-10T07:59:47.767000+02:00</time>
      </trkpt>
      <trkpt lat="45.76362" lon="4.84241">
        <ele>168</ele>
        <time>2025-07-10T07:59:48.767000+02:00</time>
      </trkpt>
      <trkpt lat="45.76363" lon="4.84251">
        <ele>168</ele>
        <time>2025-07-10T07:59:49.767000+02:00</time>
      </trkpt>
      <trkpt lat="45.76363" lon="4.84262">
        <ele>168</ele>
        <time>2025-07-10T07:59:50.767000+02:00</time>
      </trkpt>
      <trkpt lat="45.76363" lon="4.84273">
        <ele>167.9</ele>
        <time>2025-07-10T07:59:51.767000+02:00</time>
      </trkpt>
      <trkpt lat="45.76363" lon="4.84284">
        <ele>168</ele>
        <time>2025-07-10T07:59:52.768000+02:00</time>
      </trkpt>
      <trkpt lat="45.76361" lon="4.84306">
        <ele>168</ele>
        <time>2025-07-10T07:59:54.767000+02:00</time>
      </trkpt>
      <trkpt lat="45.7636" lon="4.84328">
        <ele>168</ele>
        <time>2025-07-10T07:59:56.768000+02:00</time>
      </trkpt>
      <trkpt lat="45.7636" lon="4.84349">
        <ele>168</ele>
        <time>2025-07-10T07:59:58.768000+02:00</time>
      </trkpt>
      <trkpt lat="45.7636" lon="4.8436">
        <ele>168</ele>
        <time>2025-07-10T07:59:59.768000+02:00</time>
      </trkpt>
      <trkpt lat="45.76359" lon="4.84382">
        <ele>167.2</ele>
        <time>2025-07-10T08:00:01.766000+02:00</time>
      </trkpt>
      <trkpt lat="45.76358" lon="4.84393">
        <ele>167</ele>
        <time>2025-07-10T08:00:02.768000+02:00</time>
      </trkpt>
      <trkpt lat="45.76359" lon="4.84415">
        <ele>167</ele>
        <time>2025-07-10T08:00:04.767000+02:00</time>
      </trkpt>
      <trkpt lat="45.76359" lon="4.84426">
        <ele>167</ele>
        <time>2025-07-10T08:00:05.767000+02:00</time>
      </trkpt>
      <trkpt lat="45.76359" lon="4.84438">
        <ele>167</ele>
        <time>2025-07-10T08:00:06.768000+02:00</time>
      </trkpt>
      <trkpt lat="45.7636" lon="4.8446">
        <ele>167</ele>
        <time>2025-07-10T08:00:08.767000+02:00</time>
      </trkpt>
      <trkpt lat="45.76362" lon="4.84471">
        <ele>167</ele>
        <time>2025-07-10T08:00:09.767000+02:00</time>
      </trkpt>
      <trkpt lat="45.7636" lon="4.84494">
        <ele>167</ele>
        <time>2025-07-10T08:00:11.766000+02:00</time>
      </trkpt>
      <trkpt lat="45.76359" lon="4.84506">
        <ele>167</ele>
        <time>2025-07-10T08:00:12.767000+02:00</time>
      </trkpt>
      <trkpt lat="45.76358" lon="4.84517">
        <ele>167</ele>
        <time>2025-07-10T08:00:13.768000+02:00</time>
      </trkpt>
      <trkpt lat="45.76358" lon="4.84539">
        <ele>167</ele>
        <time>2025-07-10T08:00:15.767000+02:00</time>
      </trkpt>
      <trkpt lat="45.76358" lon="4.84549">
        <ele>167</ele>
        <time>2025-07-10T08:00:16.767000+02:00</time>
      </trkpt>
      <trkpt lat="45.76359" lon="4.8456">
        <ele>167</ele>
        <time>2025-07-10T08:00:17.767000+02:00</time>
      </trkpt>
      <trkpt lat="45.76359" lon="4.84569">
        <ele>167</ele>
        <time>2025-07-10T08:00:18.767000+02:00</time>
      </trkpt>
      <trkpt lat="45.76359" lon="4.84578">
        <ele>167</ele>
        <time>2025-07-10T08:00:19.767000+02:00</time>
      </trkpt>
      <trkpt lat="45.76359" lon="4.84587">
        <ele>167</ele>
        <time>2025-07-10T08:00:21.766000+02:00</time>
      </trkpt>
      <trkpt lat="45.76359" lon="4.8459">
        <ele>167</ele>
        <time>2025-07-10T08:00:22.768000+02:00</time>
      </trkpt>
      <trkpt lat="45.76359" lon="4.84591">
        <ele>167</ele>
        <time>2025-07-10T08:00:23.768000+02:00</time>
      </trkpt>
      <trkpt lat="45.76358" lon="4.84594">
        <ele>167</ele>
        <time>2025-07-10T08:00:25.767000+02:00</time>
      </trkpt>
      <trkpt lat="45.76358" lon="4.84595">
        <ele>167</ele>
        <time>2025-07-10T08:00:26.767000+02:00</time>
      </trkpt>
      <trkpt lat="45.76358" lon="4.84597">
        <ele>167</ele>
        <time>2025-07-10T08:00:27.767000+02:00</time>
      </trkpt>
      <trkpt lat="45.76358" lon="4.84602">
        <ele>167</ele>
        <time>2025-07-10T08:00:28.768000+02:00</time>
      </trkpt>
      <trkpt lat="45.76359" lon="4.84616">
        <ele>167</ele>
        <time>2025-07-10T08:00:30.767000+02:00</time>
      </trkpt>
      <trkpt lat="45.76359" lon="4.84624">
        <ele>167</ele>
        <time>2025-07-10T08:00:31.768000+02:00</time>
      </trkpt>
      <trkpt lat="45.76359" lon="4.84644">
        <ele>167</ele>
        <time>2025-07-10T08:00:33.767000+02:00</time>
      </trkpt>
      <trkpt lat="45.76359" lon="4.84654">
        <ele>167</ele>
        <time>2025-07-10T08:00:34.768000+02:00</time>
      </trkpt>
      <trkpt lat="45.76359" lon="4.84665">
        <ele>167</ele>
        <time>2025-07-10T08:00:35.768000+02:00</time>
      </trkpt>
      <trkpt lat="45.7636" lon="4.84686">
        <ele>167</ele>
        <time>2025-07-10T08:00:37.769000+02:00</time>
      </trkpt>
      <trkpt lat="45.76359" lon="4.84708">
        <ele>167</ele>
        <time>2025-07-10T08:00:39.766000+02:00</time>
      </trkpt>
      <trkpt lat="45.76359" lon="4.84719">
        <ele>167.1</ele>
        <time>2025-07-10T08:00:40.768000+02:00</time>
      </trkpt>
      <trkpt lat="45.76359" lon="4.8474">
        <ele>167.1</ele>
        <time>2025-07-10T08:00:42.766000+02:00</time>
      </trkpt>
      <trkpt lat="45.7636" lon="4.8475">
        <ele>167.1</ele>
        <time>2025-07-10T08:00:43.766000+02:00</time>
      </trkpt>
      <trkpt lat="45.7636" lon="4.8476">
        <ele>167.4</ele>
        <time>2025-07-10T08:00:44.766000+02:00</time>
      </trkpt>
      <trkpt lat="45.7636" lon="4.8477">
        <ele>167.7</ele>
        <time>2025-07-10T08:00:45.766000+02:00</time>
      </trkpt>
      <trkpt lat="45.7636" lon="4.8478">
        <ele>168</ele>
        <time>2025-07-10T08:00:46.768000+02:00</time>
      </trkpt>
      <trkpt lat="45.76361" lon="4.848">
        <ele>168</ele>
        <time>2025-07-10T08:00:48.766000+02:00</time>
      </trkpt>
      <trkpt lat="45.7636" lon="4.8481">
        <ele>168</ele>
        <time>2025-07-10T08:00:49.766000+02:00</time>
      </trkpt>
      <trkpt lat="45.76359" lon="4.84819">
        <ele>168</ele>
        <time>2025-07-10T08:00:50.767000+02:00</time>
      </trkpt>
      <trkpt lat="45.76359" lon="4.84829">
        <ele>167.9</ele>
        <time>2025-07-10T08:00:51.767000+02:00</time>
      </trkpt>
      <trkpt lat="45.76359" lon="4.84847">
        <ele>167.5</ele>
        <time>2025-07-10T08:00:53.767000+02:00</time>
      </trkpt>
      <trkpt lat="45.76359" lon="4.84857">
        <ele>167.2</ele>
        <time>2025-07-10T08:00:54.767000+02:00</time>
      </trkpt>
      <trkpt lat="45.76361" lon="4.84875">
        <ele>167</ele>
        <time>2025-07-10T08:00:56.767000+02:00</time>
      </trkpt>
      <trkpt lat="45.76361" lon="4.84894">
        <ele>167</ele>
        <time>2025-07-10T08:00:58.766000+02:00</time>
      </trkpt>
      <trkpt lat="45.76361" lon="4.84903">
        <ele>167</ele>
        <time>2025-07-10T08:00:59.768000+02:00</time>
      </trkpt>
      <trkpt lat="45.76361" lon="4.84921">
        <ele>167</ele>
        <time>2025-07-10T08:01:01.767000+02:00</time>
      </trkpt>
      <trkpt lat="45.76361" lon="4.8494">
        <ele>167</ele>
        <time>2025-07-10T08:01:03.768000+02:00</time>
      </trkpt>
      <trkpt lat="45.76361" lon="4.84959">
        <ele>167</ele>
        <time>2025-07-10T08:01:05.766000+02:00</time>
      </trkpt>
      <trkpt lat="45.76361" lon="4.84968">
        <ele>167</ele>
        <time>2025-07-10T08:01:06.768000+02:00</time>
      </trkpt>
      <trkpt lat="45.7636" lon="4.84987">
        <ele>167</ele>
        <time>2025-07-10T08:01:08.766000+02:00</time>
      </trkpt>
      <trkpt lat="45.76359" lon="4.84996">
        <ele>167.1</ele>
        <time>2025-07-10T08:01:09.766000+02:00</time>
      </trkpt>
      <trkpt lat="45.76359" lon="4.85006">
        <ele>167.1</ele>
        <time>2025-07-10T08:01:10.767000+02:00</time>
      </trkpt>
      <trkpt lat="45.76359" lon="4.85025">
        <ele>167.1</ele>
        <time>2025-07-10T08:01:12.767000+02:00</time>
      </trkpt>
      <trkpt lat="45.76359" lon="4.85034">
        <ele>167.1</ele>
        <time>2025-07-10T08:01:13.767000+02:00</time>
      </trkpt>
      <trkpt lat="45.76359" lon="4.8505">
        <ele>167.1</ele>
        <time>2025-07-10T08:01:15.767000+02:00</time>
      </trkpt>
      <trkpt lat="45.7636" lon="4.85058">
        <ele>167</ele>
        <time>2025-07-10T08:01:16.767000+02:00</time>
      </trkpt>
      <trkpt lat="45.76361" lon="4.85067">
        <ele>167</ele>
        <time>2025-07-10T08:01:17.768000+02:00</time>
      </trkpt>
      <trkpt lat="45.7636" lon="4.85083">
        <ele>167</ele>
        <time>2025-07-10T08:01:19.767000+02:00</time>
      </trkpt>
      <trkpt lat="45.76361" lon="4.85091">
        <ele>167</ele>
        <time>2025-07-10T08:01:20.768000+02:00</time>
      </trkpt>
      <trkpt lat="45.76361" lon="4.85106">
        <ele>167</ele>
        <time>2025-07-10T08:01:22.766000+02:00</time>
      </trkpt>
      <trkpt lat="45.76361" lon="4.85112">
        <ele>167</ele>
        <time>2025-07-10T08:01:23.766000+02:00</time>
      </trkpt>
      <trkpt lat="45.76361" lon="4.85115">
        <ele>167</ele>
        <time>2025-07-10T08:01:24.766000+02:00</time>
      </trkpt>
      <trkpt lat="45.7636" lon="4.85119">
        <ele>167</ele>
        <time>2025-07-10T08:01:25.766000+02:00</time>
      </trkpt>
      <trkpt lat="45.76359" lon="4.85122">
        <ele>167</ele>
        <time>2025-07-10T08:01:26.767000+02:00</time>
      </trkpt>
      <trkpt lat="45.76358" lon="4.85124">
        <ele>167</ele>
        <time>2025-07-10T08:01:27.767000+02:00</time>
      </trkpt>
      <trkpt lat="45.76358" lon="4.85126">
        <ele>167</ele>
        <time>2025-07-10T08:01:28.768000+02:00</time>
      </trkpt>
      <trkpt lat="45.76357" lon="4.85129">
        <ele>167</ele>
        <time>2025-07-10T08:01:30.766000+02:00</time>
      </trkpt>
      <trkpt lat="45.76357" lon="4.8513">
        <ele>167</ele>
        <time>2025-07-10T08:01:31.767000+02:00</time>
      </trkpt>
      <trkpt lat="45.76358" lon="4.85132">
        <ele>167</ele>
        <time>2025-07-10T08:01:33.766000+02:00</time>
      </trkpt>
      <trkpt lat="45.76358" lon="4.85132">
        <ele>167</ele>
        <time>2025-07-10T08:01:34.767000+02:00</time>
      </trkpt>
      <trkpt lat="45.76359" lon="4.85132">
        <ele>167</ele>
        <time>2025-07-10T08:01:36.767000+02:00</time>
      </trkpt>
      <trkpt lat="45.76359" lon="4.85133">
        <ele>167</ele>
        <time>2025-07-10T08:01:37.767000+02:00</time>
      </trkpt>
      <trkpt lat="45.76359" lon="4.85133">
        <ele>167</ele>
        <time>2025-07-10T08:01:38.767000+02:00</time>
      </trkpt>
      <trkpt lat="45.76359" lon="4.85133">
        <ele>167</ele>
        <time>2025-07-10T08:01:39.768000+02:00</time>
      </trkpt>
      <trkpt lat="45.76359" lon="4.85133">
        <ele>167</ele>
        <time>2025-07-10T08:01:41.767000+02:00</time>
      </trkpt>
      <trkpt lat="45.76358" lon="4.85133">
        <ele>167</ele>
        <time>2025-07-10T08:01:42.767000+02:00</time>
      </trkpt>
      <trkpt lat="45.76358" lon="4.85132">
        <ele>167</ele>
        <time>2025-07-10T08:01:44.766000+02:00</time>
      </trkpt>
      <trkpt lat="45.76358" lon="4.85134">
        <ele>167</ele>
        <time>2025-07-10T08:01:45.768000+02:00</time>
      </trkpt>
      <trkpt lat="45.76359" lon="4.8514">
        <ele>167</ele>
        <time>2025-07-10T08:01:47.767000+02:00</time>
      </trkpt>
      <trkpt lat="45.7636" lon="4.85149">
        <ele>167</ele>
        <time>2025-07-10T08:01:49.767000+02:00</time>
      </trkpt>
      <trkpt lat="45.76361" lon="4.85158">
        <ele>167</ele>
        <time>2025-07-10T08:01:50.767000+02:00</time>
      </trkpt>
      <trkpt lat="45.76362" lon="4.85167">
        <ele>167</ele>
        <time>2025-07-10T08:01:51.767000+02:00</time>
      </trkpt>
      <trkpt lat="45.76363" lon="4.85178">
        <ele>167</ele>
        <time>2025-07-10T08:01:52.767000+02:00</time>
      </trkpt>
      <trkpt lat="45.76364" lon="4.85188">
        <ele>167</ele>
        <time>2025-07-10T08:01:53.767000+02:00</time>
      </trkpt>
      <trkpt lat="45.76366" lon="4.85198">
        <ele>167</ele>
        <time>2025-07-10T08:01:54.767000+02:00</time>
      </trkpt>
      <trkpt lat="45.76366" lon="4.85218">
        <ele>167</ele>
        <time>2025-07-10T08:01:56.766000+02:00</time>
      </trkpt>
      <trkpt lat="45.76366" lon="4.85228">
        <ele>167</ele>
        <time>2025-07-10T08:01:57.768000+02:00</time>
      </trkpt>
      <trkpt lat="45.76365" lon="4.85249">
        <ele>167</ele>
        <time>2025-07-10T08:01:59.766000+02:00</time>
      </trkpt>
      <trkpt lat="45.76365" lon="4.85268">
        <ele>167</ele>
        <time>2025-07-10T08:02:01.767000+02:00</time>
      </trkpt>
      <trkpt lat="45.76365" lon="4.85278">
        <ele>167</ele>
        <time>2025-07-10T08:02:02.767000+02:00</time>
      </trkpt>
      <trkpt lat="45.76365" lon="4.85288">
        <ele>167</ele>
        <time>2025-07-10T08:02:03.767000+02:00</time>
      </trkpt>
      <trkpt lat="45.76365" lon="4.85297">
        <ele>167</ele>
        <time>2025-07-10T08:02:04.767000+02:00</time>
      </trkpt>
      <trkpt lat="45.76365" lon="4.85316">
        <ele>167</ele>
        <time>2025-07-10T08:02:06.767000+02:00</time>
      </trkpt>
      <trkpt lat="45.76364" lon="4.85326">
        <ele>167.1</ele>
        <time>2025-07-10T08:02:07.767000+02:00</time>
      </trkpt>
      <trkpt lat="45.76364" lon="4.85345">
        <ele>167.1</ele>
        <time>2025-07-10T08:02:09.766000+02:00</time>
      </trkpt>
      <trkpt lat="45.76364" lon="4.85354">
        <ele>167.1</ele>
        <time>2025-07-10T08:02:10.767000+02:00</time>
      </trkpt>
      <trkpt lat="45.76364" lon="4.85364">
        <ele>167.2</ele>
        <time>2025-07-10T08:02:11.767000+02:00</time>
      </trkpt>
      <trkpt lat="45.76364" lon="4.85373">
        <ele>167.5</ele>
        <time>2025-07-10T08:02:12.767000+02:00</time>
      </trkpt>
      <trkpt lat="45.76364" lon="4.85382">
        <ele>167.8</ele>
        <time>2025-07-10T08:02:13.767000+02:00</time>
      </trkpt>
      <trkpt lat="45.76365" lon="4.85401">
        <ele>168</ele>
        <time>2025-07-10T08:02:15.768000+02:00</time>
      </trkpt>
      <trkpt lat="45.76365" lon="4.85419">
        <ele>168</ele>
        <time>2025-07-10T08:02:17.766000+02:00</time>
      </trkpt>
      <trkpt lat="45.76365" lon="4.85428">
        <ele>168</ele>
        <time>2025-07-10T08:02:18.767000+02:00</time>
      </trkpt>
      <trkpt lat="45.76365" lon="4.85446">
        <ele>168</ele>
        <time>2025-07-10T08:02:20.767000+02:00</time>
      </trkpt>
      <trkpt lat="45.76365" lon="4.85456">
        <ele>168</ele>
        <time>2025-07-10T08:02:21.767000+02:00</time>
      </trkpt>
      <trkpt lat="45.76365" lon="4.85465">
        <ele>168</ele>
        <time>2025-07-10T08:02:22.767000+02:00</time>
      </trkpt>
      <trkpt lat="45.76365" lon="4.85483">
        <ele>168</ele>
        <time>2025-07-10T08:02:24.766000+02:00</time>
      </trkpt>
      <trkpt lat="45.76365" lon="4.85492">
        <ele>168</ele>
        <time>2025-07-10T08:02:25.768000+02:00</time>
      </trkpt>
      <trkpt lat="45.76365" lon="4.85509">
        <ele>168</ele>
        <time>2025-07-10T08:02:27.767000+02:00</time>
      </trkpt>
      <trkpt lat="45.76365" lon="4.85513">
        <ele>168</ele>
        <time>2025-07-10T08:02:28.767000+02:00</time>
      </trkpt>
      <trkpt lat="45.76364" lon="4.8552">
        <ele>168</ele>
        <time>2025-07-10T08:02:30.766000+02:00</time>
      </trkpt>
      <trkpt lat="45.76364" lon="4.85524">
        <ele>168</ele>
        <time>2025-07-10T08:02:31.767000+02:00</time>
      </trkpt>
      <trkpt lat="45.76365" lon="4.85536">
        <ele>168</ele>
        <time>2025-07-10T08:02:33.766000+02:00</time>
      </trkpt>
      <trkpt lat="45.76365" lon="4.85545">
        <ele>167.9</ele>
        <time>2025-07-10T08:02:34.766000+02:00</time>
      </trkpt>
      <trkpt lat="45.76365" lon="4.85553">
        <ele>167.9</ele>
        <time>2025-07-10T08:02:35.767000+02:00</time>
      </trkpt>
      <trkpt lat="45.76365" lon="4.85573">
        <ele>168</ele>
        <time>2025-07-10T08:02:37.767000+02:00</time>
      </trkpt>
      <trkpt lat="45.76366" lon="4.85582">
        <ele>168.2</ele>
        <time>2025-07-10T08:02:38.767000+02:00</time>
      </trkpt>
      <trkpt lat="45.76366" lon="4.85591">
        <ele>168.1</ele>
        <time>2025-07-10T08:02:39.767000+02:00</time>
      </trkpt>
      <trkpt lat="45.76367" lon="4.856">
        <ele>168.1</ele>
        <time>2025-07-10T08:02:40.767000+02:00</time>
      </trkpt>
      <trkpt lat="45.76367" lon="4.85607">
        <ele>168</ele>
        <time>2025-07-10T08:02:41.768000+02:00</time>
      </trkpt>
      <trkpt lat="45.76367" lon="4.85616">
        <ele>168</ele>
        <time>2025-07-10T08:02:43.767000+02:00</time>
      </trkpt>
      <trkpt lat="45.76367" lon="4.85619">
        <ele>168</ele>
        <time>2025-07-10T08:02:44.767000+02:00</time>
      </trkpt>
      <trkpt lat="45.76366" lon="4.85624">
        <ele>168</ele>
        <time>2025-07-10T08:02:46.767000+02:00</time>
      </trkpt>
      <trkpt lat="45.76365" lon="4.85628">
        <ele>168</ele>
        <time>2025-07-10T08:02:47.767000+02:00</time>
      </trkpt>
      <trkpt lat="45.76364" lon="4.8564">
        <ele>168</ele>
        <time>2025-07-10T08:02:49.767000+02:00</time>
      </trkpt>
      <trkpt lat="45.76364" lon="4.85656">
        <ele>168</ele>
        <time>2025-07-10T08:02:51.767000+02:00</time>
      </trkpt>
      <trkpt lat="45.76364" lon="4.85666">
        <ele>168</ele>
        <time>2025-07-10T08:02:52.767000+02:00</time>
      </trkpt>
      <trkpt lat="45.76364" lon="4.85676">
        <ele>168</ele>
        <time>2025-07-10T08:02:53.767000+02:00</time>
      </trkpt>
      <trkpt lat="45.76364" lon="4.85695">
        <ele>168</ele>
        <time>2025-07-10T08:02:55.768000+02:00</time>
      </trkpt>
      <trkpt lat="45.76365" lon="4.85712">
        <ele>168.1</ele>
        <time>2025-07-10T08:02:57.766000+02:00</time>
      </trkpt>
      <trkpt lat="45.76365" lon="4.85717">
        <ele>168.1</ele>
        <time>2025-07-10T08:02:58.767000+02:00</time>
      </trkpt>
      <trkpt lat="45.76365" lon="4.85726">
        <ele>168.2</ele>
        <time>2025-07-10T08:03:00.767000+02:00</time>
      </trkpt>
      <trkpt lat="45.76364" lon="4.85735">
        <ele>168.5</ele>
        <time>2025-07-10T08:03:02.766000+02:00</time>
      </trkpt>
      <trkpt lat="45.76364" lon="4.8574">
        <ele>168.7</ele>
        <time>2025-07-10T08:03:03.766000+02:00</time>
      </trkpt>
      <trkpt lat="45.76363" lon="4.85747">
        <ele>168.9</ele>
        <time>2025-07-10T08:03:04.766000+02:00</time>
      </trkpt>
      <trkpt lat="45.76364" lon="4.85754">
        <ele>169</ele>
        <time>2025-07-10T08:03:05.766000+02:00</time>
      </trkpt>
      <trkpt lat="45.76364" lon="4.85762">
        <ele>169</ele>
        <time>2025-07-10T08:03:06.767000+02:00</time>
      </trkpt>
      <trkpt lat="45.76365" lon="4.85775">
        <ele>169</ele>
        <time>2025-07-10T08:03:08.768000+02:00</time>
      </trkpt>
      <trkpt lat="45.76365" lon="4.85782">
        <ele>169</ele>
        <time>2025-07-10T08:03:10.766000+02:00</time>
      </trkpt>
      <trkpt lat="45.76364" lon="4.85784">
        <ele>169</ele>
        <time>2025-07-10T08:03:11.766000+02:00</time>
      </trkpt>
      <trkpt lat="45.76364" lon="4.85786">
        <ele>169</ele>
        <time>2025-07-10T08:03:12.768000+02:00</time>
      </trkpt>
      <trkpt lat="45.76364" lon="4.85786">
        <ele>169</ele>
        <time>2025-07-10T08:03:14.765000+02:00</time>
      </trkpt>
      <trkpt lat="45.76364" lon="4.85787">
        <ele>169</ele>
        <time>2025-07-10T08:03:15.767000+02:00</time>
      </trkpt>
      <trkpt lat="45.76365" lon="4.85787">
        <ele>169</ele>
        <time>2025-07-10T08:03:17.766000+02:00</time>
      </trkpt>
      <trkpt lat="45.76365" lon="4.85789">
        <ele>169</ele>
        <time>2025-07-10T08:03:18.766000+02:00</time>
      </trkpt>
      <trkpt lat="45.76364" lon="4.85791">
        <ele>169</ele>
        <time>2025-07-10T08:03:19.766000+02:00</time>
      </trkpt>
      <trkpt lat="45.76363" lon="4.858">
        <ele>169</ele>
        <time>2025-07-10T08:03:21.767000+02:00</time>
      </trkpt>
      <trkpt lat="45.76363" lon="4.85806">
        <ele>169</ele>
        <time>2025-07-10T08:03:22.767000+02:00</time>
      </trkpt>
      <trkpt lat="45.76364" lon="4.85823">
        <ele>169</ele>
        <time>2025-07-10T08:03:24.765000+02:00</time>
      </trkpt>
      <trkpt lat="45.76365" lon="4.85832">
        <ele>169</ele>
        <time>2025-07-10T08:03:25.767000+02:00</time>
      </trkpt>
      <trkpt lat="45.76367" lon="4.85853">
        <ele>169</ele>
        <time>2025-07-10T08:03:27.765000+02:00</time>
      </trkpt>
      <trkpt lat="45.76367" lon="4.85862">
        <ele>169</ele>
        <time>2025-07-10T08:03:28.767000+02:00</time>
      </trkpt>
      <trkpt lat="45.76367" lon="4.85881">
        <ele>168.3</ele>
        <time>2025-07-10T08:03:30.767000+02:00</time>
      </trkpt>
      <trkpt lat="45.76367" lon="4.85891">
        <ele>168</ele>
        <time>2025-07-10T08:03:31.767000+02:00</time>
      </trkpt>
      <trkpt lat="45.76367" lon="4.859">
        <ele>168</ele>
        <time>2025-07-10T08:03:32.767000+02:00</time>
      </trkpt>
      <trkpt lat="45.76366" lon="4.85919">
        <ele>168</ele>
        <time>2025-07-10T08:03:34.767000+02:00</time>
      </trkpt>
      <trkpt lat="45.76366" lon="4.85928">
        <ele>168</ele>
        <time>2025-07-10T08:03:35.768000+02:00</time>
      </trkpt>
      <trkpt lat="45.76366" lon="4.85946">
        <ele>168</ele>
        <time>2025-07-10T08:03:37.767000+02:00</time>
      </trkpt>
      <trkpt lat="45.76367" lon="4.85965">
        <ele>168</ele>
        <time>2025-07-10T08:03:39.766000+02:00</time>
      </trkpt>
      <trkpt lat="45.76367" lon="4.85974">
        <ele>168</ele>
        <time>2025-07-10T08:03:40.767000+02:00</time>
      </trkpt>
      <trkpt lat="45.76368" lon="4.85984">
        <ele>168.2</ele>
        <time>2025-07-10T08:03:41.767000+02:00</time>
      </trkpt>
      <trkpt lat="45.76368" lon="4.86004">
        <ele>168.8</ele>
        <time>2025-07-10T08:03:43.767000+02:00</time>
      </trkpt>
      <trkpt lat="45.76369" lon="4.86024">
        <ele>170.5</ele>
        <time>2025-07-10T08:03:45.767000+02:00</time>
      </trkpt>
      <trkpt lat="45.7637" lon="4.86034">
        <ele>171.4</ele>
        <time>2025-07-10T08:03:46.767000+02:00</time>
      </trkpt>
      <trkpt lat="45.76376" lon="4.86129">
        <ele>168</ele>
        <time>2025-07-10T08:03:50.765000+02:00</time>
      </trkpt>
      <trkpt lat="45.76367" lon="4.86108">
        <ele>168.1</ele>
        <time>2025-07-10T08:03:51.766000+02:00</time>
      </trkpt>
      <trkpt lat="45.76365" lon="4.86109">
        <ele>168</ele>
        <time>2025-07-10T08:03:53.765000+02:00</time>
      </trkpt>
      <trkpt lat="45.76365" lon="4.86116">
        <ele>168</ele>
        <time>2025-07-10T08:03:54.766000+02:00</time>
      </trkpt>
      <trkpt lat="45.76364" lon="4.86124">
        <ele>168</ele>
        <time>2025-07-10T08:03:55.766000+02:00</time>
      </trkpt>
      <trkpt lat="45.76363" lon="4.8614">
        <ele>168</ele>
        <time>2025-07-10T08:03:57.766000+02:00</time>
      </trkpt>
      <trkpt lat="45.76363" lon="4.86148">
        <ele>168</ele>
        <time>2025-07-10T08:03:58.766000+02:00</time>
      </trkpt>
      <trkpt lat="45.76363" lon="4.86163">
        <ele>168</ele>
        <time>2025-07-10T08:04:00.766000+02:00</time>
      </trkpt>
      <trkpt lat="45.76363" lon="4.86169">
        <ele>168</ele>
        <time>2025-07-10T08:04:01.766000+02:00</time>
      </trkpt>
      <trkpt lat="45.76363" lon="4.86171">
        <ele>168</ele>
        <time>2025-07-10T08:04:02.767000+02:00</time>
      </trkpt>
      <trkpt lat="45.76363" lon="4.86173">
        <ele>168</ele>
        <time>2025-07-10T08:04:04.766000+02:00</time>
      </trkpt>
      <trkpt lat="45.76363" lon="4.86173">
        <ele>168</ele>
        <time>2025-07-10T08:04:05.767000+02:00</time>
      </trkpt>
      <trkpt lat="45.76362" lon="4.86173">
        <ele>168</ele>
        <time>2025-07-10T08:04:07.765000+02:00</time>
      </trkpt>
      <trkpt lat="45.76362" lon="4.86173">
        <ele>168</ele>
        <time>2025-07-10T08:04:08.766000+02:00</time>
      </trkpt>
      <trkpt lat="45.76362" lon="4.86173">
        <ele>168</ele>
        <time>2025-07-10T08:04:09.766000+02:00</time>
      </trkpt>
      <trkpt lat="45.76362" lon="4.86173">
        <ele>168</ele>
        <time>2025-07-10T08:04:10.766000+02:00</time>
      </trkpt>
      <trkpt lat="45.76362" lon="4.86173">
        <ele>168</ele>
        <time>2025-07-10T08:04:11.766000+02:00</time>
      </trkpt>
      <trkpt lat="45.76362" lon="4.86172">
        <ele>168</ele>
        <time>2025-07-10T08:04:12.766000+02:00</time>
      </trkpt>
      <trkpt lat="45.76362" lon="4.86172">
        <ele>168</ele>
        <time>2025-07-10T08:04:14.766000+02:00</time>
      </trkpt>
      <trkpt lat="45.76362" lon="4.86172">
        <ele>168</ele>
        <time>2025-07-10T08:04:15.767000+02:00</time>
      </trkpt>
      <trkpt lat="45.76362" lon="4.86173">
        <ele>168</ele>
        <time>2025-07-10T08:04:17.766000+02:00</time>
      </trkpt>
      <trkpt lat="45.76362" lon="4.86181">
        <ele>168</ele>
        <time>2025-07-10T08:04:19.767000+02:00</time>
      </trkpt>
      <trkpt lat="45.76364" lon="4.86194">
        <ele>168</ele>
        <time>2025-07-10T08:04:21.766000+02:00</time>
      </trkpt>
      <trkpt lat="45.76365" lon="4.86207">
        <ele>168</ele>
        <time>2025-07-10T08:04:23.766000+02:00</time>
      </trkpt>
      <trkpt lat="45.76366" lon="4.86224">
        <ele>168</ele>
        <time>2025-07-10T08:04:25.766000+02:00</time>
      </trkpt>
      <trkpt lat="45.76367" lon="4.8624">
        <ele>167.5</ele>
        <time>2025-07-10T08:04:27.766000+02:00</time>
      </trkpt>
      <trkpt lat="45.76367" lon="4.86258">
        <ele>167.4</ele>
        <time>2025-07-10T08:04:29.766000+02:00</time>
      </trkpt>
      <trkpt lat="45.76367" lon="4.86268">
        <ele>167.6</ele>
        <time>2025-07-10T08:04:30.766000+02:00</time>
      </trkpt>
      <trkpt lat="45.76367" lon="4.86287">
        <ele>167.8</ele>
        <time>2025-07-10T08:04:32.765000+02:00</time>
      </trkpt>
      <trkpt lat="45.76367" lon="4.86296">
        <ele>167.9</ele>
        <time>2025-07-10T08:04:33.766000+02:00</time>
      </trkpt>
      <trkpt lat="45.76367" lon="4.86305">
        <ele>168</ele>
        <time>2025-07-10T08:04:34.766000+02:00</time>
      </trkpt>
      <trkpt lat="45.76367" lon="4.86324">
        <ele>168.1</ele>
        <time>2025-07-10T08:04:36.765000+02:00</time>
      </trkpt>
      <trkpt lat="45.76367" lon="4.86333">
        <ele>168.2</ele>
        <time>2025-07-10T08:04:37.766000+02:00</time>
      </trkpt>
      <trkpt lat="45.76368" lon="4.86343">
        <ele>168.2</ele>
        <time>2025-07-10T08:04:38.766000+02:00</time>
      </trkpt>
      <trkpt lat="45.76368" lon="4.86352">
        <ele>168.1</ele>
        <time>2025-07-10T08:04:39.766000+02:00</time>
      </trkpt>
      <trkpt lat="45.76368" lon="4.86362">
        <ele>168</ele>
        <time>2025-07-10T08:04:40.766000+02:00</time>
      </trkpt>
      <trkpt lat="45.76368" lon="4.86371">
        <ele>167.9</ele>
        <time>2025-07-10T08:04:41.766000+02:00</time>
      </trkpt>
      <trkpt lat="45.76369" lon="4.86381">
        <ele>167.8</ele>
        <time>2025-07-10T08:04:42.766000+02:00</time>
      </trkpt>
      <trkpt lat="45.76369" lon="4.8639">
        <ele>167.7</ele>
        <time>2025-07-10T08:04:43.766000+02:00</time>
      </trkpt>
      <trkpt lat="45.76369" lon="4.864">
        <ele>167.8</ele>
        <time>2025-07-10T08:04:44.766000+02:00</time>
      </trkpt>
      <trkpt lat="45.7637" lon="4.8642">
        <ele>168</ele>
        <time>2025-07-10T08:04:46.766000+02:00</time>
      </trkpt>
      <trkpt lat="45.7637" lon="4.86439">
        <ele>168</ele>
        <time>2025-07-10T08:04:48.766000+02:00</time>
      </trkpt>
      <trkpt lat="45.76371" lon="4.86449">
        <ele>168</ele>
        <time>2025-07-10T08:04:49.766000+02:00</time>
      </trkpt>
      <trkpt lat="45.7637" lon="4.86459">
        <ele>168</ele>
        <time>2025-07-10T08:04:50.766000+02:00</time>
      </trkpt>
      <trkpt lat="45.7637" lon="4.86478">
        <ele>168</ele>
        <time>2025-07-10T08:04:52.765000+02:00</time>
      </trkpt>
      <trkpt lat="45.7637" lon="4.86488">
        <ele>168</ele>
        <time>2025-07-10T08:04:53.766000+02:00</time>
      </trkpt>
      <trkpt lat="45.7637" lon="4.86498">
        <ele>168</ele>
        <time>2025-07-10T08:04:54.766000+02:00</time>
      </trkpt>
      <trkpt lat="45.76371" lon="4.86516">
        <ele>168</ele>
        <time>2025-07-10T08:04:56.765000+02:00</time>
      </trkpt>
      <trkpt lat="45.76371" lon="4.86525">
        <ele>168</ele>
        <time>2025-07-10T08:04:57.767000+02:00</time>
      </trkpt>
      <trkpt lat="45.76371" lon="4.86534">
        <ele>168</ele>
        <time>2025-07-10T08:04:58.767000+02:00</time>
      </trkpt>
      <trkpt lat="45.76371" lon="4.86552">
        <ele>168</ele>
        <time>2025-07-10T08:05:00.765000+02:00</time>
      </trkpt>
      <trkpt lat="45.76371" lon="4.86561">
        <ele>168</ele>
        <time>2025-07-10T08:05:01.766000+02:00</time>
      </trkpt>
      <trkpt lat="45.7637" lon="4.86578">
        <ele>168</ele>
        <time>2025-07-10T08:05:03.765000+02:00</time>
      </trkpt>
      <trkpt lat="45.7637" lon="4.86586">
        <ele>168.1</ele>
        <time>2025-07-10T08:05:04.766000+02:00</time>
      </trkpt>
      <trkpt lat="45.76371" lon="4.86604">
        <ele>168.5</ele>
        <time>2025-07-10T08:05:06.766000+02:00</time>
      </trkpt>
      <trkpt lat="45.76371" lon="4.86613">
        <ele>168.6</ele>
        <time>2025-07-10T08:05:07.766000+02:00</time>
      </trkpt>
      <trkpt lat="45.76371" lon="4.86623">
        <ele>168.4</ele>
        <time>2025-07-10T08:05:08.766000+02:00</time>
      </trkpt>
      <trkpt lat="45.76372" lon="4.86632">
        <ele>168.2</ele>
        <time>2025-07-10T08:05:09.767000+02:00</time>
      </trkpt>
      <trkpt lat="45.76371" lon="4.8665">
        <ele>168</ele>
        <time>2025-07-10T08:05:11.766000+02:00</time>
      </trkpt>
      <trkpt lat="45.76371" lon="4.86668">
        <ele>168</ele>
        <time>2025-07-10T08:05:13.766000+02:00</time>
      </trkpt>
      <trkpt lat="45.76371" lon="4.86684">
        <ele>167.6</ele>
        <time>2025-07-10T08:05:15.766000+02:00</time>
      </trkpt>
      <trkpt lat="45.7637" lon="4.86689">
        <ele>167.5</ele>
        <time>2025-07-10T08:05:16.766000+02:00</time>
      </trkpt>
      <trkpt lat="45.7637" lon="4.86696">
        <ele>167.3</ele>
        <time>2025-07-10T08:05:18.766000+02:00</time>
      </trkpt>
      <trkpt lat="45.76369" lon="4.86698">
        <ele>167.4</ele>
        <time>2025-07-10T08:05:19.767000+02:00</time>
      </trkpt>
      <trkpt lat="45.76369" lon="4.86707">
        <ele>167.6</ele>
        <time>2025-07-10T08:05:21.766000+02:00</time>
      </trkpt>
      <trkpt lat="45.7637" lon="4.86713">
        <ele>167.8</ele>
        <time>2025-07-10T08:05:22.766000+02:00</time>
      </trkpt>
      <trkpt lat="45.7637" lon="4.86721">
        <ele>168</ele>
        <time>2025-07-10T08:05:23.766000+02:00</time>
      </trkpt>
      <trkpt lat="45.7637" lon="4.86738">
        <ele>168</ele>
        <time>2025-07-10T08:05:25.765000+02:00</time>
      </trkpt>
      <trkpt lat="45.7637" lon="4.86748">
        <ele>168</ele>
        <time>2025-07-10T08:05:26.766000+02:00</time>
      </trkpt>
      <trkpt lat="45.7637" lon="4.86767">
        <ele>168</ele>
        <time>2025-07-10T08:05:28.766000+02:00</time>
      </trkpt>
      <trkpt lat="45.7637" lon="4.86776">
        <ele>168</ele>
        <time>2025-07-10T08:05:29.767000+02:00</time>
      </trkpt>
      <trkpt lat="45.7637" lon="4.86794">
        <ele>168</ele>
        <time>2025-07-10T08:05:31.766000+02:00</time>
      </trkpt>
      <trkpt lat="45.76371" lon="4.86803">
        <ele>168</ele>
        <time>2025-07-10T08:05:32.767000+02:00</time>
      </trkpt>
      <trkpt lat="45.76371" lon="4.86822">
        <ele>168.2</ele>
        <time>2025-07-10T08:05:34.765000+02:00</time>
      </trkpt>
      <trkpt lat="45.76372" lon="4.86831">
        <ele>168.4</ele>
        <time>2025-07-10T08:05:35.767000+02:00</time>
      </trkpt>
      <trkpt lat="45.76373" lon="4.86848">
        <ele>167.9</ele>
        <time>2025-07-10T08:05:37.766000+02:00</time>
      </trkpt>
      <trkpt lat="45.76372" lon="4.86859">
        <ele>167.5</ele>
        <time>2025-07-10T08:05:39.766000+02:00</time>
      </trkpt>
      <trkpt lat="45.76372" lon="4.86863">
        <ele>167.4</ele>
        <time>2025-07-10T08:05:41.766000+02:00</time>
      </trkpt>
      <trkpt lat="45.76371" lon="4.86864">
        <ele>167.4</ele>
        <time>2025-07-10T08:05:42.766000+02:00</time>
      </trkpt>
      <trkpt lat="45.76371" lon="4.86865">
        <ele>167.5</ele>
        <time>2025-07-10T08:05:43.766000+02:00</time>
      </trkpt>
      <trkpt lat="45.76371" lon="4.86867">
        <ele>167.5</ele>
        <time>2025-07-10T08:05:45.766000+02:00</time>
      </trkpt>
      <trkpt lat="45.76371" lon="4.86871">
        <ele>167.6</ele>
        <time>2025-07-10T08:05:46.766000+02:00</time>
      </trkpt>
      <trkpt lat="45.76371" lon="4.86878">
        <ele>167.7</ele>
        <time>2025-07-10T08:05:47.766000+02:00</time>
      </trkpt>
      <trkpt lat="45.76371" lon="4.86885">
        <ele>167.9</ele>
        <time>2025-07-10T08:05:48.766000+02:00</time>
      </trkpt>
      <trkpt lat="45.76372" lon="4.86903">
        <ele>168.2</ele>
        <time>2025-07-10T08:05:50.765000+02:00</time>
      </trkpt>
      <trkpt lat="45.76372" lon="4.86913">
        <ele>168.3</ele>
        <time>2025-07-10T08:05:51.767000+02:00</time>
      </trkpt>
      <trkpt lat="45.76373" lon="4.86923">
        <ele>168.3</ele>
        <time>2025-07-10T08:05:52.767000+02:00</time>
      </trkpt>
      <trkpt lat="45.76373" lon="4.86942">
        <ele>168</ele>
        <time>2025-07-10T08:05:54.766000+02:00</time>
      </trkpt>
      <trkpt lat="45.76373" lon="4.86952">
        <ele>168.1</ele>
        <time>2025-07-10T08:05:55.766000+02:00</time>
      </trkpt>
      <trkpt lat="45.76373" lon="4.86968">
        <ele>168.4</ele>
        <time>2025-07-10T08:05:57.766000+02:00</time>
      </trkpt>
      <trkpt lat="45.76372" lon="4.86974">
        <ele>168.4</ele>
        <time>2025-07-10T08:05:58.766000+02:00</time>
      </trkpt>
      <trkpt lat="45.76372" lon="4.8699">
        <ele>168.1</ele>
        <time>2025-07-10T08:06:00.765000+02:00</time>
      </trkpt>
      <trkpt lat="45.76373" lon="4.86999">
        <ele>168</ele>
        <time>2025-07-10T08:06:01.766000+02:00</time>
      </trkpt>
      <trkpt lat="45.76373" lon="4.87009">
        <ele>168</ele>
        <time>2025-07-10T08:06:02.766000+02:00</time>
      </trkpt>
      <trkpt lat="45.76373" lon="4.87019">
        <ele>168</ele>
        <time>2025-07-10T08:06:03.766000+02:00</time>
      </trkpt>
      <trkpt lat="45.76374" lon="4.87039">
        <ele>168</ele>
        <time>2025-07-10T08:06:05.766000+02:00</time>
      </trkpt>
      <trkpt lat="45.76374" lon="4.87048">
        <ele>168</ele>
        <time>2025-07-10T08:06:06.766000+02:00</time>
      </trkpt>
      <trkpt lat="45.76374" lon="4.87057">
        <ele>168</ele>
        <time>2025-07-10T08:06:07.766000+02:00</time>
      </trkpt>
      <trkpt lat="45.76373" lon="4.87066">
        <ele>168</ele>
        <time>2025-07-10T08:06:08.767000+02:00</time>
      </trkpt>
      <trkpt lat="45.76373" lon="4.87075">
        <ele>168</ele>
        <time>2025-07-10T08:06:09.767000+02:00</time>
      </trkpt>
      <trkpt lat="45.76373" lon="4.87094">
        <ele>168.2</ele>
        <time>2025-07-10T08:06:11.765000+02:00</time>
      </trkpt>
      <trkpt lat="45.76374" lon="4.87104">
        <ele>168.3</ele>
        <time>2025-07-10T08:06:12.765000+02:00</time>
      </trkpt>
      <trkpt lat="45.76375" lon="4.87113">
        <ele>168.5</ele>
        <time>2025-07-10T08:06:13.765000+02:00</time>
      </trkpt>
      <trkpt lat="45.76375" lon="4.87122">
        <ele>168.3</ele>
        <time>2025-07-10T08:06:14.765000+02:00</time>
      </trkpt>
      <trkpt lat="45.76375" lon="4.8713">
        <ele>168.2</ele>
        <time>2025-07-10T08:06:15.765000+02:00</time>
      </trkpt>
      <trkpt lat="45.76374" lon="4.87137">
        <ele>168</ele>
        <time>2025-07-10T08:06:16.765000+02:00</time>
      </trkpt>
      <trkpt lat="45.76374" lon="4.87142">
        <ele>168</ele>
        <time>2025-07-10T08:06:17.765000+02:00</time>
      </trkpt>
      <trkpt lat="45.76374" lon="4.87148">
        <ele>168</ele>
        <time>2025-07-10T08:06:18.765000+02:00</time>
      </trkpt>
      <trkpt lat="45.76374" lon="4.87154">
        <ele>168</ele>
        <time>2025-07-10T08:06:19.766000+02:00</time>
      </trkpt>
      <trkpt lat="45.76374" lon="4.87167">
        <ele>168</ele>
        <time>2025-07-10T08:06:21.767000+02:00</time>
      </trkpt>
      <trkpt lat="45.76374" lon="4.87179">
        <ele>168.2</ele>
        <time>2025-07-10T08:06:23.765000+02:00</time>
      </trkpt>
      <trkpt lat="45.76373" lon="4.87185">
        <ele>168.3</ele>
        <time>2025-07-10T08:06:24.766000+02:00</time>
      </trkpt>
      <trkpt lat="45.76373" lon="4.87191">
        <ele>168.4</ele>
        <time>2025-07-10T08:06:25.766000+02:00</time>
      </trkpt>
      <trkpt lat="45.76373" lon="4.87196">
        <ele>168.4</ele>
        <time>2025-07-10T08:06:26.767000+02:00</time>
      </trkpt>
      <trkpt lat="45.76373" lon="4.87208">
        <ele>168.4</ele>
        <time>2025-07-10T08:06:28.765000+02:00</time>
      </trkpt>
      <trkpt lat="45.76373" lon="4.87214">
        <ele>168.4</ele>
        <time>2025-07-10T08:06:29.765000+02:00</time>
      </trkpt>
      <trkpt lat="45.76373" lon="4.87221">
        <ele>168.4</ele>
        <time>2025-07-10T08:06:30.767000+02:00</time>
      </trkpt>
      <trkpt lat="45.76372" lon="4.87236">
        <ele>168.2</ele>
        <time>2025-07-10T08:06:32.765000+02:00</time>
      </trkpt>
      <trkpt lat="45.76371" lon="4.87244">
        <ele>168.1</ele>
        <time>2025-07-10T08:06:33.766000+02:00</time>
      </trkpt>
      <trkpt lat="45.76372" lon="4.87261">
        <ele>168.2</ele>
        <time>2025-07-10T08:06:35.766000+02:00</time>
      </trkpt>
      <trkpt lat="45.76372" lon="4.87271">
        <ele>168.3</ele>
        <time>2025-07-10T08:06:36.766000+02:00</time>
      </trkpt>
      <trkpt lat="45.76372" lon="4.87282">
        <ele>168.4</ele>
        <time>2025-07-10T08:06:37.766000+02:00</time>
      </trkpt>
      <trkpt lat="45.76371" lon="4.87293">
        <ele>168.5</ele>
        <time>2025-07-10T08:06:38.766000+02:00</time>
      </trkpt>
      <trkpt lat="45.76371" lon="4.87303">
        <ele>168.6</ele>
        <time>2025-07-10T08:06:39.766000+02:00</time>
      </trkpt>
      <trkpt lat="45.76371" lon="4.87323">
        <ele>168.2</ele>
        <time>2025-07-10T08:06:41.766000+02:00</time>
      </trkpt>
      <trkpt lat="45.76371" lon="4.87338">
        <ele>168</ele>
        <time>2025-07-10T08:06:43.766000+02:00</time>
      </trkpt>
      <trkpt lat="45.76371" lon="4.87346">
        <ele>168</ele>
        <time>2025-07-10T08:06:44.766000+02:00</time>
      </trkpt>
      <trkpt lat="45.76371" lon="4.87362">
        <ele>168</ele>
        <time>2025-07-10T08:06:46.765000+02:00</time>
      </trkpt>
      <trkpt lat="45.76371" lon="4.8737">
        <ele>168</ele>
        <time>2025-07-10T08:06:47.766000+02:00</time>
      </trkpt>
      <trkpt lat="45.76371" lon="4.87375">
        <ele>168</ele>
        <time>2025-07-10T08:06:48.766000+02:00</time>
      </trkpt>
      <trkpt lat="45.76371" lon="4.87381">
        <ele>168</ele>
        <time>2025-07-10T08:06:50.766000+02:00</time>
      </trkpt>
      <trkpt lat="45.7637" lon="4.87384">
        <ele>168</ele>
        <time>2025-07-10T08:06:52.765000+02:00</time>
      </trkpt>
      <trkpt lat="45.7637" lon="4.87384">
        <ele>168</ele>
        <time>2025-07-10T08:06:53.766000+02:00</time>
      </trkpt>
      <trkpt lat="45.7637" lon="4.87384">
        <ele>168</ele>
        <time>2025-07-10T08:06:54.766000+02:00</time>
      </trkpt>
      <trkpt lat="45.7637" lon="4.87383">
        <ele>168</ele>
        <time>2025-07-10T08:06:56.765000+02:00</time>
      </trkpt>
      <trkpt lat="45.7637" lon="4.87383">
        <ele>168</ele>
        <time>2025-07-10T08:06:57.765000+02:00</time>
      </trkpt>
      <trkpt lat="45.7637" lon="4.87383">
        <ele>168</ele>
        <time>2025-07-10T08:06:59.765000+02:00</time>
      </trkpt>
      <trkpt lat="45.7637" lon="4.87383">
        <ele>168</ele>
        <time>2025-07-10T08:07:00.765000+02:00</time>
      </trkpt>
      <trkpt lat="45.7637" lon="4.87383">
        <ele>168</ele>
        <time>2025-07-10T08:07:02.764000+02:00</time>
      </trkpt>
      <trkpt lat="45.7637" lon="4.87383">
        <ele>168</ele>
        <time>2025-07-10T08:07:03.764000+02:00</time>
      </trkpt>
      <trkpt lat="45.7637" lon="4.87384">
        <ele>168</ele>
        <time>2025-07-10T08:07:04.765000+02:00</time>
      </trkpt>
      <trkpt lat="45.7637" lon="4.87386">
        <ele>168</ele>
        <time>2025-07-10T08:07:05.765000+02:00</time>
      </trkpt>
      <trkpt lat="45.76367" lon="4.87396">
        <ele>168</ele>
        <time>2025-07-10T08:07:07.766000+02:00</time>
      </trkpt>
      <trkpt lat="45.76366" lon="4.87409">
        <ele>168</ele>
        <time>2025-07-10T08:07:09.766000+02:00</time>
      </trkpt>
      <trkpt lat="45.76366" lon="4.87415">
        <ele>168</ele>
        <time>2025-07-10T08:07:10.766000+02:00</time>
      </trkpt>
      <trkpt lat="45.76368" lon="4.87419">
        <ele>168</ele>
        <time>2025-07-10T08:07:11.766000+02:00</time>
      </trkpt>
      <trkpt lat="45.76374" lon="4.87426">
        <ele>168</ele>
        <time>2025-07-10T08:07:13.764000+02:00</time>
      </trkpt>
      <trkpt lat="45.76379" lon="4.87429">
        <ele>168</ele>
        <time>2025-07-10T08:07:14.766000+02:00</time>
      </trkpt>
      <trkpt lat="45.76383" lon="4.87433">
        <ele>168</ele>
        <time>2025-07-10T08:07:15.766000+02:00</time>
      </trkpt>
      <trkpt lat="45.76385" lon="4.87441">
        <ele>168</ele>
        <time>2025-07-10T08:07:16.767000+02:00</time>
      </trkpt>
      <trkpt lat="45.76388" lon="4.87458">
        <ele>168</ele>
        <time>2025-07-10T08:07:18.767000+02:00</time>
      </trkpt>
      <trkpt lat="45.76391" lon="4.87477">
        <ele>168</ele>
        <time>2025-07-10T08:07:20.765000+02:00</time>
      </trkpt>
      <trkpt lat="45.76392" lon="4.87486">
        <ele>167.9</ele>
        <time>2025-07-10T08:07:21.766000+02:00</time>
      </trkpt>
      <trkpt lat="45.76394" lon="4.87495">
        <ele>168</ele>
        <time>2025-07-10T08:07:22.766000+02:00</time>
      </trkpt>
      <trkpt lat="45.76395" lon="4.87503">
        <ele>168</ele>
        <time>2025-07-10T08:07:23.766000+02:00</time>
      </trkpt>
      <trkpt lat="45.76397" lon="4.87512">
        <ele>168</ele>
        <time>2025-07-10T08:07:24.766000+02:00</time>
      </trkpt>
      <trkpt lat="45.764" lon="4.87531">
        <ele>168</ele>
        <time>2025-07-10T08:07:26.765000+02:00</time>
      </trkpt>
      <trkpt lat="45.76402" lon="4.8754">
        <ele>168</ele>
        <time>2025-07-10T08:07:27.766000+02:00</time>
      </trkpt>
      <trkpt lat="45.76404" lon="4.87549">
        <ele>168</ele>
        <time>2025-07-10T08:07:28.766000+02:00</time>
      </trkpt>
      <trkpt lat="45.76405" lon="4.87558">
        <ele>168</ele>
        <time>2025-07-10T08:07:29.767000+02:00</time>
      </trkpt>
      <trkpt lat="45.76408" lon="4.87575">
        <ele>168.5</ele>
        <time>2025-07-10T08:07:31.765000+02:00</time>
      </trkpt>
      <trkpt lat="45.7641" lon="4.87584">
        <ele>168.7</ele>
        <time>2025-07-10T08:07:32.765000+02:00</time>
      </trkpt>
      <trkpt lat="45.76411" lon="4.87593">
        <ele>168.5</ele>
        <time>2025-07-10T08:07:33.766000+02:00</time>
      </trkpt>
      <trkpt lat="45.76414" lon="4.87611">
        <ele>168</ele>
        <time>2025-07-10T08:07:35.765000+02:00</time>
      </trkpt>
      <trkpt lat="45.76415" lon="4.8762">
        <ele>168</ele>
        <time>2025-07-10T08:07:36.765000+02:00</time>
      </trkpt>
      <trkpt lat="45.76417" lon="4.8763">
        <ele>168</ele>
        <time>2025-07-10T08:07:37.765000+02:00</time>
      </trkpt>
      <trkpt lat="45.76418" lon="4.87639">
        <ele>168.1</ele>
        <time>2025-07-10T08:07:38.765000+02:00</time>
      </trkpt>
      <trkpt lat="45.7642" lon="4.87648">
        <ele>168.1</ele>
        <time>2025-07-10T08:07:39.766000+02:00</time>
      </trkpt>
      <trkpt lat="45.76421" lon="4.87656">
        <ele>168.1</ele>
        <time>2025-07-10T08:07:40.766000+02:00</time>
      </trkpt>
      <trkpt lat="45.76423" lon="4.87665">
        <ele>168</ele>
        <time>2025-07-10T08:07:41.767000+02:00</time>
      </trkpt>
      <trkpt lat="45.76426" lon="4.87683">
        <ele>168.2</ele>
        <time>2025-07-10T08:07:43.767000+02:00</time>
      </trkpt>
      <trkpt lat="45.76429" lon="4.87702">
        <ele>168.4</ele>
        <time>2025-07-10T08:07:45.765000+02:00</time>
      </trkpt>
      <trkpt lat="45.76431" lon="4.8771">
        <ele>168.5</ele>
        <time>2025-07-10T08:07:46.765000+02:00</time>
      </trkpt>
      <trkpt lat="45.76433" lon="4.87719">
        <ele>168.6</ele>
        <time>2025-07-10T08:07:47.766000+02:00</time>
      </trkpt>
      <trkpt lat="45.76435" lon="4.87729">
        <ele>168.5</ele>
        <time>2025-07-10T08:07:48.766000+02:00</time>
      </trkpt>
      <trkpt lat="45.76438" lon="4.87748">
        <ele>168</ele>
        <time>2025-07-10T08:07:50.765000+02:00</time>
      </trkpt>
      <trkpt lat="45.76439" lon="4.87758">
        <ele>168.1</ele>
        <time>2025-07-10T08:07:51.765000+02:00</time>
      </trkpt>
      <trkpt lat="45.76441" lon="4.87768">
        <ele>168.1</ele>
        <time>2025-07-10T08:07:52.765000+02:00</time>
      </trkpt>
      <trkpt lat="45.76442" lon="4.87778">
        <ele>168.1</ele>
        <time>2025-07-10T08:07:53.765000+02:00</time>
      </trkpt>
      <trkpt lat="45.76443" lon="4.87787">
        <ele>168</ele>
        <time>2025-07-10T08:07:54.765000+02:00</time>
      </trkpt>
      <trkpt lat="45.76445" lon="4.87797">
        <ele>168</ele>
        <time>2025-07-10T08:07:55.766000+02:00</time>
      </trkpt>
      <trkpt lat="45.76447" lon="4.87815">
        <ele>168.1</ele>
        <time>2025-07-10T08:07:57.765000+02:00</time>
      </trkpt>
      <trkpt lat="45.76449" lon="4.87824">
        <ele>168.2</ele>
        <time>2025-07-10T08:07:58.766000+02:00</time>
      </trkpt>
      <trkpt lat="45.76452" lon="4.87842">
        <ele>168.3</ele>
        <time>2025-07-10T08:08:00.766000+02:00</time>
      </trkpt>
      <trkpt lat="45.76454" lon="4.8786">
        <ele>168.3</ele>
        <time>2025-07-10T08:08:02.766000+02:00</time>
      </trkpt>
      <trkpt lat="45.76455" lon="4.8787">
        <ele>168.3</ele>
        <time>2025-07-10T08:08:03.766000+02:00</time>
      </trkpt>
      <trkpt lat="45.76456" lon="4.87879">
        <ele>168.2</ele>
        <time>2025-07-10T08:08:04.766000+02:00</time>
      </trkpt>
      <trkpt lat="45.76459" lon="4.87897">
        <ele>168</ele>
        <time>2025-07-10T08:08:06.766000+02:00</time>
      </trkpt>
      <trkpt lat="45.76462" lon="4.87916">
        <ele>168</ele>
        <time>2025-07-10T08:08:08.766000+02:00</time>
      </trkpt>
      <trkpt lat="45.76464" lon="4.87934">
        <ele>168</ele>
        <time>2025-07-10T08:08:10.765000+02:00</time>
      </trkpt>
      <trkpt lat="45.76465" lon="4.87943">
        <ele>168</ele>
        <time>2025-07-10T08:08:11.766000+02:00</time>
      </trkpt>
      <trkpt lat="45.76466" lon="4.87952">
        <ele>168</ele>
        <time>2025-07-10T08:08:12.766000+02:00</time>
      </trkpt>
      <trkpt lat="45.76467" lon="4.87961">
        <ele>168</ele>
        <time>2025-07-10T08:08:13.766000+02:00</time>
      </trkpt>
      <trkpt lat="45.76468" lon="4.8797">
        <ele>168</ele>
        <time>2025-07-10T08:08:14.766000+02:00</time>
      </trkpt>
      <trkpt lat="45.76469" lon="4.87978">
        <ele>168</ele>
        <time>2025-07-10T08:08:15.766000+02:00</time>
      </trkpt>
      <trkpt lat="45.7647" lon="4.87985">
        <ele>168</ele>
        <time>2025-07-10T08:08:16.766000+02:00</time>
      </trkpt>
      <trkpt lat="45.7647" lon="4.87991">
        <ele>168</ele>
        <time>2025-07-10T08:08:17.766000+02:00</time>
      </trkpt>
      <trkpt lat="45.76471" lon="4.87995">
        <ele>168</ele>
        <time>2025-07-10T08:08:18.766000+02:00</time>
      </trkpt>
      <trkpt lat="45.76471" lon="4.87997">
        <ele>168</ele>
        <time>2025-07-10T08:08:19.766000+02:00</time>
      </trkpt>
      <trkpt lat="45.76471" lon="4.87999">
        <ele>168</ele>
        <time>2025-07-10T08:08:20.766000+02:00</time>
      </trkpt>
      <trkpt lat="45.76472" lon="4.88002">
        <ele>168</ele>
        <time>2025-07-10T08:08:21.766000+02:00</time>
      </trkpt>
      <trkpt lat="45.76472" lon="4.88007">
        <ele>168</ele>
        <time>2025-07-10T08:08:23.765000+02:00</time>
      </trkpt>
      <trkpt lat="45.76473" lon="4.88009">
        <ele>168</ele>
        <time>2025-07-10T08:08:24.765000+02:00</time>
      </trkpt>
      <trkpt lat="45.76473" lon="4.88012">
        <ele>168</ele>
        <time>2025-07-10T08:08:25.766000+02:00</time>
      </trkpt>
      <trkpt lat="45.76473" lon="4.88016">
        <ele>168</ele>
        <time>2025-07-10T08:08:27.765000+02:00</time>
      </trkpt>
      <trkpt lat="45.76473" lon="4.88018">
        <ele>168</ele>
        <time>2025-07-10T08:08:28.766000+02:00</time>
      </trkpt>
      <trkpt lat="45.76473" lon="4.88021">
        <ele>168</ele>
        <time>2025-07-10T08:08:30.766000+02:00</time>
      </trkpt>
      <trkpt lat="45.76473" lon="4.88022">
        <ele>168</ele>
        <time>2025-07-10T08:08:31.766000+02:00</time>
      </trkpt>
      <trkpt lat="45.76473" lon="4.88024">
        <ele>168</ele>
        <time>2025-07-10T08:08:32.766000+02:00</time>
      </trkpt>
      <trkpt lat="45.76474" lon="4.88025">
        <ele>168</ele>
        <time>2025-07-10T08:08:34.766000+02:00</time>
      </trkpt>
      <trkpt lat="45.76474" lon="4.88024">
        <ele>168</ele>
        <time>2025-07-10T08:08:36.766000+02:00</time>
      </trkpt>
      <trkpt lat="45.76474" lon="4.88026">
        <ele>168</ele>
        <time>2025-07-10T08:08:37.766000+02:00</time>
      </trkpt>
      <trkpt lat="45.76475" lon="4.88028">
        <ele>168</ele>
        <time>2025-07-10T08:08:38.766000+02:00</time>
      </trkpt>
      <trkpt lat="45.76475" lon="4.8803">
        <ele>168</ele>
        <time>2025-07-10T08:08:39.766000+02:00</time>
      </trkpt>
      <trkpt lat="45.76479" lon="4.88037">
        <ele>168.1</ele>
        <time>2025-07-10T08:08:41.765000+02:00</time>
      </trkpt>
      <trkpt lat="45.7648" lon="4.88042">
        <ele>168.1</ele>
        <time>2025-07-10T08:08:42.766000+02:00</time>
      </trkpt>
      <trkpt lat="45.76481" lon="4.88047">
        <ele>168.2</ele>
        <time>2025-07-10T08:08:43.766000+02:00</time>
      </trkpt>
      <trkpt lat="45.76481" lon="4.88053">
        <ele>168.3</ele>
        <time>2025-07-10T08:08:44.766000+02:00</time>
      </trkpt>
      <trkpt lat="45.76481" lon="4.88068">
        <ele>168.3</ele>
        <time>2025-07-10T08:08:46.766000+02:00</time>
      </trkpt>
      <trkpt lat="45.76478" lon="4.8808">
        <ele>168.2</ele>
        <time>2025-07-10T08:08:48.766000+02:00</time>
      </trkpt>
      <trkpt lat="45.76477" lon="4.88086">
        <ele>168.3</ele>
        <time>2025-07-10T08:08:49.766000+02:00</time>
      </trkpt>
      <trkpt lat="45.76476" lon="4.88095">
        <ele>168.5</ele>
        <time>2025-07-10T08:08:50.766000+02:00</time>
      </trkpt>
      <trkpt lat="45.76477" lon="4.88112">
        <ele>169</ele>
        <time>2025-07-10T08:08:52.766000+02:00</time>
      </trkpt>
      <trkpt lat="45.76477" lon="4.88127">
        <ele>169</ele>
        <time>2025-07-10T08:08:54.766000+02:00</time>
      </trkpt>
      <trkpt lat="45.76477" lon="4.88143">
        <ele>169</ele>
        <time>2025-07-10T08:08:56.765000+02:00</time>
      </trkpt>
      <trkpt lat="45.76477" lon="4.88152">
        <ele>169</ele>
        <time>2025-07-10T08:08:57.766000+02:00</time>
      </trkpt>
      <trkpt lat="45.76477" lon="4.88163">
        <ele>169</ele>
        <time>2025-07-10T08:08:58.766000+02:00</time>
      </trkpt>
      <trkpt lat="45.76477" lon="4.88173">
        <ele>169</ele>
        <time>2025-07-10T08:08:59.767000+02:00</time>
      </trkpt>
      <trkpt lat="45.76476" lon="4.88194">
        <ele>168.9</ele>
        <time>2025-07-10T08:09:01.766000+02:00</time>
      </trkpt>
      <trkpt lat="45.76475" lon="4.88215">
        <ele>169</ele>
        <time>2025-07-10T08:09:03.765000+02:00</time>
      </trkpt>
      <trkpt lat="45.76475" lon="4.88226">
        <ele>169</ele>
        <time>2025-07-10T08:09:04.765000+02:00</time>
      </trkpt>
      <trkpt lat="45.76475" lon="4.88237">
        <ele>169</ele>
        <time>2025-07-10T08:09:05.765000+02:00</time>
      </trkpt>
      <trkpt lat="45.76474" lon="4.88247">
        <ele>169.1</ele>
        <time>2025-07-10T08:09:06.766000+02:00</time>
      </trkpt>
      <trkpt lat="45.76474" lon="4.88258">
        <ele>169.1</ele>
        <time>2025-07-10T08:09:07.766000+02:00</time>
      </trkpt>
      <trkpt lat="45.76474" lon="4.88269">
        <ele>169.1</ele>
        <time>2025-07-10T08:09:08.766000+02:00</time>
      </trkpt>
      <trkpt lat="45.76474" lon="4.8828">
        <ele>169.1</ele>
        <time>2025-07-10T08:09:09.766000+02:00</time>
      </trkpt>
      <trkpt lat="45.76474" lon="4.883">
        <ele>169</ele>
        <time>2025-07-10T08:09:11.765000+02:00</time>
      </trkpt>
      <trkpt lat="45.76473" lon="4.8831">
        <ele>169</ele>
        <time>2025-07-10T08:09:12.766000+02:00</time>
      </trkpt>
      <trkpt lat="45.76473" lon="4.8832">
        <ele>169</ele>
        <time>2025-07-10T08:09:13.766000+02:00</time>
      </trkpt>
      <trkpt lat="45.76473" lon="4.8834">
        <ele>169</ele>
        <time>2025-07-10T08:09:15.766000+02:00</time>
      </trkpt>
      <trkpt lat="45.76472" lon="4.8835">
        <ele>169</ele>
        <time>2025-07-10T08:09:16.766000+02:00</time>
      </trkpt>
      <trkpt lat="45.76472" lon="4.88361">
        <ele>169</ele>
        <time>2025-07-10T08:09:17.766000+02:00</time>
      </trkpt>
      <trkpt lat="45.76472" lon="4.88371">
        <ele>169</ele>
        <time>2025-07-10T08:09:18.766000+02:00</time>
      </trkpt>
      <trkpt lat="45.76472" lon="4.88391">
        <ele>169</ele>
        <time>2025-07-10T08:09:20.765000+02:00</time>
      </trkpt>
      <trkpt lat="45.76471" lon="4.88401">
        <ele>169</ele>
        <time>2025-07-10T08:09:21.765000+02:00</time>
      </trkpt>
      <trkpt lat="45.76471" lon="4.8841">
        <ele>169</ele>
        <time>2025-07-10T08:09:22.765000+02:00</time>
      </trkpt>
      <trkpt lat="45.76471" lon="4.88415">
        <ele>169</ele>
        <time>2025-07-10T08:09:23.765000+02:00</time>
      </trkpt>
      <trkpt lat="45.76471" lon="4.8842">
        <ele>168.9</ele>
        <time>2025-07-10T08:09:24.765000+02:00</time>
      </trkpt>
      <trkpt lat="45.76471" lon="4.88426">
        <ele>168.7</ele>
        <time>2025-07-10T08:09:26.764000+02:00</time>
      </trkpt>
      <trkpt lat="45.76471" lon="4.88428">
        <ele>168.6</ele>
        <time>2025-07-10T08:09:27.765000+02:00</time>
      </trkpt>
      <trkpt lat="45.7647" lon="4.88431">
        <ele>168.5</ele>
        <time>2025-07-10T08:09:29.764000+02:00</time>
      </trkpt>
      <trkpt lat="45.7647" lon="4.88432">
        <ele>168.5</ele>
        <time>2025-07-10T08:09:30.764000+02:00</time>
      </trkpt>
      <trkpt lat="45.7647" lon="4.88433">
        <ele>168.4</ele>
        <time>2025-07-10T08:09:31.764000+02:00</time>
      </trkpt>
      <trkpt lat="45.7647" lon="4.88434">
        <ele>168.4</ele>
        <time>2025-07-10T08:09:32.765000+02:00</time>
      </trkpt>
      <trkpt lat="45.7647" lon="4.88436">
        <ele>168.4</ele>
        <time>2025-07-10T08:09:34.765000+02:00</time>
      </trkpt>
      <trkpt lat="45.7647" lon="4.88436">
        <ele>168.4</ele>
        <time>2025-07-10T08:09:35.765000+02:00</time>
      </trkpt>
      <trkpt lat="45.7647" lon="4.88436">
        <ele>168.4</ele>
        <time>2025-07-10T08:09:37.764000+02:00</time>
      </trkpt>
      <trkpt lat="45.76469" lon="4.88436">
        <ele>168.4</ele>
        <time>2025-07-10T08:09:38.764000+02:00</time>
      </trkpt>
      <trkpt lat="45.76469" lon="4.88436">
        <ele>168.4</ele>
        <time>2025-07-10T08:09:39.764000+02:00</time>
      </trkpt>
      <trkpt lat="45.76469" lon="4.88436">
        <ele>168.4</ele>
        <time>2025-07-10T08:09:40.765000+02:00</time>
      </trkpt>
      <trkpt lat="45.7647" lon="4.88436">
        <ele>168.4</ele>
        <time>2025-07-10T08:09:42.765000+02:00</time>
      </trkpt>
      <trkpt lat="45.7647" lon="4.88436">
        <ele>168.4</ele>
        <time>2025-07-10T08:09:43.766000+02:00</time>
      </trkpt>
      <trkpt lat="45.7647" lon="4.88436">
        <ele>168.4</ele>
        <time>2025-07-10T08:09:45.765000+02:00</time>
      </trkpt>
      <trkpt lat="45.7647" lon="4.88436">
        <ele>168.4</ele>
        <time>2025-07-10T08:09:46.765000+02:00</time>
      </trkpt>
      <trkpt lat="45.7647" lon="4.88436">
        <ele>168.4</ele>
        <time>2025-07-10T08:09:47.765000+02:00</time>
      </trkpt>
      <trkpt lat="45.7647" lon="4.88436">
        <ele>168.4</ele>
        <time>2025-07-10T08:09:50.765000+02:00</time>
      </trkpt>
      <trkpt lat="45.7647" lon="4.88436">
        <ele>168.4</ele>
        <time>2025-07-10T08:09:52.764000+02:00</time>
      </trkpt>
      <trkpt lat="45.7647" lon="4.88438">
        <ele>168.3</ele>
        <time>2025-07-10T08:09:53.765000+02:00</time>
      </trkpt>
      <trkpt lat="45.7647" lon="4.88441">
        <ele>168.2</ele>
        <time>2025-07-10T08:09:54.765000+02:00</time>
      </trkpt>
      <trkpt lat="45.7647" lon="4.88446">
        <ele>168.1</ele>
        <time>2025-07-10T08:09:55.765000+02:00</time>
      </trkpt>
      <trkpt lat="45.7647" lon="4.88453">
        <ele>168.1</ele>
        <time>2025-07-10T08:09:56.765000+02:00</time>
      </trkpt>
      <trkpt lat="45.7647" lon="4.88468">
        <ele>168.1</ele>
        <time>2025-07-10T08:09:58.766000+02:00</time>
      </trkpt>
      <trkpt lat="45.7647" lon="4.88487">
        <ele>168.1</ele>
        <time>2025-07-10T08:10:00.766000+02:00</time>
      </trkpt>
      <trkpt lat="45.7647" lon="4.88497">
        <ele>168.1</ele>
        <time>2025-07-10T08:10:01.766000+02:00</time>
      </trkpt>
      <trkpt lat="45.7647" lon="4.88515">
        <ele>168.1</ele>
        <time>2025-07-10T08:10:03.765000+02:00</time>
      </trkpt>
      <trkpt lat="45.7647" lon="4.88525">
        <ele>168.1</ele>
        <time>2025-07-10T08:10:04.766000+02:00</time>
      </trkpt>
      <trkpt lat="45.7647" lon="4.88534">
        <ele>168.1</ele>
        <time>2025-07-10T08:10:05.766000+02:00</time>
      </trkpt>
      <trkpt lat="45.7647" lon="4.88553">
        <ele>168.1</ele>
        <time>2025-07-10T08:10:07.765000+02:00</time>
      </trkpt>
      <trkpt lat="45.7647" lon="4.88572">
        <ele>168.6</ele>
        <time>2025-07-10T08:10:09.766000+02:00</time>
      </trkpt>
      <trkpt lat="45.7647" lon="4.8859">
        <ele>169</ele>
        <time>2025-07-10T08:10:11.765000+02:00</time>
      </trkpt>
      <trkpt lat="45.7647" lon="4.88599">
        <ele>169</ele>
        <time>2025-07-10T08:10:12.765000+02:00</time>
      </trkpt>
      <trkpt lat="45.7647" lon="4.88608">
        <ele>169</ele>
        <time>2025-07-10T08:10:13.765000+02:00</time>
      </trkpt>
      <trkpt lat="45.7647" lon="4.88618">
        <ele>169</ele>
        <time>2025-07-10T08:10:14.766000+02:00</time>
      </trkpt>
      <trkpt lat="45.7647" lon="4.88636">
        <ele>169</ele>
        <time>2025-07-10T08:10:16.764000+02:00</time>
      </trkpt>
      <trkpt lat="45.76469" lon="4.88646">
        <ele>169</ele>
        <time>2025-07-10T08:10:17.765000+02:00</time>
      </trkpt>
      <trkpt lat="45.76469" lon="4.88655">
        <ele>169</ele>
        <time>2025-07-10T08:10:18.766000+02:00</time>
      </trkpt>
      <trkpt lat="45.76469" lon="4.88672">
        <ele>169</ele>
        <time>2025-07-10T08:10:20.765000+02:00</time>
      </trkpt>
      <trkpt lat="45.76469" lon="4.88677">
        <ele>169</ele>
        <time>2025-07-10T08:10:21.765000+02:00</time>
      </trkpt>
      <trkpt lat="45.76469" lon="4.8868">
        <ele>169</ele>
        <time>2025-07-10T08:10:22.765000+02:00</time>
      </trkpt>
      <trkpt lat="45.76471" lon="4.88685">
        <ele>169</ele>
        <time>2025-07-10T08:10:23.765000+02:00</time>
      </trkpt>
      <trkpt lat="45.76472" lon="4.88691">
        <ele>169</ele>
        <time>2025-07-10T08:10:24.766000+02:00</time>
      </trkpt>
      <trkpt lat="45.76471" lon="4.88698">
        <ele>169</ele>
        <time>2025-07-10T08:10:25.766000+02:00</time>
      </trkpt>
      <trkpt lat="45.7647" lon="4.88716">
        <ele>169</ele>
        <time>2025-07-10T08:10:27.765000+02:00</time>
      </trkpt>
      <trkpt lat="45.76468" lon="4.88734">
        <ele>169.1</ele>
        <time>2025-07-10T08:10:29.765000+02:00</time>
      </trkpt>
      <trkpt lat="45.76468" lon="4.88752">
        <ele>169.2</ele>
        <time>2025-07-10T08:10:31.766000+02:00</time>
      </trkpt>
      <trkpt lat="45.76467" lon="4.8877">
        <ele>169.2</ele>
        <time>2025-07-10T08:10:33.766000+02:00</time>
      </trkpt>
      <trkpt lat="45.76466" lon="4.88789">
        <ele>169.1</ele>
        <time>2025-07-10T08:10:35.765000+02:00</time>
      </trkpt>
      <trkpt lat="45.76464" lon="4.88808">
        <ele>168.9</ele>
        <time>2025-07-10T08:10:37.764000+02:00</time>
      </trkpt>
      <trkpt lat="45.76464" lon="4.88817">
        <ele>168.7</ele>
        <time>2025-07-10T08:10:38.765000+02:00</time>
      </trkpt>
      <trkpt lat="45.76463" lon="4.88826">
        <ele>168.5</ele>
        <time>2025-07-10T08:10:39.765000+02:00</time>
      </trkpt>
      <trkpt lat="45.76463" lon="4.88835">
        <ele>168.4</ele>
        <time>2025-07-10T08:10:40.765000+02:00</time>
      </trkpt>
      <trkpt lat="45.7646" lon="4.88854">
        <ele>168.9</ele>
        <time>2025-07-10T08:10:42.765000+02:00</time>
      </trkpt>
      <trkpt lat="45.76459" lon="4.88863">
        <ele>169</ele>
        <time>2025-07-10T08:10:43.765000+02:00</time>
      </trkpt>
      <trkpt lat="45.76459" lon="4.88872">
        <ele>169</ele>
        <time>2025-07-10T08:10:44.765000+02:00</time>
      </trkpt>
      <trkpt lat="45.76458" lon="4.88882">
        <ele>169</ele>
        <time>2025-07-10T08:10:45.765000+02:00</time>
      </trkpt>
      <trkpt lat="45.76458" lon="4.88891">
        <ele>169</ele>
        <time>2025-07-10T08:10:46.765000+02:00</time>
      </trkpt>
      <trkpt lat="45.76457" lon="4.889">
        <ele>169</ele>
        <time>2025-07-10T08:10:47.765000+02:00</time>
      </trkpt>
      <trkpt lat="45.76457" lon="4.88919">
        <ele>169</ele>
        <time>2025-07-10T08:10:49.764000+02:00</time>
      </trkpt>
      <trkpt lat="45.76456" lon="4.88929">
        <ele>169</ele>
        <time>2025-07-10T08:10:50.764000+02:00</time>
      </trkpt>
      <trkpt lat="45.76456" lon="4.88938">
        <ele>169</ele>
        <time>2025-07-10T08:10:51.765000+02:00</time>
      </trkpt>
      <trkpt lat="45.76457" lon="4.88947">
        <ele>169</ele>
        <time>2025-07-10T08:10:52.766000+02:00</time>
      </trkpt>
      <trkpt lat="45.76457" lon="4.88966">
        <ele>169</ele>
        <time>2025-07-10T08:10:54.765000+02:00</time>
      </trkpt>
      <trkpt lat="45.76458" lon="4.88985">
        <ele>169.2</ele>
        <time>2025-07-10T08:10:56.764000+02:00</time>
      </trkpt>
      <trkpt lat="45.76458" lon="4.88995">
        <ele>169.4</ele>
        <time>2025-07-10T08:10:57.765000+02:00</time>
      </trkpt>
      <trkpt lat="45.76458" lon="4.89014">
        <ele>169.5</ele>
        <time>2025-07-10T08:10:59.766000+02:00</time>
      </trkpt>
      <trkpt lat="45.76458" lon="4.89032">
        <ele>169.4</ele>
        <time>2025-07-10T08:11:01.764000+02:00</time>
      </trkpt>
      <trkpt lat="45.76458" lon="4.89041">
        <ele>169.3</ele>
        <time>2025-07-10T08:11:02.765000+02:00</time>
      </trkpt>
      <trkpt lat="45.76459" lon="4.89059">
        <ele>169</ele>
        <time>2025-07-10T08:11:04.766000+02:00</time>
      </trkpt>
      <trkpt lat="45.76459" lon="4.89078">
        <ele>169</ele>
        <time>2025-07-10T08:11:06.764000+02:00</time>
      </trkpt>
      <trkpt lat="45.76459" lon="4.89087">
        <ele>169</ele>
        <time>2025-07-10T08:11:07.766000+02:00</time>
      </trkpt>
      <trkpt lat="45.7646" lon="4.89106">
        <ele>169</ele>
        <time>2025-07-10T08:11:09.765000+02:00</time>
      </trkpt>
      <trkpt lat="45.7646" lon="4.89125">
        <ele>169</ele>
        <time>2025-07-10T08:11:11.765000+02:00</time>
      </trkpt>
      <trkpt lat="45.7646" lon="4.89134">
        <ele>169</ele>
        <time>2025-07-10T08:11:12.765000+02:00</time>
      </trkpt>
      <trkpt lat="45.7646" lon="4.89143">
        <ele>169</ele>
        <time>2025-07-10T08:11:13.765000+02:00</time>
      </trkpt>
      <trkpt lat="45.7646" lon="4.89162">
        <ele>169</ele>
        <time>2025-07-10T08:11:15.766000+02:00</time>
      </trkpt>
      <trkpt lat="45.76461" lon="4.89181">
        <ele>169</ele>
        <time>2025-07-10T08:11:17.765000+02:00</time>
      </trkpt>
      <trkpt lat="45.76461" lon="4.89191">
        <ele>169</ele>
        <time>2025-07-10T08:11:18.766000+02:00</time>
      </trkpt>
      <trkpt lat="45.76461" lon="4.89209">
        <ele>169</ele>
        <time>2025-07-10T08:11:20.765000+02:00</time>
      </trkpt>
      <trkpt lat="45.76461" lon="4.89218">
        <ele>169</ele>
        <time>2025-07-10T08:11:21.765000+02:00</time>
      </trkpt>
      <trkpt lat="45.76461" lon="4.89237">
        <ele>169</ele>
        <time>2025-07-10T08:11:23.764000+02:00</time>
      </trkpt>
      <trkpt lat="45.76462" lon="4.89246">
        <ele>169</ele>
        <time>2025-07-10T08:11:24.764000+02:00</time>
      </trkpt>
      <trkpt lat="45.76463" lon="4.89255">
        <ele>169</ele>
        <time>2025-07-10T08:11:25.765000+02:00</time>
      </trkpt>
      <trkpt lat="45.76464" lon="4.89274">
        <ele>169</ele>
        <time>2025-07-10T08:11:27.764000+02:00</time>
      </trkpt>
      <trkpt lat="45.76465" lon="4.89283">
        <ele>169</ele>
        <time>2025-07-10T08:11:28.764000+02:00</time>
      </trkpt>
      <trkpt lat="45.76467" lon="4.89292">
        <ele>169</ele>
        <time>2025-07-10T08:11:29.766000+02:00</time>
      </trkpt>
      <trkpt lat="45.76471" lon="4.89309">
        <ele>169</ele>
        <time>2025-07-10T08:11:31.764000+02:00</time>
      </trkpt>
      <trkpt lat="45.76474" lon="4.89318">
        <ele>169</ele>
        <time>2025-07-10T08:11:32.765000+02:00</time>
      </trkpt>
      <trkpt lat="45.76476" lon="4.89327">
        <ele>169</ele>
        <time>2025-07-10T08:11:33.765000+02:00</time>
      </trkpt>
      <trkpt lat="45.76477" lon="4.89336">
        <ele>169</ele>
        <time>2025-07-10T08:11:34.765000+02:00</time>
      </trkpt>
      <trkpt lat="45.76481" lon="4.89354">
        <ele>169</ele>
        <time>2025-07-10T08:11:36.764000+02:00</time>
      </trkpt>
      <trkpt lat="45.76482" lon="4.89362">
        <ele>169</ele>
        <time>2025-07-10T08:11:37.764000+02:00</time>
      </trkpt>
      <trkpt lat="45.76484" lon="4.89371">
        <ele>169.1</ele>
        <time>2025-07-10T08:11:38.764000+02:00</time>
      </trkpt>
      <trkpt lat="45.76486" lon="4.89379">
        <ele>169.3</ele>
        <time>2025-07-10T08:11:39.765000+02:00</time>
      </trkpt>
      <trkpt lat="45.76488" lon="4.89386">
        <ele>169.5</ele>
        <time>2025-07-10T08:11:40.766000+02:00</time>
      </trkpt>
      <trkpt lat="45.76493" lon="4.89404">
        <ele>169.9</ele>
        <time>2025-07-10T08:11:42.764000+02:00</time>
      </trkpt>
      <trkpt lat="45.76494" lon="4.89413">
        <ele>170</ele>
        <time>2025-07-10T08:11:43.764000+02:00</time>
      </trkpt>
      <trkpt lat="45.76494" lon="4.89422">
        <ele>169.8</ele>
        <time>2025-07-10T08:11:44.765000+02:00</time>
      </trkpt>
      <trkpt lat="45.76495" lon="4.89431">
        <ele>169.6</ele>
        <time>2025-07-10T08:11:45.765000+02:00</time>
      </trkpt>
      <trkpt lat="45.765" lon="4.89449">
        <ele>169</ele>
        <time>2025-07-10T08:11:47.765000+02:00</time>
      </trkpt>
      <trkpt lat="45.76501" lon="4.89458">
        <ele>169</ele>
        <time>2025-07-10T08:11:48.765000+02:00</time>
      </trkpt>
      <trkpt lat="45.76503" lon="4.89467">
        <ele>169</ele>
        <time>2025-07-10T08:11:49.765000+02:00</time>
      </trkpt>
      <trkpt lat="45.76507" lon="4.89485">
        <ele>169</ele>
        <time>2025-07-10T08:11:51.764000+02:00</time>
      </trkpt>
      <trkpt lat="45.76511" lon="4.89503">
        <ele>169</ele>
        <time>2025-07-10T08:11:53.765000+02:00</time>
      </trkpt>
      <trkpt lat="45.76512" lon="4.89512">
        <ele>169.2</ele>
        <time>2025-07-10T08:11:54.765000+02:00</time>
      </trkpt>
      <trkpt lat="45.76514" lon="4.89522">
        <ele>169.4</ele>
        <time>2025-07-10T08:11:55.765000+02:00</time>
      </trkpt>
      <trkpt lat="45.76515" lon="4.8953">
        <ele>169.5</ele>
        <time>2025-07-10T08:11:56.765000+02:00</time>
      </trkpt>
      <trkpt lat="45.76515" lon="4.8954">
        <ele>169.3</ele>
        <time>2025-07-10T08:11:57.766000+02:00</time>
      </trkpt>
      <trkpt lat="45.76519" lon="4.89558">
        <ele>169</ele>
        <time>2025-07-10T08:11:59.765000+02:00</time>
      </trkpt>
      <trkpt lat="45.76523" lon="4.89575">
        <ele>169</ele>
        <time>2025-07-10T08:12:01.765000+02:00</time>
      </trkpt>
      <trkpt lat="45.76525" lon="4.89584">
        <ele>169</ele>
        <time>2025-07-10T08:12:02.765000+02:00</time>
      </trkpt>
      <trkpt lat="45.7653" lon="4.896">
        <ele>169.1</ele>
        <time>2025-07-10T08:12:04.765000+02:00</time>
      </trkpt>
      <trkpt lat="45.76532" lon="4.89608">
        <ele>169.2</ele>
        <time>2025-07-10T08:12:05.765000+02:00</time>
      </trkpt>
      <trkpt lat="45.76537" lon="4.89621">
        <ele>169.6</ele>
        <time>2025-07-10T08:12:07.766000+02:00</time>
      </trkpt>
      <trkpt lat="45.76541" lon="4.89629">
        <ele>169.8</ele>
        <time>2025-07-10T08:12:09.765000+02:00</time>
      </trkpt>
      <trkpt lat="45.76542" lon="4.89635">
        <ele>169.9</ele>
        <time>2025-07-10T08:12:10.765000+02:00</time>
      </trkpt>
      <trkpt lat="45.76547" lon="4.89646">
        <ele>169.8</ele>
        <time>2025-07-10T08:12:12.764000+02:00</time>
      </trkpt>
      <trkpt lat="45.76549" lon="4.89649">
        <ele>169.7</ele>
        <time>2025-07-10T08:12:13.766000+02:00</time>
      </trkpt>
      <trkpt lat="45.76552" lon="4.89651">
        <ele>169.6</ele>
        <time>2025-07-10T08:12:15.765000+02:00</time>
      </trkpt>
      <trkpt lat="45.76552" lon="4.89654">
        <ele>169.5</ele>
        <time>2025-07-10T08:12:16.765000+02:00</time>
      </trkpt>
      <trkpt lat="45.76555" lon="4.89661">
        <ele>169.2</ele>
        <time>2025-07-10T08:12:18.765000+02:00</time>
      </trkpt>
      <trkpt lat="45.76557" lon="4.89666">
        <ele>169.1</ele>
        <time>2025-07-10T08:12:19.765000+02:00</time>
      </trkpt>
      <trkpt lat="45.7656" lon="4.89673">
        <ele>169.3</ele>
        <time>2025-07-10T08:12:20.765000+02:00</time>
      </trkpt>
      <trkpt lat="45.76563" lon="4.89679">
        <ele>169.6</ele>
        <time>2025-07-10T08:12:21.765000+02:00</time>
      </trkpt>
      <trkpt lat="45.76565" lon="4.89685">
        <ele>169.8</ele>
        <time>2025-07-10T08:12:22.766000+02:00</time>
      </trkpt>
      <trkpt lat="45.7657" lon="4.89695">
        <ele>170</ele>
        <time>2025-07-10T08:12:24.766000+02:00</time>
      </trkpt>
      <trkpt lat="45.76573" lon="4.89699">
        <ele>170</ele>
        <time>2025-07-10T08:12:26.765000+02:00</time>
      </trkpt>
      <trkpt lat="45.76575" lon="4.897">
        <ele>170</ele>
        <time>2025-07-10T08:12:27.765000+02:00</time>
      </trkpt>
      <trkpt lat="45.76577" lon="4.89701">
        <ele>170</ele>
        <time>2025-07-10T08:12:29.765000+02:00</time>
      </trkpt>
      <trkpt lat="45.76579" lon="4.89704">
        <ele>170</ele>
        <time>2025-07-10T08:12:30.765000+02:00</time>
      </trkpt>
      <trkpt lat="45.76582" lon="4.8971">
        <ele>170</ele>
        <time>2025-07-10T08:12:31.765000+02:00</time>
      </trkpt>
      <trkpt lat="45.76584" lon="4.89716">
        <ele>170</ele>
        <time>2025-07-10T08:12:32.765000+02:00</time>
      </trkpt>
      <trkpt lat="45.7659" lon="4.89731">
        <ele>170.2</ele>
        <time>2025-07-10T08:12:34.766000+02:00</time>
      </trkpt>
      <trkpt lat="45.76597" lon="4.89745">
        <ele>170.5</ele>
        <time>2025-07-10T08:12:36.763000+02:00</time>
      </trkpt>
      <trkpt lat="45.766" lon="4.89752">
        <ele>170.6</ele>
        <time>2025-07-10T08:12:37.764000+02:00</time>
      </trkpt>
      <trkpt lat="45.76603" lon="4.89759">
        <ele>170.5</ele>
        <time>2025-07-10T08:12:38.764000+02:00</time>
      </trkpt>
      <trkpt lat="45.76606" lon="4.89765">
        <ele>170.4</ele>
        <time>2025-07-10T08:12:39.765000+02:00</time>
      </trkpt>
      <trkpt lat="45.76607" lon="4.89769">
        <ele>170.3</ele>
        <time>2025-07-10T08:12:41.764000+02:00</time>
      </trkpt>
      <trkpt lat="45.76606" lon="4.8977">
        <ele>170.2</ele>
        <time>2025-07-10T08:12:42.766000+02:00</time>
      </trkpt>
      <trkpt lat="45.76604" lon="4.89773">
        <ele>170.1</ele>
        <time>2025-07-10T08:12:44.765000+02:00</time>
      </trkpt>
      <trkpt lat="45.76605" lon="4.89776">
        <ele>170.1</ele>
        <time>2025-07-10T08:12:45.766000+02:00</time>
      </trkpt>
      <trkpt lat="45.76605" lon="4.89777">
        <ele>170</ele>
        <time>2025-07-10T08:12:46.766000+02:00</time>
      </trkpt>
      <trkpt lat="45.76606" lon="4.89779">
        <ele>170</ele>
        <time>2025-07-10T08:12:48.764000+02:00</time>
      </trkpt>
      <trkpt lat="45.76607" lon="4.89781">
        <ele>170</ele>
        <time>2025-07-10T08:12:49.764000+02:00</time>
      </trkpt>
      <trkpt lat="45.7661" lon="4.89789">
        <ele>170</ele>
        <time>2025-07-10T08:12:51.764000+02:00</time>
      </trkpt>
      <trkpt lat="45.76611" lon="4.89794">
        <ele>170</ele>
        <time>2025-07-10T08:12:52.765000+02:00</time>
      </trkpt>
      <trkpt lat="45.76611" lon="4.898">
        <ele>170</ele>
        <time>2025-07-10T08:12:53.765000+02:00</time>
      </trkpt>
      <trkpt lat="45.76607" lon="4.89815">
        <ele>170</ele>
        <time>2025-07-10T08:12:55.765000+02:00</time>
      </trkpt>
      <trkpt lat="45.76603" lon="4.89834">
        <ele>170</ele>
        <time>2025-07-10T08:12:57.764000+02:00</time>
      </trkpt>
      <trkpt lat="45.76601" lon="4.89843">
        <ele>170</ele>
        <time>2025-07-10T08:12:58.764000+02:00</time>
      </trkpt>
      <trkpt lat="45.766" lon="4.89853">
        <ele>170</ele>
        <time>2025-07-10T08:12:59.765000+02:00</time>
      </trkpt>
      <trkpt lat="45.76598" lon="4.89862">
        <ele>170</ele>
        <time>2025-07-10T08:13:00.765000+02:00</time>
      </trkpt>
      <trkpt lat="45.76596" lon="4.89872">
        <ele>170.4</ele>
        <time>2025-07-10T08:13:02.765000+02:00</time>
      </trkpt>
      <trkpt lat="45.76595" lon="4.89875">
        <ele>170.5</ele>
        <time>2025-07-10T08:13:04.764000+02:00</time>
      </trkpt>
      <trkpt lat="45.76595" lon="4.89878">
        <ele>170.6</ele>
        <time>2025-07-10T08:13:06.764000+02:00</time>
      </trkpt>
      <trkpt lat="45.76595" lon="4.89879">
        <ele>170.6</ele>
        <time>2025-07-10T08:13:07.765000+02:00</time>
      </trkpt>
      <trkpt lat="45.76594" lon="4.8988">
        <ele>170.7</ele>
        <time>2025-07-10T08:13:09.765000+02:00</time>
      </trkpt>
      <trkpt lat="45.76594" lon="4.8988">
        <ele>170.7</ele>
        <time>2025-07-10T08:13:10.765000+02:00</time>
      </trkpt>
      <trkpt lat="45.76594" lon="4.8988">
        <ele>170.7</ele>
        <time>2025-07-10T08:13:11.765000+02:00</time>
      </trkpt>
      <trkpt lat="45.76595" lon="4.8988">
        <ele>170.7</ele>
        <time>2025-07-10T08:13:13.764000+02:00</time>
      </trkpt>
      <trkpt lat="45.76595" lon="4.8988">
        <ele>170.7</ele>
        <time>2025-07-10T08:13:14.765000+02:00</time>
      </trkpt>
      <trkpt lat="45.76595" lon="4.89879">
        <ele>170.7</ele>
        <time>2025-07-10T08:13:15.765000+02:00</time>
      </trkpt>
      <trkpt lat="45.76595" lon="4.8988">
        <ele>170.7</ele>
        <time>2025-07-10T08:13:16.765000+02:00</time>
      </trkpt>
      <trkpt lat="45.76595" lon="4.89882">
        <ele>170.7</ele>
        <time>2025-07-10T08:13:17.765000+02:00</time>
      </trkpt>
      <trkpt lat="45.76594" lon="4.89888">
        <ele>171</ele>
        <time>2025-07-10T08:13:19.764000+02:00</time>
      </trkpt>
      <trkpt lat="45.76593" lon="4.89894">
        <ele>171</ele>
        <time>2025-07-10T08:13:20.764000+02:00</time>
      </trkpt>
      <trkpt lat="45.76592" lon="4.899">
        <ele>171</ele>
        <time>2025-07-10T08:13:21.765000+02:00</time>
      </trkpt>
      <trkpt lat="45.76591" lon="4.89906">
        <ele>171</ele>
        <time>2025-07-10T08:13:22.765000+02:00</time>
      </trkpt>
      <trkpt lat="45.76589" lon="4.89914">
        <ele>171</ele>
        <time>2025-07-10T08:13:23.765000+02:00</time>
      </trkpt>
      <trkpt lat="45.76586" lon="4.8993">
        <ele>171</ele>
        <time>2025-07-10T08:13:25.764000+02:00</time>
      </trkpt>
      <trkpt lat="45.76584" lon="4.89939">
        <ele>171</ele>
        <time>2025-07-10T08:13:26.765000+02:00</time>
      </trkpt>
      <trkpt lat="45.76581" lon="4.89956">
        <ele>171.4</ele>
        <time>2025-07-10T08:13:28.765000+02:00</time>
      </trkpt>
      <trkpt lat="45.76578" lon="4.89973">
        <ele>171.8</ele>
        <time>2025-07-10T08:13:30.765000+02:00</time>
      </trkpt>
      <trkpt lat="45.76574" lon="4.8999">
        <ele>171.9</ele>
        <time>2025-07-10T08:13:32.763000+02:00</time>
      </trkpt>
      <trkpt lat="45.76573" lon="4.89998">
        <ele>172</ele>
        <time>2025-07-10T08:13:33.764000+02:00</time>
      </trkpt>
      <trkpt lat="45.76569" lon="4.90014">
        <ele>172.5</ele>
        <time>2025-07-10T08:13:35.764000+02:00</time>
      </trkpt>
      <trkpt lat="45.76566" lon="4.90031">
        <ele>173.3</ele>
        <time>2025-07-10T08:13:37.764000+02:00</time>
      </trkpt>
      <trkpt lat="45.76565" lon="4.90039">
        <ele>173.7</ele>
        <time>2025-07-10T08:13:38.764000+02:00</time>
      </trkpt>
      <trkpt lat="45.76563" lon="4.90047">
        <ele>174.1</ele>
        <time>2025-07-10T08:13:39.764000+02:00</time>
      </trkpt>
      <trkpt lat="45.76562" lon="4.90055">
        <ele>174.5</ele>
        <time>2025-07-10T08:13:40.765000+02:00</time>
      </trkpt>
      <trkpt lat="45.7656" lon="4.9007">
        <ele>175.7</ele>
        <time>2025-07-10T08:13:42.765000+02:00</time>
      </trkpt>
      <trkpt lat="45.76559" lon="4.90074">
        <ele>176</ele>
        <time>2025-07-10T08:13:43.765000+02:00</time>
      </trkpt>
      <trkpt lat="45.76559" lon="4.90077">
        <ele>176.3</ele>
        <time>2025-07-10T08:13:45.765000+02:00</time>
      </trkpt>
      <trkpt lat="45.76558" lon="4.90079">
        <ele>176.4</ele>
        <time>2025-07-10T08:13:46.765000+02:00</time>
      </trkpt>
      <trkpt lat="45.76558" lon="4.90081">
        <ele>176.6</ele>
        <time>2025-07-10T08:13:47.765000+02:00</time>
      </trkpt>
      <trkpt lat="45.76557" lon="4.90088">
        <ele>176.9</ele>
        <time>2025-07-10T08:13:49.764000+02:00</time>
      </trkpt>
      <trkpt lat="45.76556" lon="4.90093">
        <ele>177</ele>
        <time>2025-07-10T08:13:51.765000+02:00</time>
      </trkpt>
      <trkpt lat="45.76555" lon="4.90098">
        <ele>177</ele>
        <time>2025-07-10T08:13:53.765000+02:00</time>
      </trkpt>
      <trkpt lat="45.76552" lon="4.90104">
        <ele>177</ele>
        <time>2025-07-10T08:13:55.764000+02:00</time>
      </trkpt>
      <trkpt lat="45.76548" lon="4.90104">
        <ele>177.1</ele>
        <time>2025-07-10T08:13:56.765000+02:00</time>
      </trkpt>
      <trkpt lat="45.76538" lon="4.90106">
        <ele>177.3</ele>
        <time>2025-07-10T08:13:58.765000+02:00</time>
      </trkpt>
      <trkpt lat="45.76526" lon="4.90109">
        <ele>177.8</ele>
        <time>2025-07-10T08:14:00.763000+02:00</time>
      </trkpt>
      <trkpt lat="45.7652" lon="4.90111">
        <ele>178.2</ele>
        <time>2025-07-10T08:14:01.766000+02:00</time>
      </trkpt>
      <trkpt lat="45.76507" lon="4.90112">
        <ele>178.8</ele>
        <time>2025-07-10T08:14:03.764000+02:00</time>
      </trkpt>
      <trkpt lat="45.76501" lon="4.90112">
        <ele>179</ele>
        <time>2025-07-10T08:14:04.764000+02:00</time>
      </trkpt>
      <trkpt lat="45.76495" lon="4.90112">
        <ele>179.2</ele>
        <time>2025-07-10T08:14:05.765000+02:00</time>
      </trkpt>
      <trkpt lat="45.76489" lon="4.90112">
        <ele>179.4</ele>
        <time>2025-07-10T08:14:06.765000+02:00</time>
      </trkpt>
      <trkpt lat="45.76484" lon="4.90112">
        <ele>179.6</ele>
        <time>2025-07-10T08:14:07.765000+02:00</time>
      </trkpt>
      <trkpt lat="45.76478" lon="4.9011">
        <ele>179.6</ele>
        <time>2025-07-10T08:14:09.765000+02:00</time>
      </trkpt>
      <trkpt lat="45.76476" lon="4.9011">
        <ele>179.6</ele>
        <time>2025-07-10T08:14:11.763000+02:00</time>
      </trkpt>
      <trkpt lat="45.76474" lon="4.9011">
        <ele>179.7</ele>
        <time>2025-07-10T08:14:12.763000+02:00</time>
      </trkpt>
      <trkpt lat="45.76472" lon="4.90109">
        <ele>179.6</ele>
        <time>2025-07-10T08:14:13.763000+02:00</time>
      </trkpt>
      <trkpt lat="45.76468" lon="4.90109">
        <ele>179.6</ele>
        <time>2025-07-10T08:14:14.765000+02:00</time>
      </trkpt>
      <trkpt lat="45.76464" lon="4.90108">
        <ele>179.5</ele>
        <time>2025-07-10T08:14:15.765000+02:00</time>
      </trkpt>
      <trkpt lat="45.76454" lon="4.90105">
        <ele>179.2</ele>
        <time>2025-07-10T08:14:17.765000+02:00</time>
      </trkpt>
      <trkpt lat="45.76442" lon="4.90101">
        <ele>179</ele>
        <time>2025-07-10T08:14:19.763000+02:00</time>
      </trkpt>
      <trkpt lat="45.76435" lon="4.90098">
        <ele>178.9</ele>
        <time>2025-07-10T08:14:20.764000+02:00</time>
      </trkpt>
      <trkpt lat="45.76423" lon="4.90091">
        <ele>179</ele>
        <time>2025-07-10T08:14:22.765000+02:00</time>
      </trkpt>
      <trkpt lat="45.7641" lon="4.90083">
        <ele>179.2</ele>
        <time>2025-07-10T08:14:24.766000+02:00</time>
      </trkpt>
      <trkpt lat="45.76398" lon="4.90075">
        <ele>178.8</ele>
        <time>2025-07-10T08:14:26.764000+02:00</time>
      </trkpt>
      <trkpt lat="45.76392" lon="4.90071">
        <ele>178.6</ele>
        <time>2025-07-10T08:14:27.765000+02:00</time>
      </trkpt>
      <trkpt lat="45.76379" lon="4.90063">
        <ele>178.3</ele>
        <time>2025-07-10T08:14:29.764000+02:00</time>
      </trkpt>
      <trkpt lat="45.76367" lon="4.90054">
        <ele>178.3</ele>
        <time>2025-07-10T08:14:31.764000+02:00</time>
      </trkpt>
      <trkpt lat="45.76361" lon="4.9005">
        <ele>178</ele>
        <time>2025-07-10T08:14:32.764000+02:00</time>
      </trkpt>
      <trkpt lat="45.76349" lon="4.90045">
        <ele>178</ele>
        <time>2025-07-10T08:14:34.764000+02:00</time>
      </trkpt>
      <trkpt lat="45.76343" lon="4.90041">
        <ele>178.1</ele>
        <time>2025-07-10T08:14:35.764000+02:00</time>
      </trkpt>
      <trkpt lat="45.76331" lon="4.90036">
        <ele>178.6</ele>
        <time>2025-07-10T08:14:37.763000+02:00</time>
      </trkpt>
      <trkpt lat="45.76325" lon="4.90033">
        <ele>178.6</ele>
        <time>2025-07-10T08:14:38.764000+02:00</time>
      </trkpt>
      <trkpt lat="45.76323" lon="4.90032">
        <ele>178.6</ele>
        <time>2025-07-10T08:14:39.764000+02:00</time>
      </trkpt>
      <trkpt lat="45.76321" lon="4.90032">
        <ele>178.7</ele>
        <time>2025-07-10T08:14:40.764000+02:00</time>
      </trkpt>
      <trkpt lat="45.76318" lon="4.90032">
        <ele>178.8</ele>
        <time>2025-07-10T08:14:41.765000+02:00</time>
      </trkpt>
      <trkpt lat="45.76309" lon="4.90034">
        <ele>179.1</ele>
        <time>2025-07-10T08:14:43.764000+02:00</time>
      </trkpt>
      <trkpt lat="45.76303" lon="4.90035">
        <ele>179.3</ele>
        <time>2025-07-10T08:14:44.764000+02:00</time>
      </trkpt>
      <trkpt lat="45.76297" lon="4.90035">
        <ele>179.5</ele>
        <time>2025-07-10T08:14:45.765000+02:00</time>
      </trkpt>
      <trkpt lat="45.76284" lon="4.90036">
        <ele>179.8</ele>
        <time>2025-07-10T08:14:47.766000+02:00</time>
      </trkpt>
      <trkpt lat="45.76271" lon="4.90036">
        <ele>180</ele>
        <time>2025-07-10T08:14:49.764000+02:00</time>
      </trkpt>
      <trkpt lat="45.76265" lon="4.90036">
        <ele>180</ele>
        <time>2025-07-10T08:14:50.764000+02:00</time>
      </trkpt>
      <trkpt lat="45.76252" lon="4.90037">
        <ele>180</ele>
        <time>2025-07-10T08:14:52.763000+02:00</time>
      </trkpt>
      <trkpt lat="45.76245" lon="4.90038">
        <ele>180</ele>
        <time>2025-07-10T08:14:53.764000+02:00</time>
      </trkpt>
      <trkpt lat="45.76232" lon="4.9004">
        <ele>180</ele>
        <time>2025-07-10T08:14:55.763000+02:00</time>
      </trkpt>
      <trkpt lat="45.76226" lon="4.90041">
        <ele>180</ele>
        <time>2025-07-10T08:14:56.763000+02:00</time>
      </trkpt>
      <trkpt lat="45.7622" lon="4.90042">
        <ele>180</ele>
        <time>2025-07-10T08:14:57.763000+02:00</time>
      </trkpt>
      <trkpt lat="45.76213" lon="4.90044">
        <ele>180</ele>
        <time>2025-07-10T08:14:58.764000+02:00</time>
      </trkpt>
      <trkpt lat="45.76207" lon="4.90045">
        <ele>180</ele>
        <time>2025-07-10T08:14:59.764000+02:00</time>
      </trkpt>
      <trkpt lat="45.76195" lon="4.90047">
        <ele>180</ele>
        <time>2025-07-10T08:15:01.763000+02:00</time>
      </trkpt>
      <trkpt lat="45.76188" lon="4.90048">
        <ele>180</ele>
        <time>2025-07-10T08:15:02.765000+02:00</time>
      </trkpt>
      <trkpt lat="45.76175" lon="4.9005">
        <ele>180</ele>
        <time>2025-07-10T08:15:04.765000+02:00</time>
      </trkpt>
      <trkpt lat="45.76168" lon="4.90051">
        <ele>180</ele>
        <time>2025-07-10T08:15:05.765000+02:00</time>
      </trkpt>
      <trkpt lat="45.76156" lon="4.90054">
        <ele>180.4</ele>
        <time>2025-07-10T08:15:07.765000+02:00</time>
      </trkpt>
      <trkpt lat="45.76143" lon="4.90057">
        <ele>180.8</ele>
        <time>2025-07-10T08:15:09.765000+02:00</time>
      </trkpt>
      <trkpt lat="45.76131" lon="4.90059">
        <ele>181</ele>
        <time>2025-07-10T08:15:11.764000+02:00</time>
      </trkpt>
      <trkpt lat="45.76124" lon="4.9006">
        <ele>181</ele>
        <time>2025-07-10T08:15:12.764000+02:00</time>
      </trkpt>
      <trkpt lat="45.76117" lon="4.90061">
        <ele>181</ele>
        <time>2025-07-10T08:15:13.765000+02:00</time>
      </trkpt>
      <trkpt lat="45.76105" lon="4.90064">
        <ele>181</ele>
        <time>2025-07-10T08:15:15.764000+02:00</time>
      </trkpt>
      <trkpt lat="45.76093" lon="4.90066">
        <ele>181</ele>
        <time>2025-07-10T08:15:17.763000+02:00</time>
      </trkpt>
      <trkpt lat="45.76087" lon="4.90067">
        <ele>181</ele>
        <time>2025-07-10T08:15:18.764000+02:00</time>
      </trkpt>
      <trkpt lat="45.7608" lon="4.90068">
        <ele>181</ele>
        <time>2025-07-10T08:15:19.764000+02:00</time>
      </trkpt>
      <trkpt lat="45.76068" lon="4.9007">
        <ele>181</ele>
        <time>2025-07-10T08:15:21.763000+02:00</time>
      </trkpt>
      <trkpt lat="45.76062" lon="4.90071">
        <ele>181</ele>
        <time>2025-07-10T08:15:22.764000+02:00</time>
      </trkpt>
      <trkpt lat="45.76051" lon="4.90073">
        <ele>181</ele>
        <time>2025-07-10T08:15:24.764000+02:00</time>
      </trkpt>
      <trkpt lat="45.76047" lon="4.90075">
        <ele>181</ele>
        <time>2025-07-10T08:15:25.764000+02:00</time>
      </trkpt>
      <trkpt lat="45.76044" lon="4.90076">
        <ele>181</ele>
        <time>2025-07-10T08:15:26.764000+02:00</time>
      </trkpt>
      <trkpt lat="45.76041" lon="4.90078">
        <ele>181</ele>
        <time>2025-07-10T08:15:28.763000+02:00</time>
      </trkpt>
      <trkpt lat="45.7604" lon="4.90078">
        <ele>181</ele>
        <time>2025-07-10T08:15:29.764000+02:00</time>
      </trkpt>
      <trkpt lat="45.76039" lon="4.90078">
        <ele>181</ele>
        <time>2025-07-10T08:15:30.764000+02:00</time>
      </trkpt>
      <trkpt lat="45.76037" lon="4.90079">
        <ele>181</ele>
        <time>2025-07-10T08:15:32.765000+02:00</time>
      </trkpt>
      <trkpt lat="45.76035" lon="4.9008">
        <ele>181</ele>
        <time>2025-07-10T08:15:34.764000+02:00</time>
      </trkpt>
      <trkpt lat="45.76036" lon="4.9008">
        <ele>181</ele>
        <time>2025-07-10T08:15:36.764000+02:00</time>
      </trkpt>
      <trkpt lat="45.76036" lon="4.9008">
        <ele>181</ele>
        <time>2025-07-10T08:15:37.764000+02:00</time>
      </trkpt>
      <trkpt lat="45.76036" lon="4.9008">
        <ele>181</ele>
        <time>2025-07-10T08:15:38.765000+02:00</time>
      </trkpt>
      <trkpt lat="45.76036" lon="4.9008">
        <ele>181</ele>
        <time>2025-07-10T08:15:39.765000+02:00</time>
      </trkpt>
      <trkpt lat="45.76036" lon="4.9008">
        <ele>181</ele>
        <time>2025-07-10T08:15:41.764000+02:00</time>
      </trkpt>
      <trkpt lat="45.76036" lon="4.9008">
        <ele>181</ele>
        <time>2025-07-10T08:15:43.764000+02:00</time>
      </trkpt>
      <trkpt lat="45.76036" lon="4.9008">
        <ele>181</ele>
        <time>2025-07-10T08:15:45.765000+02:00</time>
      </trkpt>
      <trkpt lat="45.76036" lon="4.9008">
        <ele>181</ele>
        <time>2025-07-10T08:15:46.765000+02:00</time>
      </trkpt>
      <trkpt lat="45.76036" lon="4.9008">
        <ele>181</ele>
        <time>2025-07-10T08:15:48.764000+02:00</time>
      </trkpt>
      <trkpt lat="45.76036" lon="4.9008">
        <ele>181</ele>
        <time>2025-07-10T08:15:51.763000+02:00</time>
      </trkpt>
      <trkpt lat="45.76036" lon="4.90081">
        <ele>181</ele>
        <time>2025-07-10T08:15:52.763000+02:00</time>
      </trkpt>
      <trkpt lat="45.76036" lon="4.90081">
        <ele>181</ele>
        <time>2025-07-10T08:15:53.764000+02:00</time>
      </trkpt>
      <trkpt lat="45.76036" lon="4.90081">
        <ele>181</ele>
        <time>2025-07-10T08:15:54.764000+02:00</time>
      </trkpt>
      <trkpt lat="45.76036" lon="4.90081">
        <ele>181</ele>
        <time>2025-07-10T08:15:58.763000+02:00</time>
      </trkpt>
      <trkpt lat="45.76036" lon="4.90081">
        <ele>181</ele>
        <time>2025-07-10T08:15:59.764000+02:00</time>
      </trkpt>
      <trkpt lat="45.76036" lon="4.90081">
        <ele>181</ele>
        <time>2025-07-10T08:16:00.764000+02:00</time>
      </trkpt>
      <trkpt lat="45.76036" lon="4.90081">
        <ele>181</ele>
        <time>2025-07-10T08:16:03.765000+02:00</time>
      </trkpt>
      <trkpt lat="45.76035" lon="4.90081">
        <ele>181</ele>
        <time>2025-07-10T08:16:05.764000+02:00</time>
      </trkpt>
      <trkpt lat="45.76034" lon="4.90081">
        <ele>181</ele>
        <time>2025-07-10T08:16:06.764000+02:00</time>
      </trkpt>
      <trkpt lat="45.76032" lon="4.9008">
        <ele>181</ele>
        <time>2025-07-10T08:16:07.765000+02:00</time>
      </trkpt>
      <trkpt lat="45.76027" lon="4.90075">
        <ele>181</ele>
        <time>2025-07-10T08:16:09.765000+02:00</time>
      </trkpt>
      <trkpt lat="45.76019" lon="4.90068">
        <ele>181.3</ele>
        <time>2025-07-10T08:16:11.764000+02:00</time>
      </trkpt>
      <trkpt lat="45.76014" lon="4.90065">
        <ele>181.5</ele>
        <time>2025-07-10T08:16:12.764000+02:00</time>
      </trkpt>
      <trkpt lat="45.76008" lon="4.90061">
        <ele>181.7</ele>
        <time>2025-07-10T08:16:13.764000+02:00</time>
      </trkpt>
      <trkpt lat="45.76002" lon="4.90058">
        <ele>181.9</ele>
        <time>2025-07-10T08:16:14.764000+02:00</time>
      </trkpt>
      <trkpt lat="45.7599" lon="4.90051">
        <ele>182</ele>
        <time>2025-07-10T08:16:16.764000+02:00</time>
      </trkpt>
      <trkpt lat="45.75984" lon="4.90048">
        <ele>182</ele>
        <time>2025-07-10T08:16:17.764000+02:00</time>
      </trkpt>
      <trkpt lat="45.75971" lon="4.90044">
        <ele>182</ele>
        <time>2025-07-10T08:16:19.763000+02:00</time>
      </trkpt>
      <trkpt lat="45.75965" lon="4.90042">
        <ele>182</ele>
        <time>2025-07-10T08:16:20.764000+02:00</time>
      </trkpt>
      <trkpt lat="45.75953" lon="4.90037">
        <ele>182</ele>
        <time>2025-07-10T08:16:22.764000+02:00</time>
      </trkpt>
      <trkpt lat="45.75948" lon="4.90034">
        <ele>182</ele>
        <time>2025-07-10T08:16:23.765000+02:00</time>
      </trkpt>
      <trkpt lat="45.75943" lon="4.90032">
        <ele>182</ele>
        <time>2025-07-10T08:16:24.765000+02:00</time>
      </trkpt>
      <trkpt lat="45.7593" lon="4.90026">
        <ele>182</ele>
        <time>2025-07-10T08:16:26.762000+02:00</time>
      </trkpt>
      <trkpt lat="45.75923" lon="4.90023">
        <ele>182.2</ele>
        <time>2025-07-10T08:16:27.763000+02:00</time>
      </trkpt>
      <trkpt lat="45.75916" lon="4.9002">
        <ele>182.3</ele>
        <time>2025-07-10T08:16:28.763000+02:00</time>
      </trkpt>
      <trkpt lat="45.7591" lon="4.90017">
        <ele>182.3</ele>
        <time>2025-07-10T08:16:29.764000+02:00</time>
      </trkpt>
      <trkpt lat="45.75903" lon="4.90015">
        <ele>182.2</ele>
        <time>2025-07-10T08:16:30.764000+02:00</time>
      </trkpt>
      <trkpt lat="45.75897" lon="4.90012">
        <ele>182.2</ele>
        <time>2025-07-10T08:16:31.764000+02:00</time>
      </trkpt>
      <trkpt lat="45.75884" lon="4.90005">
        <ele>182</ele>
        <time>2025-07-10T08:16:33.764000+02:00</time>
      </trkpt>
      <trkpt lat="45.75872" lon="4.89999">
        <ele>182</ele>
        <time>2025-07-10T08:16:35.763000+02:00</time>
      </trkpt>
      <trkpt lat="45.75867" lon="4.89997">
        <ele>182</ele>
        <time>2025-07-10T08:16:36.764000+02:00</time>
      </trkpt>
      <trkpt lat="45.75862" lon="4.89995">
        <ele>182</ele>
        <time>2025-07-10T08:16:37.764000+02:00</time>
      </trkpt>
      <trkpt lat="45.75857" lon="4.89993">
        <ele>182</ele>
        <time>2025-07-10T08:16:38.764000+02:00</time>
      </trkpt>
      <trkpt lat="45.75849" lon="4.89991">
        <ele>182</ele>
        <time>2025-07-10T08:16:40.764000+02:00</time>
      </trkpt>
      <trkpt lat="45.75845" lon="4.89989">
        <ele>182</ele>
        <time>2025-07-10T08:16:41.764000+02:00</time>
      </trkpt>
      <trkpt lat="45.75841" lon="4.89988">
        <ele>182</ele>
        <time>2025-07-10T08:16:42.764000+02:00</time>
      </trkpt>
      <trkpt lat="45.75837" lon="4.89988">
        <ele>182</ele>
        <time>2025-07-10T08:16:43.765000+02:00</time>
      </trkpt>
      <trkpt lat="45.75828" lon="4.89986">
        <ele>182</ele>
        <time>2025-07-10T08:16:45.764000+02:00</time>
      </trkpt>
      <trkpt lat="45.75822" lon="4.89986">
        <ele>182</ele>
        <time>2025-07-10T08:16:46.764000+02:00</time>
      </trkpt>
      <trkpt lat="45.75816" lon="4.89986">
        <ele>182</ele>
        <time>2025-07-10T08:16:47.764000+02:00</time>
      </trkpt>
      <trkpt lat="45.75811" lon="4.89985">
        <ele>182</ele>
        <time>2025-07-10T08:16:48.764000+02:00</time>
      </trkpt>
      <trkpt lat="45.758" lon="4.89985">
        <ele>182</ele>
        <time>2025-07-10T08:16:50.763000+02:00</time>
      </trkpt>
      <trkpt lat="45.75795" lon="4.89985">
        <ele>182</ele>
        <time>2025-07-10T08:16:51.764000+02:00</time>
      </trkpt>
      <trkpt lat="45.75783" lon="4.89984">
        <ele>182</ele>
        <time>2025-07-10T08:16:53.764000+02:00</time>
      </trkpt>
      <trkpt lat="45.75777" lon="4.89984">
        <ele>182</ele>
        <time>2025-07-10T08:16:54.764000+02:00</time>
      </trkpt>
      <trkpt lat="45.75771" lon="4.89984">
        <ele>182.1</ele>
        <time>2025-07-10T08:16:55.764000+02:00</time>
      </trkpt>
      <trkpt lat="45.75766" lon="4.89984">
        <ele>182.2</ele>
        <time>2025-07-10T08:16:56.764000+02:00</time>
      </trkpt>
      <trkpt lat="45.75761" lon="4.89984">
        <ele>182.2</ele>
        <time>2025-07-10T08:16:57.764000+02:00</time>
      </trkpt>
      <trkpt lat="45.75757" lon="4.89983">
        <ele>182.3</ele>
        <time>2025-07-10T08:16:58.765000+02:00</time>
      </trkpt>
      <trkpt lat="45.75746" lon="4.89981">
        <ele>182.3</ele>
        <time>2025-07-10T08:17:00.763000+02:00</time>
      </trkpt>
      <trkpt lat="45.7574" lon="4.8998">
        <ele>182.3</ele>
        <time>2025-07-10T08:17:01.764000+02:00</time>
      </trkpt>
      <trkpt lat="45.75729" lon="4.89978">
        <ele>182.2</ele>
        <time>2025-07-10T08:17:03.764000+02:00</time>
      </trkpt>
      <trkpt lat="45.75724" lon="4.89976">
        <ele>182.2</ele>
        <time>2025-07-10T08:17:04.764000+02:00</time>
      </trkpt>
      <trkpt lat="45.7572" lon="4.89976">
        <ele>182.2</ele>
        <time>2025-07-10T08:17:05.765000+02:00</time>
      </trkpt>
      <trkpt lat="45.75711" lon="4.89973">
        <ele>182.4</ele>
        <time>2025-07-10T08:17:07.764000+02:00</time>
      </trkpt>
      <trkpt lat="45.75704" lon="4.89974">
        <ele>182.7</ele>
        <time>2025-07-10T08:17:09.764000+02:00</time>
      </trkpt>
      <trkpt lat="45.75698" lon="4.89972">
        <ele>182.9</ele>
        <time>2025-07-10T08:17:11.762000+02:00</time>
      </trkpt>
      <trkpt lat="45.75696" lon="4.89972">
        <ele>183</ele>
        <time>2025-07-10T08:17:12.763000+02:00</time>
      </trkpt>
      <trkpt lat="45.75694" lon="4.89972">
        <ele>183</ele>
        <time>2025-07-10T08:17:13.763000+02:00</time>
      </trkpt>
      <trkpt lat="45.75693" lon="4.89974">
        <ele>183</ele>
        <time>2025-07-10T08:17:14.764000+02:00</time>
      </trkpt>
      <trkpt lat="45.75691" lon="4.89984">
        <ele>183</ele>
        <time>2025-07-10T08:17:16.763000+02:00</time>
      </trkpt>
      <trkpt lat="45.75692" lon="4.89991">
        <ele>183</ele>
        <time>2025-07-10T08:17:17.764000+02:00</time>
      </trkpt>
      <trkpt lat="45.75696" lon="4.90008">
        <ele>183</ele>
        <time>2025-07-10T08:17:19.765000+02:00</time>
      </trkpt>
      <trkpt lat="45.75698" lon="4.90027">
        <ele>183</ele>
        <time>2025-07-10T08:17:21.764000+02:00</time>
      </trkpt>
      <trkpt lat="45.75699" lon="4.90037">
        <ele>183</ele>
        <time>2025-07-10T08:17:22.764000+02:00</time>
      </trkpt>
      <trkpt lat="45.75701" lon="4.90056">
        <ele>183</ele>
        <time>2025-07-10T08:17:24.765000+02:00</time>
      </trkpt>
      <trkpt lat="45.75704" lon="4.90074">
        <ele>183</ele>
        <time>2025-07-10T08:17:26.762000+02:00</time>
      </trkpt>
      <trkpt lat="45.75705" lon="4.90083">
        <ele>183</ele>
        <time>2025-07-10T08:17:27.763000+02:00</time>
      </trkpt>
      <trkpt lat="45.75706" lon="4.90092">
        <ele>183</ele>
        <time>2025-07-10T08:17:28.763000+02:00</time>
      </trkpt>
      <trkpt lat="45.75708" lon="4.90101">
        <ele>183</ele>
        <time>2025-07-10T08:17:29.764000+02:00</time>
      </trkpt>
      <trkpt lat="45.7571" lon="4.90118">
        <ele>183</ele>
        <time>2025-07-10T08:17:31.764000+02:00</time>
      </trkpt>
      <trkpt lat="45.75712" lon="4.90135">
        <ele>183</ele>
        <time>2025-07-10T08:17:33.764000+02:00</time>
      </trkpt>
      <trkpt lat="45.75714" lon="4.9015">
        <ele>183</ele>
        <time>2025-07-10T08:17:35.764000+02:00</time>
      </trkpt>
      <trkpt lat="45.75715" lon="4.90157">
        <ele>183</ele>
        <time>2025-07-10T08:17:36.764000+02:00</time>
      </trkpt>
      <trkpt lat="45.75716" lon="4.90164">
        <ele>183</ele>
        <time>2025-07-10T08:17:37.765000+02:00</time>
      </trkpt>
      <trkpt lat="45.75718" lon="4.90177">
        <ele>183</ele>
        <time>2025-07-10T08:17:39.765000+02:00</time>
      </trkpt>
      <trkpt lat="45.75718" lon="4.90187">
        <ele>183</ele>
        <time>2025-07-10T08:17:41.762000+02:00</time>
      </trkpt>
      <trkpt lat="45.75719" lon="4.90191">
        <ele>183</ele>
        <time>2025-07-10T08:17:42.763000+02:00</time>
      </trkpt>
      <trkpt lat="45.75721" lon="4.90196">
        <ele>183</ele>
        <time>2025-07-10T08:17:43.763000+02:00</time>
      </trkpt>
      <trkpt lat="45.75722" lon="4.90201">
        <ele>183</ele>
        <time>2025-07-10T08:17:44.764000+02:00</time>
      </trkpt>
      <trkpt lat="45.75723" lon="4.90207">
        <ele>183</ele>
        <time>2025-07-10T08:17:45.764000+02:00</time>
      </trkpt>
      <trkpt lat="45.75724" lon="4.90223">
        <ele>183</ele>
        <time>2025-07-10T08:17:47.763000+02:00</time>
      </trkpt>
      <trkpt lat="45.75726" lon="4.90232">
        <ele>183</ele>
        <time>2025-07-10T08:17:48.764000+02:00</time>
      </trkpt>
      <trkpt lat="45.75727" lon="4.90247">
        <ele>183</ele>
        <time>2025-07-10T08:17:50.764000+02:00</time>
      </trkpt>
      <trkpt lat="45.75728" lon="4.90254">
        <ele>183</ele>
        <time>2025-07-10T08:17:52.764000+02:00</time>
      </trkpt>
      <trkpt lat="45.75728" lon="4.90256">
        <ele>183</ele>
        <time>2025-07-10T08:17:53.764000+02:00</time>
      </trkpt>
      <trkpt lat="45.7573" lon="4.90259">
        <ele>183</ele>
        <time>2025-07-10T08:17:55.762000+02:00</time>
      </trkpt>
      <trkpt lat="45.75731" lon="4.90262">
        <ele>183</ele>
        <time>2025-07-10T08:17:56.764000+02:00</time>
      </trkpt>
      <trkpt lat="45.75732" lon="4.9027">
        <ele>183</ele>
        <time>2025-07-10T08:17:58.762000+02:00</time>
      </trkpt>
      <trkpt lat="45.75732" lon="4.90274">
        <ele>183</ele>
        <time>2025-07-10T08:17:59.765000+02:00</time>
      </trkpt>
      <trkpt lat="45.75733" lon="4.90283">
        <ele>183</ele>
        <time>2025-07-10T08:18:01.764000+02:00</time>
      </trkpt>
      <trkpt lat="45.75734" lon="4.90293">
        <ele>183</ele>
        <time>2025-07-10T08:18:03.764000+02:00</time>
      </trkpt>
      <trkpt lat="45.75735" lon="4.90299">
        <ele>183</ele>
        <time>2025-07-10T08:18:04.765000+02:00</time>
      </trkpt>
      <trkpt lat="45.75736" lon="4.9031">
        <ele>183</ele>
        <time>2025-07-10T08:18:06.764000+02:00</time>
      </trkpt>
      <trkpt lat="45.75738" lon="4.90322">
        <ele>183</ele>
        <time>2025-07-10T08:18:08.763000+02:00</time>
      </trkpt>
      <trkpt lat="45.75739" lon="4.90328">
        <ele>183</ele>
        <time>2025-07-10T08:18:09.764000+02:00</time>
      </trkpt>
      <trkpt lat="45.7574" lon="4.90335">
        <ele>183</ele>
        <time>2025-07-10T08:18:10.764000+02:00</time>
      </trkpt>
      <trkpt lat="45.75742" lon="4.90341">
        <ele>183</ele>
        <time>2025-07-10T08:18:11.764000+02:00</time>
      </trkpt>
      <trkpt lat="45.75743" lon="4.90348">
        <ele>183</ele>
        <time>2025-07-10T08:18:12.764000+02:00</time>
      </trkpt>
      <trkpt lat="45.75744" lon="4.90361">
        <ele>183</ele>
        <time>2025-07-10T08:18:14.763000+02:00</time>
      </trkpt>
      <trkpt lat="45.75745" lon="4.90368">
        <ele>183</ele>
        <time>2025-07-10T08:18:15.763000+02:00</time>
      </trkpt>
      <trkpt lat="45.75746" lon="4.90381">
        <ele>183</ele>
        <time>2025-07-10T08:18:17.764000+02:00</time>
      </trkpt>
      <trkpt lat="45.75747" lon="4.90388">
        <ele>183</ele>
        <time>2025-07-10T08:18:18.765000+02:00</time>
      </trkpt>
      <trkpt lat="45.75749" lon="4.90404">
        <ele>183.5</ele>
        <time>2025-07-10T08:18:20.762000+02:00</time>
      </trkpt>
      <trkpt lat="45.75751" lon="4.90413">
        <ele>183.9</ele>
        <time>2025-07-10T08:18:21.762000+02:00</time>
      </trkpt>
      <trkpt lat="45.75752" lon="4.90422">
        <ele>183.9</ele>
        <time>2025-07-10T08:18:22.763000+02:00</time>
      </trkpt>
      <trkpt lat="45.75754" lon="4.90432">
        <ele>183.9</ele>
        <time>2025-07-10T08:18:23.763000+02:00</time>
      </trkpt>
      <trkpt lat="45.75755" lon="4.90442">
        <ele>183.8</ele>
        <time>2025-07-10T08:18:24.765000+02:00</time>
      </trkpt>
      <trkpt lat="45.75757" lon="4.90462">
        <ele>183.8</ele>
        <time>2025-07-10T08:18:26.764000+02:00</time>
      </trkpt>
      <trkpt lat="45.7576" lon="4.90482">
        <ele>183.7</ele>
        <time>2025-07-10T08:18:28.763000+02:00</time>
      </trkpt>
      <trkpt lat="45.75761" lon="4.90492">
        <ele>183.6</ele>
        <time>2025-07-10T08:18:29.764000+02:00</time>
      </trkpt>
      <trkpt lat="45.75763" lon="4.90512">
        <ele>183.5</ele>
        <time>2025-07-10T08:18:31.764000+02:00</time>
      </trkpt>
      <trkpt lat="45.75766" lon="4.90532">
        <ele>183.4</ele>
        <time>2025-07-10T08:18:33.764000+02:00</time>
      </trkpt>
      <trkpt lat="45.75767" lon="4.90542">
        <ele>183.4</ele>
        <time>2025-07-10T08:18:34.765000+02:00</time>
      </trkpt>
      <trkpt lat="45.7577" lon="4.90562">
        <ele>183.3</ele>
        <time>2025-07-10T08:18:36.763000+02:00</time>
      </trkpt>
      <trkpt lat="45.75771" lon="4.90572">
        <ele>183.2</ele>
        <time>2025-07-10T08:18:37.764000+02:00</time>
      </trkpt>
      <trkpt lat="45.75774" lon="4.90591">
        <ele>183.1</ele>
        <time>2025-07-10T08:18:39.764000+02:00</time>
      </trkpt>
      <trkpt lat="45.75776" lon="4.90611">
        <ele>183</ele>
        <time>2025-07-10T08:18:41.764000+02:00</time>
      </trkpt>
      <trkpt lat="45.75779" lon="4.90629">
        <ele>183</ele>
        <time>2025-07-10T08:18:43.762000+02:00</time>
      </trkpt>
      <trkpt lat="45.7578" lon="4.90638">
        <ele>183.1</ele>
        <time>2025-07-10T08:18:44.763000+02:00</time>
      </trkpt>
      <trkpt lat="45.75781" lon="4.90648">
        <ele>183.4</ele>
        <time>2025-07-10T08:18:45.763000+02:00</time>
      </trkpt>
      <trkpt lat="45.75783" lon="4.90657">
        <ele>183.7</ele>
        <time>2025-07-10T08:18:46.764000+02:00</time>
      </trkpt>
      <trkpt lat="45.75785" lon="4.90675">
        <ele>184</ele>
        <time>2025-07-10T08:18:48.764000+02:00</time>
      </trkpt>
      <trkpt lat="45.75787" lon="4.90684">
        <ele>184</ele>
        <time>2025-07-10T08:18:49.764000+02:00</time>
      </trkpt>
      <trkpt lat="45.75789" lon="4.90702">
        <ele>184</ele>
        <time>2025-07-10T08:18:51.763000+02:00</time>
      </trkpt>
      <trkpt lat="45.75791" lon="4.90711">
        <ele>184</ele>
        <time>2025-07-10T08:18:52.764000+02:00</time>
      </trkpt>
      <trkpt lat="45.75793" lon="4.90728">
        <ele>184</ele>
        <time>2025-07-10T08:18:54.762000+02:00</time>
      </trkpt>
      <trkpt lat="45.75794" lon="4.90737">
        <ele>184</ele>
        <time>2025-07-10T08:18:55.764000+02:00</time>
      </trkpt>
      <trkpt lat="45.75796" lon="4.90754">
        <ele>184</ele>
        <time>2025-07-10T08:18:57.763000+02:00</time>
      </trkpt>
      <trkpt lat="45.75797" lon="4.90759">
        <ele>184</ele>
        <time>2025-07-10T08:18:58.763000+02:00</time>
      </trkpt>
      <trkpt lat="45.75798" lon="4.90762">
        <ele>184</ele>
        <time>2025-07-10T08:18:59.763000+02:00</time>
      </trkpt>
      <trkpt lat="45.75798" lon="4.90765">
        <ele>184</ele>
        <time>2025-07-10T08:19:00.763000+02:00</time>
      </trkpt>
      <trkpt lat="45.75798" lon="4.90767">
        <ele>184</ele>
        <time>2025-07-10T08:19:01.763000+02:00</time>
      </trkpt>
      <trkpt lat="45.75798" lon="4.90768">
        <ele>184</ele>
        <time>2025-07-10T08:19:02.763000+02:00</time>
      </trkpt>
      <trkpt lat="45.75798" lon="4.90769">
        <ele>184</ele>
        <time>2025-07-10T08:19:03.763000+02:00</time>
      </trkpt>
      <trkpt lat="45.75798" lon="4.90772">
        <ele>184</ele>
        <time>2025-07-10T08:19:05.764000+02:00</time>
      </trkpt>
      <trkpt lat="45.75798" lon="4.90777">
        <ele>184</ele>
        <time>2025-07-10T08:19:07.763000+02:00</time>
      </trkpt>
      <trkpt lat="45.75798" lon="4.90782">
        <ele>184</ele>
        <time>2025-07-10T08:19:08.764000+02:00</time>
      </trkpt>
      <trkpt lat="45.75799" lon="4.90787">
        <ele>184</ele>
        <time>2025-07-10T08:19:09.764000+02:00</time>
      </trkpt>
      <trkpt lat="45.75802" lon="4.90801">
        <ele>184</ele>
        <time>2025-07-10T08:19:11.763000+02:00</time>
      </trkpt>
      <trkpt lat="45.75804" lon="4.90809">
        <ele>184</ele>
        <time>2025-07-10T08:19:12.765000+02:00</time>
      </trkpt>
      <trkpt lat="45.75806" lon="4.90828">
        <ele>184</ele>
        <time>2025-07-10T08:19:14.764000+02:00</time>
      </trkpt>
      <trkpt lat="45.75809" lon="4.90847">
        <ele>184</ele>
        <time>2025-07-10T08:19:16.764000+02:00</time>
      </trkpt>
      <trkpt lat="45.75811" lon="4.90865">
        <ele>184</ele>
        <time>2025-07-10T08:19:18.763000+02:00</time>
      </trkpt>
      <trkpt lat="45.75812" lon="4.90873">
        <ele>183.9</ele>
        <time>2025-07-10T08:19:19.763000+02:00</time>
      </trkpt>
      <trkpt lat="45.75813" lon="4.90882">
        <ele>183.8</ele>
        <time>2025-07-10T08:19:20.763000+02:00</time>
      </trkpt>
      <trkpt lat="45.75815" lon="4.9089">
        <ele>183.6</ele>
        <time>2025-07-10T08:19:21.764000+02:00</time>
      </trkpt>
      <trkpt lat="45.75817" lon="4.90908">
        <ele>182.5</ele>
        <time>2025-07-10T08:19:23.764000+02:00</time>
      </trkpt>
      <trkpt lat="45.7582" lon="4.90926">
        <ele>181.5</ele>
        <time>2025-07-10T08:19:25.763000+02:00</time>
      </trkpt>
      <trkpt lat="45.75822" lon="4.90942">
        <ele>180.9</ele>
        <time>2025-07-10T08:19:27.764000+02:00</time>
      </trkpt>
      <trkpt lat="45.75824" lon="4.90958">
        <ele>181.7</ele>
        <time>2025-07-10T08:19:29.764000+02:00</time>
      </trkpt>
      <trkpt lat="45.75826" lon="4.90971">
        <ele>183.1</ele>
        <time>2025-07-10T08:19:31.764000+02:00</time>
      </trkpt>
      <trkpt lat="45.75828" lon="4.90984">
        <ele>183.5</ele>
        <time>2025-07-10T08:19:33.764000+02:00</time>
      </trkpt>
      <trkpt lat="45.75828" lon="4.90994">
        <ele>183.8</ele>
        <time>2025-07-10T08:19:35.764000+02:00</time>
      </trkpt>
      <trkpt lat="45.7583" lon="4.91001">
        <ele>184</ele>
        <time>2025-07-10T08:19:37.763000+02:00</time>
      </trkpt>
      <trkpt lat="45.7583" lon="4.91006">
        <ele>184</ele>
        <time>2025-07-10T08:19:38.763000+02:00</time>
      </trkpt>
      <trkpt lat="45.75831" lon="4.91012">
        <ele>184</ele>
        <time>2025-07-10T08:19:39.764000+02:00</time>
      </trkpt>
      <trkpt lat="45.75832" lon="4.91023">
        <ele>184</ele>
        <time>2025-07-10T08:19:41.765000+02:00</time>
      </trkpt>
      <trkpt lat="45.75834" lon="4.91034">
        <ele>184.2</ele>
        <time>2025-07-10T08:19:43.764000+02:00</time>
      </trkpt>
      <trkpt lat="45.75836" lon="4.91045">
        <ele>184.5</ele>
        <time>2025-07-10T08:19:45.763000+02:00</time>
      </trkpt>
      <trkpt lat="45.75838" lon="4.91051">
        <ele>184.7</ele>
        <time>2025-07-10T08:19:46.763000+02:00</time>
      </trkpt>
      <trkpt lat="45.75839" lon="4.91057">
        <ele>184.8</ele>
        <time>2025-07-10T08:19:47.764000+02:00</time>
      </trkpt>
      <trkpt lat="45.7584" lon="4.91063">
        <ele>184.6</ele>
        <time>2025-07-10T08:19:48.764000+02:00</time>
      </trkpt>
      <trkpt lat="45.75842" lon="4.91076">
        <ele>184.2</ele>
        <time>2025-07-10T08:19:50.763000+02:00</time>
      </trkpt>
      <trkpt lat="45.75843" lon="4.91084">
        <ele>184</ele>
        <time>2025-07-10T08:19:51.765000+02:00</time>
      </trkpt>
      <trkpt lat="45.75846" lon="4.91103">
        <ele>184</ele>
        <time>2025-07-10T08:19:53.764000+02:00</time>
      </trkpt>
      <trkpt lat="45.75847" lon="4.91112">
        <ele>184</ele>
        <time>2025-07-10T08:19:54.764000+02:00</time>
      </trkpt>
      <trkpt lat="45.75849" lon="4.91131">
        <ele>184</ele>
        <time>2025-07-10T08:19:56.762000+02:00</time>
      </trkpt>
      <trkpt lat="45.75851" lon="4.9114">
        <ele>184</ele>
        <time>2025-07-10T08:19:57.763000+02:00</time>
      </trkpt>
      <trkpt lat="45.75852" lon="4.91149">
        <ele>184</ele>
        <time>2025-07-10T08:19:58.763000+02:00</time>
      </trkpt>
      <trkpt lat="45.75854" lon="4.91158">
        <ele>184</ele>
        <time>2025-07-10T08:19:59.763000+02:00</time>
      </trkpt>
      <trkpt lat="45.75855" lon="4.91167">
        <ele>184</ele>
        <time>2025-07-10T08:20:00.763000+02:00</time>
      </trkpt>
      <trkpt lat="45.75857" lon="4.91176">
        <ele>184</ele>
        <time>2025-07-10T08:20:01.763000+02:00</time>
      </trkpt>
      <trkpt lat="45.75859" lon="4.91185">
        <ele>184</ele>
        <time>2025-07-10T08:20:02.764000+02:00</time>
      </trkpt>
      <trkpt lat="45.7586" lon="4.91195">
        <ele>184</ele>
        <time>2025-07-10T08:20:03.764000+02:00</time>
      </trkpt>
      <trkpt lat="45.75863" lon="4.91213">
        <ele>184</ele>
        <time>2025-07-10T08:20:05.762000+02:00</time>
      </trkpt>
      <trkpt lat="45.75865" lon="4.91223">
        <ele>184</ele>
        <time>2025-07-10T08:20:06.762000+02:00</time>
      </trkpt>
      <trkpt lat="45.75866" lon="4.91232">
        <ele>184</ele>
        <time>2025-07-10T08:20:07.764000+02:00</time>
      </trkpt>
      <trkpt lat="45.75869" lon="4.9125">
        <ele>184</ele>
        <time>2025-07-10T08:20:09.763000+02:00</time>
      </trkpt>
      <trkpt lat="45.75872" lon="4.91269">
        <ele>184</ele>
        <time>2025-07-10T08:20:11.763000+02:00</time>
      </trkpt>
      <trkpt lat="45.75873" lon="4.91277">
        <ele>184</ele>
        <time>2025-07-10T08:20:12.763000+02:00</time>
      </trkpt>
      <trkpt lat="45.75874" lon="4.91287">
        <ele>184</ele>
        <time>2025-07-10T08:20:13.763000+02:00</time>
      </trkpt>
      <trkpt lat="45.75876" lon="4.91296">
        <ele>184</ele>
        <time>2025-07-10T08:20:14.763000+02:00</time>
      </trkpt>
      <trkpt lat="45.75878" lon="4.91305">
        <ele>184</ele>
        <time>2025-07-10T08:20:15.764000+02:00</time>
      </trkpt>
      <trkpt lat="45.75881" lon="4.91323">
        <ele>184</ele>
        <time>2025-07-10T08:20:17.764000+02:00</time>
      </trkpt>
      <trkpt lat="45.75884" lon="4.91342">
        <ele>184</ele>
        <time>2025-07-10T08:20:19.763000+02:00</time>
      </trkpt>
      <trkpt lat="45.75886" lon="4.91351">
        <ele>184</ele>
        <time>2025-07-10T08:20:20.764000+02:00</time>
      </trkpt>
      <trkpt lat="45.7589" lon="4.91369">
        <ele>184</ele>
        <time>2025-07-10T08:20:22.762000+02:00</time>
      </trkpt>
      <trkpt lat="45.75892" lon="4.91378">
        <ele>184</ele>
        <time>2025-07-10T08:20:23.763000+02:00</time>
      </trkpt>
      <trkpt lat="45.75894" lon="4.91387">
        <ele>184</ele>
        <time>2025-07-10T08:20:24.764000+02:00</time>
      </trkpt>
      <trkpt lat="45.75896" lon="4.91395">
        <ele>184</ele>
        <time>2025-07-10T08:20:25.764000+02:00</time>
      </trkpt>
      <trkpt lat="45.75898" lon="4.91404">
        <ele>184</ele>
        <time>2025-07-10T08:20:26.764000+02:00</time>
      </trkpt>
      <trkpt lat="45.75902" lon="4.91423">
        <ele>184</ele>
        <time>2025-07-10T08:20:28.763000+02:00</time>
      </trkpt>
      <trkpt lat="45.75904" lon="4.91432">
        <ele>184</ele>
        <time>2025-07-10T08:20:29.763000+02:00</time>
      </trkpt>
      <trkpt lat="45.75906" lon="4.9144">
        <ele>184</ele>
        <time>2025-07-10T08:20:30.764000+02:00</time>
      </trkpt>
      <trkpt lat="45.75908" lon="4.91449">
        <ele>184</ele>
        <time>2025-07-10T08:20:31.764000+02:00</time>
      </trkpt>
      <trkpt lat="45.7591" lon="4.91458">
        <ele>184</ele>
        <time>2025-07-10T08:20:32.764000+02:00</time>
      </trkpt>
      <trkpt lat="45.75915" lon="4.91474">
        <ele>184</ele>
        <time>2025-07-10T08:20:34.764000+02:00</time>
      </trkpt>
      <trkpt lat="45.75919" lon="4.91489">
        <ele>183.9</ele>
        <time>2025-07-10T08:20:36.763000+02:00</time>
      </trkpt>
      <trkpt lat="45.7592" lon="4.91496">
        <ele>183.9</ele>
        <time>2025-07-10T08:20:37.764000+02:00</time>
      </trkpt>
      <trkpt lat="45.75924" lon="4.9151">
        <ele>183.7</ele>
        <time>2025-07-10T08:20:39.764000+02:00</time>
      </trkpt>
      <trkpt lat="45.75927" lon="4.91524">
        <ele>183.6</ele>
        <time>2025-07-10T08:20:41.762000+02:00</time>
      </trkpt>
      <trkpt lat="45.75929" lon="4.9153">
        <ele>183.5</ele>
        <time>2025-07-10T08:20:42.763000+02:00</time>
      </trkpt>
      <trkpt lat="45.75932" lon="4.91543">
        <ele>183.2</ele>
        <time>2025-07-10T08:20:44.763000+02:00</time>
      </trkpt>
      <trkpt lat="45.75935" lon="4.91556">
        <ele>183</ele>
        <time>2025-07-10T08:20:46.764000+02:00</time>
      </trkpt>
      <trkpt lat="45.75937" lon="4.91563">
        <ele>182.9</ele>
        <time>2025-07-10T08:20:47.764000+02:00</time>
      </trkpt>
      <trkpt lat="45.75941" lon="4.91576">
        <ele>182.9</ele>
        <time>2025-07-10T08:20:49.763000+02:00</time>
      </trkpt>
      <trkpt lat="45.75942" lon="4.91583">
        <ele>182.9</ele>
        <time>2025-07-10T08:20:50.763000+02:00</time>
      </trkpt>
      <trkpt lat="45.75944" lon="4.9159">
        <ele>183.2</ele>
        <time>2025-07-10T08:20:51.763000+02:00</time>
      </trkpt>
      <trkpt lat="45.75945" lon="4.91595">
        <ele>183.4</ele>
        <time>2025-07-10T08:20:52.764000+02:00</time>
      </trkpt>
      <trkpt lat="45.75948" lon="4.91607">
        <ele>183.7</ele>
        <time>2025-07-10T08:20:54.762000+02:00</time>
      </trkpt>
      <trkpt lat="45.75949" lon="4.91612">
        <ele>183.8</ele>
        <time>2025-07-10T08:20:55.763000+02:00</time>
      </trkpt>
      <trkpt lat="45.75952" lon="4.91622">
        <ele>183.4</ele>
        <time>2025-07-10T08:20:57.764000+02:00</time>
      </trkpt>
      <trkpt lat="45.75954" lon="4.91632">
        <ele>183.2</ele>
        <time>2025-07-10T08:20:59.763000+02:00</time>
      </trkpt>
      <trkpt lat="45.75951" lon="4.91637">
        <ele>183</ele>
        <time>2025-07-10T08:21:01.763000+02:00</time>
      </trkpt>
      <trkpt lat="45.75947" lon="4.91638">
        <ele>183</ele>
        <time>2025-07-10T08:21:02.763000+02:00</time>
      </trkpt>
      <trkpt lat="45.75943" lon="4.91638">
        <ele>183</ele>
        <time>2025-07-10T08:21:03.763000+02:00</time>
      </trkpt>
      <trkpt lat="45.75936" lon="4.91638">
        <ele>183</ele>
        <time>2025-07-10T08:21:05.763000+02:00</time>
      </trkpt>
      <trkpt lat="45.75935" lon="4.91637">
        <ele>183</ele>
        <time>2025-07-10T08:21:06.764000+02:00</time>
      </trkpt>
      <trkpt lat="45.75933" lon="4.91633">
        <ele>183</ele>
        <time>2025-07-10T08:21:08.763000+02:00</time>
      </trkpt>
      <trkpt lat="45.75933" lon="4.9163">
        <ele>183.1</ele>
        <time>2025-07-10T08:21:09.763000+02:00</time>
      </trkpt>
      <trkpt lat="45.75934" lon="4.91626">
        <ele>183.1</ele>
        <time>2025-07-10T08:21:10.763000+02:00</time>
      </trkpt>
      <trkpt lat="45.75933" lon="4.9162">
        <ele>183.1</ele>
        <time>2025-07-10T08:21:11.763000+02:00</time>
      </trkpt>
      <trkpt lat="45.75932" lon="4.91613">
        <ele>183.1</ele>
        <time>2025-07-10T08:21:12.764000+02:00</time>
      </trkpt>
      <trkpt lat="45.75928" lon="4.91597">
        <ele>182.6</ele>
        <time>2025-07-10T08:21:14.764000+02:00</time>
      </trkpt>
      <trkpt lat="45.75925" lon="4.91589">
        <ele>182.4</ele>
        <time>2025-07-10T08:21:15.764000+02:00</time>
      </trkpt>
      <trkpt lat="45.75923" lon="4.91581">
        <ele>182.3</ele>
        <time>2025-07-10T08:21:16.764000+02:00</time>
      </trkpt>
      <trkpt lat="45.75919" lon="4.91566">
        <ele>182.7</ele>
        <time>2025-07-10T08:21:18.764000+02:00</time>
      </trkpt>
      <trkpt lat="45.75915" lon="4.91552">
        <ele>183</ele>
        <time>2025-07-10T08:21:20.762000+02:00</time>
      </trkpt>
      <trkpt lat="45.75913" lon="4.91546">
        <ele>183.2</ele>
        <time>2025-07-10T08:21:21.762000+02:00</time>
      </trkpt>
      <trkpt lat="45.75911" lon="4.91541">
        <ele>183.3</ele>
        <time>2025-07-10T08:21:22.763000+02:00</time>
      </trkpt>
      <trkpt lat="45.7591" lon="4.91537">
        <ele>183.5</ele>
        <time>2025-07-10T08:21:23.763000+02:00</time>
      </trkpt>
      <trkpt lat="45.75907" lon="4.91535">
        <ele>183.6</ele>
        <time>2025-07-10T08:21:25.763000+02:00</time>
      </trkpt>
      <trkpt lat="45.75905" lon="4.91535">
        <ele>183.5</ele>
        <time>2025-07-10T08:21:26.764000+02:00</time>
      </trkpt>
      <trkpt lat="45.75905" lon="4.91536">
        <ele>183.4</ele>
        <time>2025-07-10T08:21:28.762000+02:00</time>
      </trkpt>
      <trkpt lat="45.75905" lon="4.91536">
        <ele>183.4</ele>
        <time>2025-07-10T08:21:29.762000+02:00</time>
      </trkpt>
      <trkpt lat="45.75905" lon="4.91536">
        <ele>183.4</ele>
        <time>2025-07-10T08:21:30.762000+02:00</time>
      </trkpt>
      <trkpt lat="45.75905" lon="4.91536">
        <ele>183.4</ele>
        <time>2025-07-10T08:21:31.764000+02:00</time>
      </trkpt>
      <trkpt lat="45.75905" lon="4.91536">
        <ele>183.4</ele>
        <time>2025-07-10T08:21:33.762000+02:00</time>
      </trkpt>
      <trkpt lat="45.75905" lon="4.91536">
        <ele>183.5</ele>
        <time>2025-07-10T08:21:34.762000+02:00</time>
      </trkpt>
      <trkpt lat="45.75905" lon="4.91536">
        <ele>183.5</ele>
        <time>2025-07-10T08:21:35.764000+02:00</time>
      </trkpt>
      <trkpt lat="45.75905" lon="4.91536">
        <ele>183.5</ele>
        <time>2025-07-10T08:21:37.763000+02:00</time>
      </trkpt>
      <trkpt lat="45.75905" lon="4.91536">
        <ele>183.5</ele>
        <time>2025-07-10T08:21:38.763000+02:00</time>
      </trkpt>
      <trkpt lat="45.75905" lon="4.91536">
        <ele>183.5</ele>
        <time>2025-07-10T08:21:40.763000+02:00</time>
      </trkpt>
      <trkpt lat="45.75905" lon="4.91536">
        <ele>183.5</ele>
        <time>2025-07-10T08:21:41.764000+02:00</time>
      </trkpt>
      <trkpt lat="45.75905" lon="4.91536">
        <ele>183.5</ele>
        <time>2025-07-10T08:21:43.763000+02:00</time>
      </trkpt>
      <trkpt lat="45.75905" lon="4.91536">
        <ele>183.4</ele>
        <time>2025-07-10T08:21:44.763000+02:00</time>
      </trkpt>
      <trkpt lat="45.75903" lon="4.91537">
        <ele>183.3</ele>
        <time>2025-07-10T08:21:46.762000+02:00</time>
      </trkpt>
      <trkpt lat="45.75902" lon="4.91538">
        <ele>183.2</ele>
        <time>2025-07-10T08:21:47.762000+02:00</time>
      </trkpt>
      <trkpt lat="45.75901" lon="4.91539">
        <ele>183.1</ele>
        <time>2025-07-10T08:21:48.762000+02:00</time>
      </trkpt>
      <trkpt lat="45.759" lon="4.9154">
        <ele>183</ele>
        <time>2025-07-10T08:21:49.762000+02:00</time>
      </trkpt>
      <trkpt lat="45.75898" lon="4.91541">
        <ele>182.9</ele>
        <time>2025-07-10T08:21:50.762000+02:00</time>
      </trkpt>
      <trkpt lat="45.75897" lon="4.91541">
        <ele>182.8</ele>
        <time>2025-07-10T08:21:51.762000+02:00</time>
      </trkpt>
      <trkpt lat="45.75896" lon="4.91542">
        <ele>182.7</ele>
        <time>2025-07-10T08:21:52.762000+02:00</time>
      </trkpt>
      <trkpt lat="45.75895" lon="4.91543">
        <ele>182.6</ele>
        <time>2025-07-10T08:21:53.763000+02:00</time>
      </trkpt>
      <trkpt lat="45.75893" lon="4.91544">
        <ele>182.4</ele>
        <time>2025-07-10T08:21:55.763000+02:00</time>
      </trkpt>
      <trkpt lat="45.75892" lon="4.91544">
        <ele>182.4</ele>
        <time>2025-07-10T08:21:56.763000+02:00</time>
      </trkpt>
      <trkpt lat="45.75892" lon="4.91544">
        <ele>182.4</ele>
        <time>2025-07-10T08:21:57.763000+02:00</time>
      </trkpt>
    </trkseg>
  </trk>
</gpx>